Darstellungsparameter: Aktuell verwendete Einstellungen:
Skalierung der Graphiken ... ?
xyx+y,   Skalierungsfaktor:      Skalierung: Modus: x, Faktor: 1
Darstellungszeitraum ... ?
Vom - - bis: - -   Zeitraum: 23.04.2010 - 22.04.2020
Min/Max/Avg-Anzeige ... ?
Zeige MMA aktuell
Zeige MMA Monat
Zeige MMA alles
Zeige --A aktuell
Zeige --A Monat
Zeige --A alles
Keine MMA-Anzeige
MMA:
Keine MMA-Graphiken
MMA-Basis: 23.04.2010 - 22.04.2020
Quicknavigation für Darstellung... ?
Tage:      1T, 2T, 3T, 5T -1T -2T -3T -5T +1T +2T +3T +5T
Wochen: 1W, 2W, 3W -1W -2W -3W +1W +2W +3W
Monate: 1M, 3M, 6M -1M -3M -6M +1M +3M +6M
Jahre:    1J, 3J, 5J, 10J -1J -3J -5J -10J +1J +3J +5J +10J
Nutze für die Darstellung ... ?
Originaldaten oder ...
Mittelwerte Minima Maxima auf...
Stundenbasis Tagesbasis Wochenbasis
Monatsbasis Jahresbasis      Datenbasis: Mittelwerte auf Tagesbasis
Darstellen als:
Statistik (Auto) Statistik J:M      Darstellung:
Zur Graphik,    zurück zur Übersicht aller Sensoren.
 
Tabellarische Datenbersicht: ?
 
Sensor: Nr:Datum:Temp:Feuchte:Taupunkt:
Aussen-T/F 1 23-04-2010 00:00:00 11.44917 C 39.7500 % -1.74 C
2 24-04-2010 00:00:00 14.91167 C 35.7417 % -0.11 C
3 25-04-2010 00:00:00 17.1075 C 36.0667 % 1.96 C
4 26-04-2010 00:00:00 15.72269 C 52.7899 % 6.12 C
5 27-04-2010 00:00:00 15.50417 C 47.7417 % 4.48 C
6 28-04-2010 00:00:00 16.8925 C 44.0167 % 4.58 C
7 29-04-2010 00:00:00 19.21417 C 40.4917 % 5.48 C
8 30-04-2010 00:00:00 18.69583 C 44.4333 % 6.35 C
9 01-05-2010 00:00:00 15.09917 C 52.5333 % 5.47 C
10 02-05-2010 00:00:00 13.48583 C 65.3833 % 7.13 C
11 03-05-2010 00:00:00 10.01667 C 73.7583 % 5.56 C
12 04-05-2010 00:00:00 9.78833 C 59.6167 % 2.32 C
13 05-05-2010 00:00:00 10.09083 C 40.0167 % -2.87 C
14 06-05-2010 00:00:00 6.68167 C 89.3500 % 5.06 C
15 07-05-2010 00:00:00 6.49417 C 88.9000 % 4.8 C
16 08-05-2010 00:00:00 11.06218 C 63.5126 % 4.41 C
17 09-05-2010 00:00:00 12.575 C 62.7583 % 5.67 C
18 10-05-2010 00:00:00 11.99917 C 62.6167 % 5.1 C
19 11-05-2010 00:00:00 11.53167 C 66.0583 % 5.42 C
20 12-05-2010 00:00:00 8.62333 C 73.6000 % 4.18 C
21 13-05-2010 00:00:00 8.07667 C 75.9167 % 4.09 C
22 14-05-2010 00:00:00 8.97333 C 81.9833 % 6.07 C
23 15-05-2010 00:00:00 10.6825 C 60.3500 % 3.33 C
24 16-05-2010 00:00:00 13.32917 C 45.9333 % 1.95 C
25 17-05-2010 00:00:00 10.56917 C 73.2083 % 5.98 C
Sensor: Nr:Datum:Temp:Feuchte:Taupunkt:
Aussen-T/F 26 18-05-2010 00:00:00 11.44333 C 59.0083 % 3.73 C
27 19-05-2010 00:00:00 10.30583 C 66.0083 % 4.24 C
28 20-05-2010 00:00:00 12.64034 C 56.8739 % 4.32 C
29 21-05-2010 00:00:00 16.54333 C 54.3833 % 7.31 C
30 22-05-2010 00:00:00 18.32583 C 49.5167 % 7.59 C
31 23-05-2010 00:00:00 20.32083 C 49.1083 % 9.3 C
32 24-05-2010 00:00:00 21.23 C 48.1667 % 9.84 C
33 25-05-2010 00:00:00 20.64583 C 44.5083 % 8.14 C
34 26-05-2010 00:00:00 15.41917 C 68.9500 % 9.75 C
35 27-05-2010 00:00:00 15.6175 C 61.4583 % 8.24 C
36 28-05-2010 00:00:00 17.3075 C 53.8500 % 7.88 C
37 29-05-2010 00:00:00 16.34 C 52.0167 % 6.48 C
38 30-05-2010 00:00:00 14.5975 C 71.3750 % 9.48 C
39 31-05-2010 00:00:00 11.56667 C 78.6667 % 7.99 C
40 01-06-2010 00:00:00 16.01833 C 61.6500 % 8.66 C
41 02-06-2010 00:00:00 17.66471 C 51.7731 % 7.63 C
42 03-06-2010 00:00:00 20.49083 C 44.3000 % 7.93 C
43 04-06-2010 00:00:00 21.43 C 42.1333 % 8.04 C
44 05-06-2010 00:00:00 22.97667 C 42.9500 % 9.72 C
45 06-06-2010 00:00:00 20.91333 C 60.9250 % 13.1 C
46 07-06-2010 00:00:00 19.58833 C 53.6333 % 9.93 C
47 08-06-2010 00:00:00 19.76833 C 55.8333 % 10.7 C
48 09-06-2010 00:00:00 22.5625 C 56.5667 % 13.5 C
49 10-06-2010 00:00:00 22.76417 C 66.8333 % 16.28 C
50 11-06-2010 00:00:00 22.89167 C 56.7417 % 13.86 C
Sensor: Nr:Datum:Temp:Feuchte:Taupunkt:
Aussen-T/F 51 12-06-2010 00:00:00 18.84917 C 63.4750 % 11.77 C
52 13-06-2010 00:00:00 18.25083 C 50.0250 % 7.67 C
53 14-06-2010 00:00:00 19.76667 C 45.7833 % 7.76 C
54 15-06-2010 00:00:00 18.9 C 49.7311 % 8.18 C
55 16-06-2010 00:00:00 18.82833 C 38.3167 % 4.34 C
56 17-06-2010 00:00:00 15.08583 C 71.6167 % 10 C
57 18-06-2010 00:00:00 15.2325 C 71.9167 % 10.2 C
58 19-06-2010 00:00:00 14.2725 C 51.1167 % 4.32 C
59 20-06-2010 00:00:00 13.20333 C 59.2167 % 5.43 C
60 21-06-2010 00:00:00 14.11083 C 52.4833 % 4.55 C
61 22-06-2010 00:00:00 17.38667 C 47.4833 % 6.12 C
62 23-06-2010 00:00:00 19.75917 C 47.6667 % 8.34 C
63 24-06-2010 00:00:00 22.54833 C 43.3500 % 9.47 C
64 25-06-2010 00:00:00 23.37 C 41.1917 % 9.45 C
65 26-06-2010 00:00:00 23.635 C 41.1583 % 9.67 C
66 27-06-2010 00:00:00 24.49417 C 40.2750 % 10.12 C
67 28-06-2010 00:00:00 25.25546 C 38.9832 % 10.31 C
68 29-06-2010 00:00:00 24.86167 C 43.0500 % 11.45 C
69 30-06-2010 00:00:00 24.6175 C 44.6583 % 11.78 C
70 01-07-2010 00:00:00 25.8425 C 40.2750 % 11.32 C
71 02-07-2010 00:00:00 26.96667 C 37.4917 % 11.24 C
72 03-07-2010 00:00:00 26.33 C 45.6083 % 13.66 C
73 04-07-2010 00:00:00 26.44833 C 48.2917 % 14.65 C
74 05-07-2010 00:00:00 22.02083 C 46.5417 % 10.05 C
75 06-07-2010 00:00:00 20.17833 C 47.7667 % 8.76 C
Sensor: Nr:Datum:Temp:Feuchte:Taupunkt:
Aussen-T/F 76 07-07-2010 00:00:00 22.53417 C 40.7500 % 8.54 C
77 08-07-2010 00:00:00 26.43417 C 34.8333 % 9.67 C
78 09-07-2010 00:00:00 27.51333 C 35.5750 % 10.93 C
79 10-07-2010 00:00:00 29.25667 C 36.9500 % 13.04 C
80 11-07-2010 00:00:00 28.48319 C 46.0252 % 15.75 C
81 12-07-2010 00:00:00 27.1175 C 42.8500 % 13.41 C
82 13-07-2010 00:00:00 25.36083 C 44.2167 % 12.31 C
83 14-07-2010 00:00:00 25.98917 C 48.2250 % 14.2 C
84 15-07-2010 00:00:00 22.6525 C 43.7250 % 9.69 C
85 16-07-2010 00:00:00 23.97667 C 38.9833 % 9.17 C
86 17-07-2010 00:00:00 21.99167 C 52.4833 % 11.83 C
87 18-07-2010 00:00:00 21.73833 C 38.4417 % 6.98 C
88 19-07-2010 00:00:00 23.63167 C 37.6000 % 8.33 C
89 20-07-2010 00:00:00 25.03833 C 36.6583 % 9.2 C
90 21-07-2010 00:00:00 24.73833 C 41.0417 % 10.62 C
91 22-07-2010 00:00:00 21.34917 C 62.1250 % 13.8 C
92 23-07-2010 00:00:00 20.17059 C 65.9748 % 13.61 C
93 24-07-2010 00:00:00 19.00667 C 56.1417 % 10.07 C
94 25-07-2010 00:00:00 17.26833 C 53.0333 % 7.62 C
95 26-07-2010 00:00:00 17.2925 C 77.8500 % 13.39 C
96 27-07-2010 00:00:00 19.815 C 58.8583 % 11.54 C
97 28-07-2010 00:00:00 20.5075 C 62.7583 % 13.17 C
98 29-07-2010 00:00:00 16.32417 C 82.1667 % 13.28 C
99 30-07-2010 00:00:00 19.665 C 55.1000 % 10.41 C
100 31-07-2010 00:00:00 20.62417 C 50.6750 % 10.04 C
Sensor: Nr:Datum:Temp:Feuchte:Taupunkt:
Aussen-T/F 101 01-08-2010 00:00:00 22.90833 C 58.5833 % 14.36 C
102 02-08-2010 00:00:00 19.60917 C 66.5833 % 13.22 C
103 03-08-2010 00:00:00 18.94167 C 62.2917 % 11.58 C
104 04-08-2010 00:00:00 19.62269 C 54.1933 % 10.12 C
105 05-08-2010 00:00:00 18.49417 C 63.2500 % 11.38 C
106 06-08-2010 00:00:00 19.04667 C 49.4417 % 8.23 C
107 07-08-2010 00:00:00 19.46583 C 47.2333 % 7.94 C
108 08-08-2010 00:00:00 18.485 C 73.9083 % 13.75 C
109 09-08-2010 00:00:00 19.515 C 62.0500 % 12.06 C
110 10-08-2010 00:00:00 22.13583 C 49.8000 % 11.17 C
111 11-08-2010 00:00:00 20.32833 C 71.7583 % 15.06 C
112 12-08-2010 00:00:00 19.10917 C 68.7917 % 13.24 C
113 13-08-2010 00:00:00 18.77833 C 56.4000 % 9.93 C
114 14-08-2010 00:00:00 19.9675 C 55.6000 % 10.82 C
115 15-08-2010 00:00:00 16.88667 C 82.0833 % 13.81 C
116 16-08-2010 00:00:00 17.07479 C 76.6975 % 12.95 C
117 17-08-2010 00:00:00 16.06667 C 78.3083 % 12.29 C
118 18-08-2010 00:00:00 18.40917 C 62.9750 % 11.24 C
119 19-08-2010 00:00:00 18.88917 C 50.6417 % 8.44 C
120 20-08-2010 00:00:00 20.42605 C 55.8739 % 11.32 C
121 21-08-2010 00:00:00 23.76417 C 52.7167 % 13.53 C
122 22-08-2010 00:00:00 23.01667 C 59.0250 % 14.58 C
123 23-08-2010 00:00:00 21.205 C 70.7833 % 15.69 C
124 24-08-2010 00:00:00 19.27083 C 47.4667 % 7.83 C
125 25-08-2010 00:00:00 17.61917 C 51.1167 % 7.4 C
Sensor: Nr:Datum:Temp:Feuchte:Taupunkt:
Aussen-T/F 126 26-08-2010 00:00:00 20.68083 C 64.0500 % 13.64 C
127 27-08-2010 00:00:00 18.37667 C 83.9000 % 15.61 C
128 28-08-2010 00:00:00 14.0675 C 73.3833 % 9.38 C
129 29-08-2010 00:00:00 13.03167 C 75.5167 % 8.81 C
130 30-08-2010 00:00:00 12.5675 C 77.2917 % 8.7 C
131 31-08-2010 00:00:00 15.42917 C 63.8417 % 8.62 C
132 01-09-2010 00:00:00 14.82437 C 66.2437 % 8.59 C
133 02-09-2010 00:00:00 14.95333 C 68.7750 % 9.27 C
134 03-09-2010 00:00:00 15.91417 C 66.8500 % 9.77 C
135 04-09-2010 00:00:00 16.71417 C 59.2667 % 8.74 C
136 05-09-2010 00:00:00 15.205 C 57.9500 % 6.99 C
137 06-09-2010 00:00:00 15.675 C 50.6333 % 5.48 C
138 07-09-2010 00:00:00 13.36083 C 72.0500 % 8.43 C
139 08-09-2010 00:00:00 15.545 C 82.5083 % 12.58 C
140 09-09-2010 00:00:00 16.20583 C 69.6333 % 10.65 C
141 10-09-2010 00:00:00 16.18 C 73.5500 % 11.45 C
142 11-09-2010 00:00:00 18.13417 C 67.4000 % 12 C
143 12-09-2010 00:00:00 16.21667 C 76.2417 % 12.03 C
144 13-09-2010 00:00:00 15.67583 C 69.6833 % 10.16 C
145 14-09-2010 00:00:00 16.63697 C 63.2689 % 9.63 C
146 15-09-2010 00:00:00 16.3175 C 56.3417 % 7.62 C
147 16-09-2010 00:00:00 14.07 C 68.7833 % 8.43 C
148 17-09-2010 00:00:00 13.76667 C 63.3000 % 6.92 C
149 18-09-2010 00:00:00 11.45083 C 66.4583 % 5.43 C
150 19-09-2010 00:00:00 11.7425 C 63.7833 % 5.12 C
Sensor: Nr:Datum:Temp:Feuchte:Taupunkt:
Aussen-T/F 151 20-09-2010 00:00:00 14.01 C 60.2750 % 6.44 C
152 21-09-2010 00:00:00 14.27 C 69.4583 % 8.76 C
153 22-09-2010 00:00:00 15.86667 C 68.2250 % 10.02 C
154 23-09-2010 00:00:00 16.56167 C 70.7917 % 11.24 C
155 24-09-2010 00:00:00 14.165 C 94.1000 % 13.23 C
156 25-09-2010 00:00:00 12.41833 C 72.2250 % 7.56 C
157 26-09-2010 00:00:00 11.2425 C 71.6917 % 6.33 C
158 27-09-2010 00:00:00 9.86807 C 80.2269 % 6.63 C
159 28-09-2010 00:00:00 10.93083 C 94.2917 % 10.05 C
160 29-09-2010 00:00:00 13.39417 C 76.6083 % 9.37 C
161 30-09-2010 00:00:00 11.89667 C 83.4333 % 9.18 C
162 01-10-2010 00:00:00 12.33667 C 83.6000 % 9.64 C
163 02-10-2010 00:00:00 13.4525 C 88.8333 % 11.65 C
164 03-10-2010 00:00:00 17.83583 C 69.4500 % 12.17 C
165 04-10-2010 00:00:00 16.905 C 67.1833 % 10.78 C
166 05-10-2010 00:00:00 15.64833 C 81.7000 % 12.53 C
167 06-10-2010 00:00:00 17.22333 C 68.1250 % 11.3 C
168 07-10-2010 00:00:00 16.31167 C 74.2083 % 11.71 C
169 08-10-2010 00:00:00 16.02917 C 68.6417 % 10.27 C
170 09-10-2010 00:00:00 13.1475 C 71.0083 % 8.01 C
171 10-10-2010 00:00:00 11.6125 C 61.5417 % 4.48 C
172 11-10-2010 00:00:00 10.90084 C 54.7647 % 2.17 C
173 12-10-2010 00:00:00 8.71917 C 68.1167 % 3.18 C
174 13-10-2010 00:00:00 7.475 C 69.3833 % 2.25 C
175 14-10-2010 00:00:00 7.55583 C 74.6167 % 3.35 C
Sensor: Nr:Datum:Temp:Feuchte:Taupunkt:
Aussen-T/F 176 15-10-2010 00:00:00 10.475 C 76.0250 % 6.44 C
177 16-10-2010 00:00:00 8.375 C 89.9250 % 6.82 C
178 17-10-2010 00:00:00 7.22667 C 80.5250 % 4.11 C
179 18-10-2010 00:00:00 6.71833 C 73.3000 % 2.29 C
180 19-10-2010 00:00:00 7.28167 C 81.9417 % 4.41 C
181 20-10-2010 00:00:00 6.14167 C 81.5000 % 3.22 C
182 21-10-2010 00:00:00 5.27 C 66.8833 % -0.37 C
183 22-10-2010 00:00:00 4.20167 C 63.7833 % -2.03 C
184 23-10-2010 00:00:00 4.37899 C 73.9748 % 0.16 C
185 24-10-2010 00:00:00 8.55667 C 66.0833 % 2.59 C
186 25-10-2010 00:00:00 6.1525 C 71.2167 % 1.34 C
187 26-10-2010 00:00:00 3.62417 C 82.5583 % 0.94 C
188 27-10-2010 00:00:00 8.14917 C 58.7667 % 0.58 C
189 28-10-2010 00:00:00 9.1725 C 62.2417 % 2.34 C
190 29-10-2010 00:00:00 9.9325 C 69.5917 % 4.64 C
191 30-10-2010 00:00:00 10.57143 C 68.9286 % 5.12 C
192 02-11-2010 00:00:00 11.31548 C 66.6667 % 5.35 C
193 03-11-2010 00:00:00 13.10333 C 68.7083 % 7.49 C
194 04-11-2010 00:00:00 16.41167 C 62.3167 % 9.19 C
195 05-11-2010 00:00:00 14.51917 C 58.8000 % 6.56 C
196 06-11-2010 00:00:00 10.40917 C 80.1167 % 7.13 C
197 07-11-2010 00:00:00 6.86917 C 92.5083 % 5.74 C
198 08-11-2010 00:00:00 4.65583 C 85.5500 % 2.45 C
199 09-11-2010 00:00:00 6.65667 C 85.5833 % 4.42 C
200 10-11-2010 00:00:00 7.08319 C 83.2017 % 4.43 C
Sensor: Nr:Datum:Temp:Feuchte:Taupunkt:
Aussen-T/F 201 11-11-2010 00:00:00 5.84167 C 74.0333 % 1.58 C
202 12-11-2010 00:00:00 11.04083 C 67.0583 % 5.17 C
203 13-11-2010 00:00:00 14.51917 C 70.8917 % 9.31 C
204 14-11-2010 00:00:00 14.60833 C 62.1917 % 7.46 C
205 15-11-2010 00:00:00 9.47833 C 67.6667 % 3.81 C
206 16-11-2010 00:00:00 6.0125 C 79.4417 % 2.73 C
207 17-11-2010 00:00:00 5.3125 C 74.5000 % 1.16 C
208 18-11-2010 00:00:00 5.61917 C 84.0500 % 3.14 C
209 19-11-2010 00:00:00 6.4275 C 81.7500 % 3.54 C
210 20-11-2010 00:00:00 4.8325 C 88.3833 % 3.08 C
211 21-11-2010 00:00:00 4.48333 C 73.7500 % 0.22 C
212 22-11-2010 00:00:00 4.47417 C 75.5417 % 0.54 C
213 23-11-2010 00:00:00 4.54118 C 69.6723 % -0.51 C
214 24-11-2010 00:00:00 3.415 C 80.1833 % 0.33 C
215 25-11-2010 00:00:00 1.74083 C 80.3500 % -1.27 C
216 26-11-2010 00:00:00 -0.29083 C 87.9417 % -2.04 C
217 27-11-2010 00:00:00 -1.99167 C 84.3333 % -4.27 C
218 28-11-2010 00:00:00 -1.325 C 80.3667 % -4.26 C
219 29-11-2010 00:00:00 -1.55833 C 80.7833 % -4.42 C
220 30-11-2010 00:00:00 -1.9425 C 80.4000 % -4.86 C
221 01-12-2010 00:00:00 -5.7325 C 61.7750 % -11.88 C
222 02-12-2010 00:00:00 -7.03167 C 68.9667 % -11.75 C
223 03-12-2010 00:00:00 -7.38583 C 76.6667 % -10.77 C
224 04-12-2010 00:00:00 -3.48167 C 68.7667 % -8.38 C
225 05-12-2010 00:00:00 0.91667 C 65.5750 % -4.79 C
Sensor: Nr:Datum:Temp:Feuchte:Taupunkt:
Aussen-T/F 226 06-12-2010 00:00:00 0.24538 C 81.3697 % -2.56 C
227 07-12-2010 00:00:00 -0.20833 C 81.1417 % -3.04 C
228 08-12-2010 00:00:00 -0.25917 C 90.8167 % -1.57 C
229 09-12-2010 00:00:00 0.61333 C 77.4667 % -2.86 C
230 10-12-2010 00:00:00 1.73333 C 85.9917 % -0.35 C
231 11-12-2010 00:00:00 4.07583 C 81.0750 % 1.13 C
232 12-12-2010 00:00:00 3.085 C 76.4250 % -0.65 C
233 13-12-2010 00:00:00 -4.44833 C 70.7250 % -8.95 C
234 14-12-2010 00:00:00 -3.65833 C 75.1500 % -7.41 C
235 15-12-2010 00:00:00 -3.1275 C 73.4333 % -7.19 C
236 16-12-2010 00:00:00 -3.4675 C 77.7917 % -6.78 C
237 17-12-2010 00:00:00 -2.77417 C 73.1083 % -6.91 C
238 18-12-2010 00:00:00 -4.65833 C 78.4500 % -7.83 C
239 19-12-2010 00:00:00 -0.7125 C 83.7583 % -3.11 C
240 20-12-2010 00:00:00 -1.53667 C 79.9500 % -4.54 C
241 21-12-2010 00:00:00 -0.65546 C 86.2857 % -2.66 C
242 22-12-2010 00:00:00 0.9225 C 90.2417 % -0.49 C
243 23-12-2010 00:00:00 -0.36833 C 89.5583 % -1.87 C
244 24-12-2010 00:00:00 -1.77438 C 82.4132 % -4.37 C
245 25-12-2010 00:00:00 -5.4775 C 72.1917 % -9.68 C
246 26-12-2010 00:00:00 -4.87833 C 75.4833 % -8.53 C
247 27-12-2010 00:00:00 -2.21833 C 78.9083 % -5.37 C
248 28-12-2010 00:00:00 -2.07899 C 79.7983 % -5.09 C
249 29-12-2010 00:00:00 -0.255 C 79.0333 % -3.44 C
250 30-12-2010 00:00:00 -0.55333 C 77.5833 % -3.98 C
Sensor: Nr:Datum:Temp:Feuchte:Taupunkt:
Aussen-T/F 251 31-12-2010 00:00:00 -1.10413 C 79.2975 % -4.22 C
252 01-01-2011 00:00:00 1.07311 C 86.7311 % -0.88 C
253 02-01-2011 00:00:00 0.8025 C 85.7500 % -1.31 C
254 03-01-2011 00:00:00 -0.9125 C 85.2333 % -3.07 C
255 04-01-2011 00:00:00 -2.36667 C 81.6500 % -5.07 C
256 05-01-2011 00:00:00 -3.83583 C 71.7333 % -8.18 C
257 06-01-2011 00:00:00 3.72667 C 87.9667 % 1.92 C
258 07-01-2011 00:00:00 6.91833 C 89.9000 % 5.38 C
259 08-01-2011 00:00:00 10.5675 C 72.8000 % 5.9 C
260 09-01-2011 00:00:00 5.08655 C 85.5042 % 2.86 C
261 10-01-2011 00:00:00 0.7175 C 86.3333 % -1.3 C
262 11-01-2011 00:00:00 3.43667 C 78.5333 % 0.07 C
263 12-01-2011 00:00:00 5.44 C 78.6250 % 2.03 C
264 13-01-2011 00:00:00 11.80333 C 77.9417 % 8.09 C
265 14-01-2011 00:00:00 11.77417 C 66.0167 % 5.64 C
266 15-01-2011 00:00:00 8.68167 C 69.2417 % 3.37 C
267 16-01-2011 00:00:00 6.84167 C 76.6833 % 3.04 C
268 17-01-2011 00:00:00 3.62917 C 87.1750 % 1.7 C
269 18-01-2011 00:00:00 7.28833 C 76.0833 % 3.36 C
270 19-01-2011 00:00:00 3.30833 C 77.6417 % -0.21 C
271 20-01-2011 00:00:00 1.7 C 80.0083 % -1.37 C
272 21-01-2011 00:00:00 -0.0675 C 63.4250 % -6.17 C
273 22-01-2011 00:00:00 0.39664 C 78.3361 % -2.92 C
274 23-01-2011 00:00:00 1.50167 C 86.5500 % -0.49 C
275 24-01-2011 00:00:00 3.10167 C 84.6333 % 0.77 C
Sensor: Nr:Datum:Temp:Feuchte:Taupunkt:
Aussen-T/F 276 25-01-2011 00:00:00 2.49833 C 79.4167 % -0.69 C
277 26-01-2011 00:00:00 0.84083 C 82.9250 % -1.72 C
278 27-01-2011 00:00:00 -0.28583 C 71.6667 % -4.77 C
279 28-01-2011 00:00:00 -1.27083 C 64.6250 % -7.07 C
280 29-01-2011 00:00:00 -4.9 C 78.6250 % -8.03 C
281 30-01-2011 00:00:00 -6.20917 C 79.4500 % -9.17 C
282 31-01-2011 00:00:00 -5.73833 C 80.2583 % -8.59 C
283 01-02-2011 00:00:00 -4.03917 C 72.9333 % -8.16 C
284 02-02-2011 00:00:00 -0.865 C 75.9667 % -4.56 C
285 03-02-2011 00:00:00 1.94454 C 80.8824 % -0.98 C
286 04-02-2011 00:00:00 6.18583 C 70.0667 % 1.15 C
287 05-02-2011 00:00:00 9.25833 C 62.0000 % 2.37 C
288 06-02-2011 00:00:00 8.62 C 60.0083 % 1.31 C
289 07-02-2011 00:00:00 6.48083 C 55.1667 % -1.85 C
290 08-02-2011 00:00:00 5.48833 C 65.0417 % -0.55 C
291 09-02-2011 00:00:00 -0.23333 C 82.7917 % -2.8 C
292 10-02-2011 00:00:00 3.9425 C 78.7083 % 0.59 C
293 11-02-2011 00:00:00 10.23917 C 74.1917 % 5.85 C
294 12-02-2011 00:00:00 6.88 C 81.4333 % 3.93 C
295 13-02-2011 00:00:00 5.13417 C 82.5250 % 2.41 C
296 14-02-2011 00:00:00 5.215 C 81.7250 % 2.35 C
297 15-02-2011 00:00:00 5.14958 C 83.2101 % 2.54 C
298 16-02-2011 00:00:00 4.90417 C 79.7167 % 1.7 C
299 17-02-2011 00:00:00 1.96333 C 77.4417 % -1.56 C
300 18-02-2011 00:00:00 2.23667 C 72.6417 % -2.16 C
Sensor: Nr:Datum:Temp:Feuchte:Taupunkt:
Aussen-T/F 301 19-02-2011 00:00:00 2.82833 C 73.3833 % -1.45 C
302 20-02-2011 00:00:00 0.7 C 62.1917 % -5.69 C
303 21-02-2011 00:00:00 -1.8125 C 51.6000 % -10.45 C
304 22-02-2011 00:00:00 -3.39167 C 51.9833 % -11.83 C
305 23-02-2011 00:00:00 -2.66583 C 50.3167 % -11.56 C
306 24-02-2011 00:00:00 0.91083 C 75.5417 % -2.91 C
307 25-02-2011 00:00:00 3.445 C 84.2583 % 1.05 C
308 26-02-2011 00:00:00 5.07167 C 75.9333 % 1.19 C
309 27-02-2011 00:00:00 5.47731 C 73.6807 % 1.16 C
310 28-02-2011 00:00:00 4.52333 C 67.9083 % -0.88 C
311 01-03-2011 00:00:00 4.31167 C 69.8833 % -0.69 C
312 02-03-2011 00:00:00 3.41 C 50.2917 % -5.93 C
313 03-03-2011 00:00:00 1.585 C 49.3000 % -7.87 C
314 04-03-2011 00:00:00 2.1825 C 60.4167 % -4.67 C
315 05-03-2011 00:00:00 0.19833 C 75.1083 % -3.68 C
316 06-03-2011 00:00:00 1.7325 C 60.2167 % -5.14 C
317 07-03-2011 00:00:00 1.05667 C 46.9417 % -8.99 C
318 08-03-2011 00:00:00 1.92583 C 52.3083 % -6.79 C
319 09-03-2011 00:00:00 6.48333 C 61.8000 % -0.3 C
320 10-03-2011 00:00:00 7.3 C 57.6167 % -0.49 C
321 11-03-2011 00:00:00 8.78571 C 53.4790 % -0.13 C
322 12-03-2011 00:00:00 7.3525 C 60.9583 % 0.33 C
323 13-03-2011 00:00:00 11.07917 C 64.7167 % 4.7 C
324 14-03-2011 00:00:00 10.09917 C 77.5250 % 6.35 C
325 15-03-2011 00:00:00 10.73917 C 68.9250 % 5.28 C
Sensor: Nr:Datum:Temp:Feuchte:Taupunkt:
Aussen-T/F 326 16-03-2011 00:00:00 8.73583 C 66.1667 % 2.78 C
327 17-03-2011 00:00:00 6.295 C 79.3167 % 2.99 C
328 18-03-2011 00:00:00 6.41833 C 70.2167 % 1.4 C
329 19-03-2011 00:00:00 6.63 C 65.1750 % 0.57 C
330 20-03-2011 00:00:00 3.39167 C 61.9167 % -3.2 C
331 21-03-2011 00:00:00 4.66333 C 60.1083 % -2.4 C
332 22-03-2011 00:00:00 6.83333 C 59.2833 % -0.54 C
333 23-03-2011 00:00:00 8.59333 C 65.0750 % 2.41 C
334 24-03-2011 00:00:00 9.14417 C 60.8917 % 2.01 C
335 25-03-2011 00:00:00 9.65798 C 55.8908 % 1.29 C
336 26-03-2011 00:00:00 8.11917 C 59.6833 % 0.76 C
337 27-03-2011 00:00:00 9.62174 C 53.4696 % 0.65 C
338 28-03-2011 00:00:00 7.7225 C 57.4083 % -0.15 C
339 29-03-2011 00:00:00 7.42083 C 58.3917 % -0.2 C
340 30-03-2011 00:00:00 8.36333 C 66.2417 % 2.44 C
341 31-03-2011 00:00:00 12.03833 C 73.1000 % 7.37 C
342 01-04-2011 00:00:00 13.985 C 68.4250 % 8.27 C
343 02-04-2011 00:00:00 14.21833 C 66.4500 % 8.06 C
344 03-04-2011 00:00:00 11.81167 C 76.3083 % 7.78 C
345 04-04-2011 00:00:00 10.68333 C 67.0083 % 4.82 C
346 05-04-2011 00:00:00 9.30833 C 68.0500 % 3.73 C
347 06-04-2011 00:00:00 15.69167 C 63.4000 % 8.77 C
348 07-04-2011 00:00:00 16.35294 C 59.8739 % 8.55 C
349 08-04-2011 00:00:00 13.4925 C 56.0417 % 4.91 C
350 09-04-2011 00:00:00 12.96917 C 49.7083 % 2.72 C
Sensor: Nr:Datum:Temp:Feuchte:Taupunkt:
Aussen-T/F 351 10-04-2011 00:00:00 12.2825 C 55.3833 % 3.61 C
352 11-04-2011 00:00:00 14.76333 C 53.4583 % 5.41 C
353 12-04-2011 00:00:00 10.27917 C 57.0083 % 2.15 C
354 13-04-2011 00:00:00 7.60083 C 55.2417 % -0.79 C
355 14-04-2011 00:00:00 8.3025 C 53.3167 % -0.62 C
356 15-04-2011 00:00:00 7.43583 C 58.4250 % -0.17 C
357 16-04-2011 00:00:00 8.14667 C 54.9167 % -0.36 C
358 17-04-2011 00:00:00 11.61917 C 46.3000 % 0.5 C
359 18-04-2011 00:00:00 10.9521 C 55.2605 % 2.34 C
360 19-04-2011 00:00:00 12.87583 C 55.1250 % 4.1 C
361 20-04-2011 00:00:00 13.54917 C 55.3917 % 4.79 C
362 21-04-2011 00:00:00 14.49333 C 54.9917 % 5.57 C
363 22-04-2011 00:00:00 16.35083 C 55.1083 % 7.33 C
364 23-04-2011 00:00:00 18.26083 C 59.3250 % 10.2 C
365 24-04-2011 00:00:00 16.74333 C 54.1333 % 7.43 C
366 25-04-2011 00:00:00 15.975 C 45.3000 % 4.16 C
367 26-04-2011 00:00:00 12.8275 C 60.7167 % 5.44 C
368 27-04-2011 00:00:00 11.27167 C 76.9583 % 7.38 C
369 28-04-2011 00:00:00 13.99 C 71.8583 % 9 C
370 29-04-2011 00:00:00 15.08333 C 65.8750 % 8.76 C
371 30-04-2011 00:00:00 15.42 C 56.5500 % 6.84 C
372 01-05-2011 00:00:00 15.09328 C 37.9496 % 0.88 C
373 02-05-2011 00:00:00 11.83333 C 44.3167 % 0.09 C
374 03-05-2011 00:00:00 10.93167 C 41.8667 % -1.5 C
375 04-05-2011 00:00:00 8.28 C 53.9417 % -0.48 C
Sensor: Nr:Datum:Temp:Feuchte:Taupunkt:
Aussen-T/F 376 05-05-2011 00:00:00 10.32333 C 55.8000 % 1.89 C
377 06-05-2011 00:00:00 13.52917 C 53.1000 % 4.17 C
378 07-05-2011 00:00:00 17.6125 C 49.5667 % 6.95 C
379 08-05-2011 00:00:00 19.07167 C 37.5667 % 4.28 C
380 09-05-2011 00:00:00 18.40083 C 39.3250 % 4.33 C
381 10-05-2011 00:00:00 17.95833 C 50.2083 % 7.45 C
382 11-05-2011 00:00:00 18.40667 C 60.4833 % 10.63 C
383 12-05-2011 00:00:00 15.77833 C 53.4917 % 6.36 C
384 13-05-2011 00:00:00 13.68403 C 52.7983 % 4.24 C
385 14-05-2011 00:00:00 12.59917 C 53.0417 % 3.3 C
386 15-05-2011 00:00:00 10.34333 C 63.7833 % 3.79 C
387 16-05-2011 00:00:00 12.58667 C 60.3917 % 5.13 C
388 17-05-2011 00:00:00 17.04083 C 51.7667 % 7.06 C
389 18-05-2011 00:00:00 16.60583 C 55.1333 % 7.57 C
390 19-05-2011 00:00:00 17.10833 C 62.0917 % 9.8 C
391 20-05-2011 00:00:00 16.53 C 72.2833 % 11.53 C
392 21-05-2011 00:00:00 19.16077 C 60.6385 % 11.38 C
393 22-05-2011 00:00:00 16.79593 C 62.6667 % 9.64 C
394 23-05-2011 00:00:00 16.00167 C 49.6833 % 5.5 C
395 24-05-2011 00:00:00 15.90583 C 48.1000 % 4.95 C
396 25-05-2011 00:00:00 15.29333 C 44.6833 % 3.34 C
397 26-05-2011 00:00:00 16.04833 C 43.0167 % 3.49 C
398 27-05-2011 00:00:00 14.61 C 44.7667 % 2.75 C
399 28-05-2011 00:00:00 15.2875 C 48.6000 % 4.53 C
400 29-05-2011 00:00:00 19.21849 C 41.4286 % 5.81 C
Sensor: Nr:Datum:Temp:Feuchte:Taupunkt:
Aussen-T/F 401 30-05-2011 00:00:00 20.91333 C 47.3750 % 9.3 C
402 31-05-2011 00:00:00 14.84583 C 71.3000 % 9.7 C
403 01-06-2011 00:00:00 14.86083 C 55.0833 % 5.94 C
404 02-06-2011 00:00:00 19.79167 C 41.8750 % 6.48 C
405 03-06-2011 00:00:00 20.65583 C 37.7917 % 5.77 C
406 04-06-2011 00:00:00 21.20417 C 56.0500 % 12.1 C
407 05-06-2011 00:00:00 18.63333 C 81.4833 % 15.4 C
408 06-06-2011 00:00:00 18.38667 C 75.9000 % 14.06 C
409 07-06-2011 00:00:00 20.62417 C 61.2917 % 12.92 C
410 08-06-2011 00:00:00 15.695 C 66.5583 % 9.49 C
411 09-06-2011 00:00:00 14.09328 C 68.2437 % 8.34 C
412 10-06-2011 00:00:00 14.6563 C 70.2437 % 9.3 C
413 11-06-2011 00:00:00 15.99417 C 59.1250 % 8.03 C
414 12-06-2011 00:00:00 15.21167 C 56.7750 % 6.7 C
415 13-06-2011 00:00:00 16.92167 C 58.7417 % 8.8 C
416 14-06-2011 00:00:00 20.63333 C 59.4000 % 12.45 C
417 15-06-2011 00:00:00 19.88909 C 59.3000 % 11.72 C
418 16-06-2011 00:00:00 15.99375 C 61.2500 % 8.54 C
419 17-06-2011 00:00:00 15.96417 C 59.6833 % 8.14 C
420 18-06-2011 00:00:00 15.91083 C 58.8917 % 7.89 C
421 19-06-2011 00:00:00 14.57917 C 57.0417 % 6.18 C
422 20-06-2011 00:00:00 13.67417 C 78.2583 % 9.96 C
423 21-06-2011 00:00:00 19.2575 C 67.7583 % 13.15 C
424 22-06-2011 00:00:00 18.02773 C 72.1597 % 12.94 C
425 23-06-2011 00:00:00 16.265 C 59.2250 % 8.3 C
Sensor: Nr:Datum:Temp:Feuchte:Taupunkt:
Aussen-T/F 426 24-06-2011 00:00:00 14.2775 C 58.5250 % 6.27 C
427 25-06-2011 00:00:00 13.42417 C 77.5000 % 9.57 C
428 26-06-2011 00:00:00 15 C 80.0000 % 11.58 C
429 27-06-2011 00:00:00 17.65667 C 72.5083 % 12.66 C
430 28-06-2011 00:00:00 25.33167 C 49.5333 % 14.02 C
431 29-06-2011 00:00:00 20.62 C 64.0583 % 13.59 C
432 30-06-2011 00:00:00 17.92833 C 46.7417 % 6.39 C
433 01-07-2011 00:00:00 15.115 C 62.0000 % 7.9 C
434 02-07-2011 00:00:00 14.5975 C 56.8083 % 6.14 C
435 03-07-2011 00:00:00 16.92083 C 48.2583 % 5.93 C
436 04-07-2011 00:00:00 16.2 C 55.0000 % 7.16 C
437 05-07-2011 00:00:00 24.435 C 44.7625 % 11.65 C
438 06-07-2011 00:00:00 20.39333 C 51.4417 % 10.05 C
439 07-07-2011 00:00:00 19.52083 C 53.1917 % 9.75 C
440 08-07-2011 00:00:00 19.92333 C 49.6583 % 9.1 C
441 09-07-2011 00:00:00 21.28083 C 46.1667 % 9.26 C
442 10-07-2011 00:00:00 18.22833 C 60.4000 % 10.44 C
443 11-07-2011 00:00:00 20.90417 C 55.0583 % 11.55 C
444 12-07-2011 00:00:00 19.89917 C 61.4750 % 12.28 C
445 13-07-2011 00:00:00 15.985 C 78.1250 % 12.18 C
446 14-07-2011 00:00:00 15.70417 C 52.2083 % 5.94 C
447 15-07-2011 00:00:00 18.7025 C 41.8750 % 5.5 C
448 16-07-2011 00:00:00 18.92269 C 46.1933 % 7.12 C
449 17-07-2011 00:00:00 17.68667 C 65.9583 % 11.25 C
450 18-07-2011 00:00:00 16.98583 C 56.7583 % 8.35 C
Sensor: Nr:Datum:Temp:Feuchte:Taupunkt:
Aussen-T/F 451 19-07-2011 00:00:00 16.52167 C 65.5917 % 10.06 C
452 20-07-2011 00:00:00 15.91917 C 76.3167 % 11.76 C
453 21-07-2011 00:00:00 16.59583 C 76.6083 % 12.47 C
454 22-07-2011 00:00:00 16.87083 C 58.2333 % 8.62 C
455 23-07-2011 00:00:00 13.94417 C 62.1417 % 6.82 C
456 24-07-2011 00:00:00 12.63083 C 75.5917 % 8.44 C
457 25-07-2011 00:00:00 16.39417 C 63.4083 % 9.44 C
458 26-07-2011 00:00:00 16.5375 C 73.3667 % 11.76 C
459 27-07-2011 00:00:00 17.045 C 76.9417 % 12.97 C
460 28-07-2011 00:00:00 18.71345 C 71.7899 % 13.52 C
461 29-07-2011 00:00:00 17.87583 C 65.5000 % 11.33 C
462 30-07-2011 00:00:00 15.04833 C 66.9083 % 8.95 C
463 31-07-2011 00:00:00 15.27667 C 58.7917 % 7.27 C
464 01-08-2011 00:00:00 16.885 C 62.5250 % 9.69 C
465 02-08-2011 00:00:00 20.45917 C 60.0667 % 12.45 C
466 03-08-2011 00:00:00 19.3425 C 74.8750 % 14.77 C
467 04-08-2011 00:00:00 21.59083 C 66.0417 % 14.98 C
468 05-08-2011 00:00:00 22.10417 C 66.0500 % 15.47 C
469 06-08-2011 00:00:00 19.43333 C 80.8333 % 16.06 C
470 07-08-2011 00:00:00 17.99583 C 60.5083 % 10.25 C
471 08-08-2011 00:00:00 15.61 C 65.0500 % 9.07 C
472 09-08-2011 00:00:00 15.21177 C 65.5882 % 8.82 C
473 10-08-2011 00:00:00 11.545 C 70.7500 % 6.42 C
474 11-08-2011 00:00:00 15.27417 C 59.8917 % 7.54 C
475 12-08-2011 00:00:00 17.7625 C 71.7917 % 12.61 C
Sensor: Nr:Datum:Temp:Feuchte:Taupunkt:
Aussen-T/F 476 13-08-2011 00:00:00 19.08833 C 72.0417 % 13.93 C
477 14-08-2011 00:00:00 18.79167 C 79.1417 % 15.1 C
478 15-08-2011 00:00:00 19.07917 C 64.2167 % 12.17 C
479 16-08-2011 00:00:00 18.73083 C 60.4333 % 10.92 C
480 17-08-2011 00:00:00 18.89 C 66.1833 % 12.45 C
481 18-08-2011 00:00:00 22.63167 C 61.2417 % 14.79 C
482 19-08-2011 00:00:00 19.24667 C 68.7333 % 13.36 C
483 20-08-2011 00:00:00 18.59833 C 65.7167 % 12.06 C
484 21-08-2011 00:00:00 20.63583 C 69.0417 % 14.76 C
485 22-08-2011 00:00:00 23.83613 C 62.0504 % 16.13 C
486 23-08-2011 00:00:00 23.46583 C 60.9833 % 15.51 C
487 24-08-2011 00:00:00 20.97833 C 67.3417 % 14.7 C
488 25-08-2011 00:00:00 20.68833 C 69.8333 % 14.99 C
489 26-08-2011 00:00:00 20.87 C 74.2833 % 16.12 C
490 27-08-2011 00:00:00 15.035 C 76.8333 % 11.01 C
491 28-08-2011 00:00:00 15.25583 C 63.6333 % 8.41 C
492 29-08-2011 00:00:00 14.68667 C 59.3667 % 6.86 C
493 30-08-2011 00:00:00 12.15833 C 69.4583 % 6.74 C
494 31-08-2011 00:00:00 13.1325 C 69.1000 % 7.6 C
495 01-09-2011 00:00:00 15.16083 C 67.3250 % 9.15 C
496 02-09-2011 00:00:00 17.55667 C 71.4250 % 12.33 C
497 03-09-2011 00:00:00 20.71597 C 69.7311 % 14.99 C
498 04-09-2011 00:00:00 21.65833 C 66.8333 % 15.23 C
499 05-09-2011 00:00:00 17.79667 C 52.4583 % 7.95 C
500 06-09-2011 00:00:00 15.93333 C 57.8333 % 7.64 C
Sensor: Nr:Datum:Temp:Feuchte:Taupunkt:
Aussen-T/F 501 07-09-2011 00:00:00 16.43 C 56.2417 % 7.7 C
502 08-09-2011 00:00:00 15.3775 C 59.5333 % 7.55 C
503 09-09-2011 00:00:00 18.46 C 74.5500 % 13.86 C
504 10-09-2011 00:00:00 21.15667 C 77.6667 % 17.1 C
505 11-09-2011 00:00:00 17.895 C 81.2500 % 14.64 C
506 12-09-2011 00:00:00 17.43583 C 68.8250 % 11.65 C
507 13-09-2011 00:00:00 18.005 C 66.8333 % 11.75 C
508 14-09-2011 00:00:00 14.43917 C 60.2417 % 6.84 C
509 15-09-2011 00:00:00 13.91583 C 66.4583 % 7.78 C
510 16-09-2011 00:00:00 12.79667 C 78.8750 % 9.23 C
511 17-09-2011 00:00:00 16.78824 C 67.5798 % 10.76 C
512 18-09-2011 00:00:00 12.7625 C 73.2333 % 8.1 C
513 19-09-2011 00:00:00 12.76833 C 68.7167 % 7.17 C
514 20-09-2011 00:00:00 12.41333 C 74.0667 % 7.93 C
515 21-09-2011 00:00:00 13.775 C 70.1333 % 8.43 C
516 22-09-2011 00:00:00 15.79167 C 59.3417 % 7.89 C
517 23-09-2011 00:00:00 14.20917 C 64.8250 % 7.69 C
518 24-09-2011 00:00:00 12.8025 C 74.2750 % 8.34 C
519 25-09-2011 00:00:00 14.1125 C 76.8000 % 10.11 C
520 26-09-2011 00:00:00 15.74917 C 76.1250 % 11.56 C
521 27-09-2011 00:00:00 17.1525 C 74.8583 % 12.66 C
522 28-09-2011 00:00:00 16.71 C 77.5333 % 12.77 C
523 29-09-2011 00:00:00 16.13167 C 75.2500 % 11.75 C
524 30-09-2011 00:00:00 14.48824 C 75.4034 % 10.2 C
525 01-10-2011 00:00:00 14.3525 C 77.3833 % 10.45 C
Sensor: Nr:Datum:Temp:Feuchte:Taupunkt:
Aussen-T/F 526 02-10-2011 00:00:00 14.74 C 77.1417 % 10.78 C
527 03-10-2011 00:00:00 15.125 C 75.4750 % 10.82 C
528 04-10-2011 00:00:00 16.96167 C 63.1167 % 9.9 C
529 05-10-2011 00:00:00 17.94667 C 59.6250 % 9.98 C
530 06-10-2011 00:00:00 14.175 C 69.3833 % 8.66 C
531 07-10-2011 00:00:00 9.92583 C 66.5083 % 3.99 C
532 08-10-2011 00:00:00 9.01167 C 73.3417 % 4.51 C
533 09-10-2011 00:00:00 9.11667 C 79.0750 % 5.69 C
534 10-10-2011 00:00:00 16.5475 C 68.2167 % 10.67 C
535 11-10-2011 00:00:00 16.37917 C 62.5417 % 9.22 C
536 12-10-2011 00:00:00 15.74333 C 66.8000 % 9.59 C
537 13-10-2011 00:00:00 10.145 C 73.3667 % 5.6 C
538 14-10-2011 00:00:00 6.14286 C 78.8151 % 2.75 C
539 15-10-2011 00:00:00 4.65417 C 78.8000 % 1.3 C
540 16-10-2011 00:00:00 4.29833 C 79.7583 % 1.12 C
541 17-10-2011 00:00:00 6.42917 C 82.1833 % 3.62 C
542 18-10-2011 00:00:00 8.99833 C 81.0167 % 5.92 C
543 19-10-2011 00:00:00 8.2025 C 70.7333 % 3.21 C
544 20-10-2011 00:00:00 5.4275 C 79.8333 % 2.23 C
545 21-10-2011 00:00:00 3.16333 C 87.6917 % 1.32 C
546 22-10-2011 00:00:00 3.45333 C 82.2083 % 0.71 C
547 23-10-2011 00:00:00 2.44833 C 85.8917 % 0.33 C
548 24-10-2011 00:00:00 5.85083 C 75.8167 % 1.92 C
549 25-10-2011 00:00:00 9.17417 C 73.4750 % 4.69 C
550 26-10-2011 00:00:00 9.305 C 71.1750 % 4.36 C
Sensor: Nr:Datum:Temp:Feuchte:Taupunkt:
Aussen-T/F 551 27-10-2011 00:00:00 5.69333 C 85.4917 % 3.46 C
552 28-10-2011 00:00:00 8.32857 C 86.7731 % 6.26 C
553 29-10-2011 00:00:00 10.61667 C 83.0000 % 7.85 C
554 30-10-2011 00:00:00 12.2192 C 86.1680 % 9.98 C
555 31-10-2011 00:00:00 11.39 C 86.4000 % 9.2 C
556 01-11-2011 00:00:00 9.17333 C 84.4083 % 6.69 C
557 02-11-2011 00:00:00 10.59667 C 80.8500 % 7.45 C
558 03-11-2011 00:00:00 11.35583 C 71.9417 % 6.48 C
559 04-11-2011 00:00:00 10.15333 C 80.0500 % 6.87 C
560 05-11-2011 00:00:00 10.31333 C 76.4167 % 6.35 C
561 06-11-2011 00:00:00 8.90583 C 84.0333 % 6.36 C
562 07-11-2011 00:00:00 8.85 C 80.9583 % 5.77 C
563 08-11-2011 00:00:00 5.84583 C 87.4583 % 3.93 C
564 09-11-2011 00:00:00 6.5025 C 86.5500 % 4.43 C
565 10-11-2011 00:00:00 6.29328 C 81.6218 % 3.39 C
566 11-11-2011 00:00:00 6.25417 C 76.0750 % 2.36 C
567 12-11-2011 00:00:00 4.20083 C 82.4417 % 1.48 C
568 13-11-2011 00:00:00 4.15833 C 85.7750 % 1.99 C
569 14-11-2011 00:00:00 0.35917 C 92.4167 % -0.72 C
570 15-11-2011 00:00:00 0.25583 C 92.2667 % -0.85 C
571 16-11-2011 00:00:00 -1.305 C 91.7000 % -2.48 C
572 17-11-2011 00:00:00 3.935 C 80.2583 % 0.85 C
573 18-11-2011 00:00:00 7.49833 C 83.7333 % 4.93 C
574 19-11-2011 00:00:00 5.435 C 89.5667 % 3.86 C
575 20-11-2011 00:00:00 6.58083 C 80.3583 % 3.45 C
Sensor: Nr:Datum:Temp:Feuchte:Taupunkt:
Aussen-T/F 576 21-11-2011 00:00:00 1.40917 C 92.2250 % 0.29 C
577 22-11-2011 00:00:00 1.14083 C 92.1583 % 0.01 C
578 23-11-2011 00:00:00 1.59583 C 92.8833 % 0.57 C
579 24-11-2011 00:00:00 2.37083 C 92.1167 % 1.23 C
580 25-11-2011 00:00:00 1.0775 C 85.7083 % -1.04 C
581 26-11-2011 00:00:00 6.25167 C 75.0583 % 2.17 C
582 27-11-2011 00:00:00 7.40833 C 70.7917 % 2.46 C
583 28-11-2011 00:00:00 0.83833 C 92.3250 % -0.26 C
584 29-11-2011 00:00:00 1.88167 C 89.6667 % 0.37 C
585 30-11-2011 00:00:00 4.85083 C 85.9250 % 2.7 C
586 01-12-2011 00:00:00 5.52417 C 87.8333 % 3.67 C
587 02-12-2011 00:00:00 7.12667 C 77.6917 % 3.5 C
588 03-12-2011 00:00:00 6.26583 C 76.7250 % 2.49 C
589 04-12-2011 00:00:00 8.2975 C 80.9000 % 5.22 C
590 05-12-2011 00:00:00 4.38417 C 71.7167 % -0.26 C
591 06-12-2011 00:00:00 4.445 C 67.2500 % -1.08 C
592 07-12-2011 00:00:00 5.57833 C 70.8167 % 0.71 C
593 08-12-2011 00:00:00 6.22333 C 62.1250 % -0.48 C
594 09-12-2011 00:00:00 5.94583 C 71.2167 % 1.14 C
595 10-12-2011 00:00:00 1.885 C 76.4500 % -1.81 C
596 11-12-2011 00:00:00 0.43667 C 83.0417 % -2.1 C
597 12-12-2011 00:00:00 5.96583 C 76.8000 % 2.21 C
598 13-12-2011 00:00:00 6.86417 C 68.8250 % 1.55 C
599 14-12-2011 00:00:00 6.68371 C 80.3447 % 3.55 C
600 15-12-2011 00:00:00 6.13646 C 77.7778 % 2.56 C
Sensor: Nr:Datum:Temp:Feuchte:Taupunkt:
Aussen-T/F 601 16-12-2011 00:00:00 6.07222 C 83.0347 % 3.41 C
602 17-12-2011 00:00:00 3.63507 C 84.7535 % 1.31 C
603 18-12-2011 00:00:00 2.25764 C 86.7604 % 0.29 C
604 19-12-2011 00:00:00 1.70208 C 86.1250 % -0.36 C
605 20-12-2011 00:00:00 2.28715 C 90.9132 % 0.96 C
606 21-12-2011 00:00:00 4.19792 C 87.9167 % 2.38 C
607 22-12-2011 00:00:00 6.57917 C 94.6910 % 5.79 C
608 23-12-2011 00:00:00 8.41806 C 90.8021 % 7 C
609 24-12-2011 00:00:00 5.63368 C 83.5243 % 3.07 C
610 25-12-2011 00:00:00 5.68472 C 86.3750 % 3.59 C
611 26-12-2011 00:00:00 8.12222 C 89.4931 % 6.5 C
612 27-12-2011 00:00:00 8.25139 C 89.0139 % 6.55 C
613 28-12-2011 00:00:00 5.71424 C 86.6597 % 3.67 C
614 29-12-2011 00:00:00 5.51667 C 80.4757 % 2.43 C
615 30-12-2011 00:00:00 4.24861 C 83.3125 % 1.68 C
616 31-12-2011 00:00:00 5.15729 C 93.6007 % 4.21 C
617 01-01-2012 00:00:00 12.02807 C 88.3754 % 10.17 C
618 02-01-2012 00:00:00 8.87847 C 88.2917 % 7.05 C
619 03-01-2012 00:00:00 7.43403 C 81.7917 % 4.53 C
620 04-01-2012 00:00:00 6.56875 C 76.5174 % 2.75 C
621 05-01-2012 00:00:00 6.88368 C 80.3785 % 3.75 C
622 06-01-2012 00:00:00 5.40208 C 81.6389 % 2.52 C
623 07-01-2012 00:00:00 5.54653 C 84.9201 % 3.22 C
624 08-01-2012 00:00:00 5.96042 C 84.6111 % 3.57 C
625 09-01-2012 00:00:00 6.11424 C 89.9479 % 4.59 C
Sensor: Nr:Datum:Temp:Feuchte:Taupunkt:
Aussen-T/F 626 10-01-2012 00:00:00 6.93056 C 91.1319 % 5.59 C
627 11-01-2012 00:00:00 8.11597 C 82.0938 % 5.25 C
628 12-01-2012 00:00:00 8.18819 C 82.4028 % 5.37 C
629 13-01-2012 00:00:00 5.12569 C 75.8264 % 1.22 C
630 14-01-2012 00:00:00 3.95417 C 78.8958 % 0.63 C
631 15-01-2012 00:00:00 -0.23715 C 94.8993 % -0.95 C
632 16-01-2012 00:00:00 -1.80312 C 94.0521 % -2.63 C
633 17-01-2012 00:00:00 -2.78368 C 92.5069 % -3.83 C
634 18-01-2012 00:00:00 -0.12708 C 89.9653 % -1.57 C
635 19-01-2012 00:00:00 6.67639 C 90.1007 % 5.17 C
636 20-01-2012 00:00:00 4.025 C 86.9236 % 2.05 C
637 21-01-2012 00:00:00 5.73681 C 89.5382 % 4.15 C
638 22-01-2012 00:00:00 6.85764 C 76.0660 % 2.94 C
639 23-01-2012 00:00:00 5.22708 C 82.6806 % 2.53 C
640 24-01-2012 00:00:00 3.1191 C 90.7222 % 1.75 C
641 25-01-2012 00:00:00 0.47708 C 94.7813 % -0.26 C
642 26-01-2012 00:00:00 1.84132 C 84.3368 % -0.51 C
643 27-01-2012 00:00:00 2.58437 C 92.0104 % 1.42 C
644 28-01-2012 00:00:00 2.69896 C 87.8090 % 0.89 C
645 29-01-2012 00:00:00 0.84583 C 81.3299 % -1.98 C
646 30-01-2012 00:00:00 -0.00208 C 80.3854 % -2.97 C
647 31-01-2012 00:00:00 -1.90972 C 70.0243 % -6.64 C
648 01-02-2012 00:00:00 -5.28403 C 61.1667 % -11.58 C
649 02-02-2012 00:00:00 -7.12396 C 51.7535 % -15.35 C
650 03-02-2012 00:00:00 -8.52361 C 68.2153 % -13.32 C
Sensor: Nr:Datum:Temp:Feuchte:Taupunkt:
Aussen-T/F 651 04-02-2012 00:00:00 -8.31389 C 77.7396 % -11.5 C
652 05-02-2012 00:00:00 -9.04861 C 72.3715 % -13.1 C
653 06-02-2012 00:00:00 -9.67674 C 69.6979 % -14.16 C
654 07-02-2012 00:00:00 -9.19832 C 69.3067 % -13.77 C
655 08-02-2012 00:00:00 -5.57083 C 72.6528 % -9.69 C
656 09-02-2012 00:00:00 -7.39479 C 86.5868 % -9.24 C
657 10-02-2012 00:00:00 -6.11875 C 75.6354 % -9.71 C
658 11-02-2012 00:00:00 -8.24931 C 70.5451 % -12.64 C
659 12-02-2012 00:00:00 -6.58063 C 72.4466 % -10.7 C
660 13-02-2012 00:00:00 -0.88993 C 82.6458 % -3.46 C
661 14-02-2012 00:00:00 1.59931 C 93.4410 % 0.66 C
662 15-02-2012 00:00:00 3.97674 C 86.0694 % 1.86 C
663 16-02-2012 00:00:00 3.54896 C 91.1875 % 2.25 C
664 17-02-2012 00:00:00 5.57917 C 87.8576 % 3.73 C
665 18-02-2012 00:00:00 6.37083 C 88.0556 % 4.54 C
666 19-02-2012 00:00:00 2.99271 C 87.9861 % 1.2 C
667 20-02-2012 00:00:00 1.18333 C 84.9583 % -1.06 C
668 21-02-2012 00:00:00 1.84583 C 78.4063 % -1.5 C
669 22-02-2012 00:00:00 3.17951 C 81.1493 % 0.27 C
670 23-02-2012 00:00:00 6.17352 C 81.6864 % 3.28 C
671 24-02-2012 00:00:00 9.38101 C 86.6938 % 7.28 C
672 25-02-2012 00:00:00 8.6186 C 80.9439 % 5.54 C
673 26-02-2012 00:00:00 5.29167 C 88.4757 % 3.55 C
674 27-02-2012 00:00:00 5.81944 C 83.3333 % 3.22 C
675 28-02-2012 00:00:00 8.57639 C 85.4861 % 6.28 C
Sensor: Nr:Datum:Temp:Feuchte:Taupunkt:
Aussen-T/F 676 29-02-2012 00:00:00 9.49583 C 92.3403 % 8.32 C
677 01-03-2012 00:00:00 9.01563 C 93.6979 % 8.06 C
678 02-03-2012 00:00:00 8.57986 C 92.6771 % 7.46 C
679 03-03-2012 00:00:00 7.91597 C 90.3438 % 6.43 C
680 04-03-2012 00:00:00 8.65625 C 81.6354 % 5.7 C
681 05-03-2012 00:00:00 5.81597 C 77.6597 % 2.22 C
682 06-03-2012 00:00:00 5.43924 C 73.2222 % 1.04 C
683 07-03-2012 00:00:00 2.91784 C 81.1970 % 0.02 C
684 08-03-2012 00:00:00 5.35833 C 80.5347 % 2.29 C
685 09-03-2012 00:00:00 4.88437 C 78.4410 % 1.46 C
686 10-03-2012 00:00:00 8.58723 C 78.8759 % 5.14 C
687 11-03-2012 00:00:00 9.26151 C 82.9496 % 6.52 C
688 12-03-2012 00:00:00 8.06347 C 86.5240 % 5.96 C
689 13-03-2012 00:00:00 7.68299 C 83.6458 % 5.1 C
690 14-03-2012 00:00:00 6.93542 C 78.8819 % 3.53 C
691 15-03-2012 00:00:00 7.07812 C 79.2431 % 3.73 C
692 16-03-2012 00:00:00 10.0412 C 69.7077 % 4.77 C
693 17-03-2012 00:00:00 9.42917 C 75.0799 % 5.24 C
694 18-03-2012 00:00:00 8.64931 C 83.8368 % 6.07 C
695 19-03-2012 00:00:00 7.34303 C 72.1270 % 2.66 C
696 20-03-2012 00:00:00 6.68807 C 68.1687 % 1.25 C
697 21-03-2012 00:00:00 7.73902 C 69.3206 % 2.49 C
698 22-03-2012 00:00:00 10.04583 C 71.3403 % 5.1 C
699 23-03-2012 00:00:00 11.69132 C 71.9826 % 6.82 C
700 24-03-2012 00:00:00 11.62674 C 70.9132 % 6.54 C
Sensor: Nr:Datum:Temp:Feuchte:Taupunkt:
Aussen-T/F 701 25-03-2012 00:00:00 12.80873 C 62.8291 % 5.91 C
702 26-03-2012 00:00:00 11.16806 C 58.5764 % 3.36 C
703 27-03-2012 00:00:00 11.10694 C 65.9826 % 5 C
704 28-03-2012 00:00:00 11.74201 C 67.7188 % 5.98 C
705 29-03-2012 00:00:00 9.58194 C 71.1354 % 4.62 C
706 30-03-2012 00:00:00 9.39062 C 79.1701 % 5.97 C
707 31-03-2012 00:00:00 7.98706 C 76.3042 % 4.08 C
708 01-04-2012 00:00:00 4.77396 C 63.6736 % -1.51 C
709 02-04-2012 00:00:00 6.69514 C 71.1493 % 1.85 C
710 03-04-2012 00:00:00 11.08125 C 62.9931 % 4.31 C
711 04-04-2012 00:00:00 9.89722 C 82.2743 % 7.02 C
712 05-04-2012 00:00:00 7.74514 C 80.8958 % 4.68 C
713 06-04-2012 00:00:00 7.88292 C 67.6655 % 2.28 C
714 07-04-2012 00:00:00 5.61389 C 72.7882 % 1.13 C
715 08-04-2012 00:00:00 5.19194 C 54.1941 % -3.29 C
716 09-04-2012 00:00:00 7.24583 C 83.3264 % 4.61 C
717 10-04-2012 00:00:00 11.25451 C 77.8646 % 7.54 C
718 11-04-2012 00:00:00 9.71215 C 72.8056 % 5.08 C
719 12-04-2012 00:00:00 6.41736 C 84.4444 % 3.99 C
720 13-04-2012 00:00:00 6.76632 C 81.2847 % 3.79 C
721 14-04-2012 00:00:00 7.83021 C 71.5486 % 3.02 C
722 15-04-2012 00:00:00 8.52361 C 73.9826 % 4.16 C
723 16-04-2012 00:00:00 5.92438 C 63.9835 % -0.36 C
724 17-04-2012 00:00:00 5.90382 C 59.8090 % -1.3 C
725 18-04-2012 00:00:00 8.72674 C 72.5451 % 4.08 C
Sensor: Nr:Datum:Temp:Feuchte:Taupunkt:
Aussen-T/F 726 19-04-2012 00:00:00 8.47422 C 80.8084 % 5.37 C
727 20-04-2012 00:00:00 7.34574 C 84.4529 % 4.9 C
728 21-04-2012 00:00:00 8.16701 C 81.3229 % 5.16 C
729 22-04-2012 00:00:00 7.84306 C 80.2049 % 4.65 C
730 23-04-2012 00:00:00 8.39097 C 79.6389 % 5.08 C
731 24-04-2012 00:00:00 8.89757 C 84.6181 % 6.45 C
732 25-04-2012 00:00:00 10.14167 C 78.2292 % 6.53 C
733 26-04-2012 00:00:00 11.47083 C 79.8958 % 8.13 C
734 27-04-2012 00:00:00 12.5625 C 82.5104 % 9.67 C
735 28-04-2012 00:00:00 18.10903 C 72.5139 % 13.09 C
736 29-04-2012 00:00:00 16.89826 C 73.1979 % 12.07 C
737 30-04-2012 00:00:00 17.93194 C 63.6007 % 10.94 C
738 01-05-2012 00:00:00 17.12465 C 71.7708 % 11.99 C
739 02-05-2012 00:00:00 15.24479 C 86.9549 % 13.09 C
740 03-05-2012 00:00:00 13.43472 C 77.5035 % 9.59 C
741 04-05-2012 00:00:00 14.57083 C 73.6806 % 9.93 C
742 05-05-2012 00:00:00 11.45069 C 92.9271 % 10.35 C
743 06-05-2012 00:00:00 10.57674 C 92.8021 % 9.46 C
744 07-05-2012 00:00:00 10.38681 C 83.5556 % 7.73 C
745 08-05-2012 00:00:00 13.89063 C 73.1215 % 9.16 C
746 09-05-2012 00:00:00 16.78229 C 82.0903 % 13.71 C
747 10-05-2012 00:00:00 19.11111 C 78.7257 % 15.33 C
748 11-05-2012 00:00:00 19.125 C 80.7014 % 15.73 C
749 12-05-2012 00:00:00 11.31289 C 69.8188 % 6.01 C
750 13-05-2012 00:00:00 9.38646 C 66.5382 % 3.48 C
Sensor: Nr:Datum:Temp:Feuchte:Taupunkt:
Aussen-T/F 751 14-05-2012 00:00:00 11.40799 C 62.7778 % 4.57 C
752 15-05-2012 00:00:00 9.5625 C 74.6979 % 5.3 C
753 16-05-2012 00:00:00 8.66597 C 76.0417 % 4.69 C
754 17-05-2012 00:00:00 9.38889 C 67.5799 % 3.7 C
755 18-05-2012 00:00:00 12.68299 C 77.1667 % 8.79 C
756 19-05-2012 00:00:00 15.71389 C 82.6667 % 12.77 C
757 20-05-2012 00:00:00 17.6684 C 78.6076 % 13.91 C
758 21-05-2012 00:00:00 18.52986 C 81.4410 % 15.29 C
759 22-05-2012 00:00:00 21.31944 C 73.3576 % 16.36 C
760 23-05-2012 00:00:00 18.79965 C 89.2743 % 17 C
761 24-05-2012 00:00:00 20.69687 C 73.7639 % 15.85 C
762 25-05-2012 00:00:00 19.45313 C 48.2882 % 8.25 C
763 26-05-2012 00:00:00 18.11007 C 54.3056 % 8.75 C
764 27-05-2012 00:00:00 18.05868 C 62.2743 % 10.74 C
765 28-05-2012 00:00:00 18.93417 C 63.8705 % 11.95 C
766 29-05-2012 00:00:00 18.46288 C 64.9508 % 11.76 C
767 30-05-2012 00:00:00 17.68438 C 78.7569 % 13.95 C
768 31-05-2012 00:00:00 16.03021 C 84.4167 % 13.4 C
769 01-06-2012 00:00:00 15.74271 C 76.1632 % 11.56 C
770 02-06-2012 00:00:00 15.19271 C 70.5938 % 9.89 C
771 03-06-2012 00:00:00 12.60255 C 88.8727 % 10.82 C
772 04-06-2012 00:00:00 13.31389 C 85.8576 % 11 C
773 05-06-2012 00:00:00 12.15312 C 69.0486 % 6.65 C
774 06-06-2012 00:00:00 13.09444 C 86.8056 % 10.95 C
775 07-06-2012 00:00:00 16.45799 C 88.8576 % 14.62 C
Sensor: Nr:Datum:Temp:Feuchte:Taupunkt:
Aussen-T/F 776 08-06-2012 00:00:00 17.34097 C 72.3854 % 12.33 C
777 09-06-2012 00:00:00 14.79028 C 66.1215 % 8.53 C
778 10-06-2012 00:00:00 15.29514 C 66.6736 % 9.14 C
779 11-06-2012 00:00:00 14.57014 C 84.7083 % 12.03 C
780 12-06-2012 00:00:00 14.40729 C 86.0764 % 12.11 C
781 13-06-2012 00:00:00 12.57363 C 92.7692 % 11.44 C
782 14-06-2012 00:00:00 14.15694 C 81.5104 % 11.04 C
783 15-06-2012 00:00:00 16.11806 C 85.0833 % 13.61 C
784 16-06-2012 00:00:00 15.40799 C 92.7326 % 14.24 C
785 17-06-2012 00:00:00 17.28021 C 70.4549 % 11.86 C
786 18-06-2012 00:00:00 18.57292 C 74.0694 % 13.87 C
787 19-06-2012 00:00:00 17.44028 C 82.5590 % 14.44 C
788 20-06-2012 00:00:00 16.35833 C 96.8785 % 15.86 C
789 21-06-2012 00:00:00 18.41354 C 89.4583 % 16.65 C
790 22-06-2012 00:00:00 16.36181 C 75.7083 % 12.07 C
791 23-06-2012 00:00:00 16.63472 C 71.3924 % 11.44 C
792 24-06-2012 00:00:00 14.73507 C 82.4306 % 11.78 C
793 25-06-2012 00:00:00 15.09028 C 78.7917 % 11.44 C
794 26-06-2012 00:00:00 16.43125 C 73.6111 % 11.71 C
795 27-06-2012 00:00:00 18.07569 C 84.8264 % 15.48 C
796 28-06-2012 00:00:00 21.87465 C 80.2743 % 18.32 C
797 29-06-2012 00:00:00 20.49063 C 90.0868 % 18.81 C
798 30-06-2012 00:00:00 20.14965 C 78.6563 % 16.32 C
799 01-07-2012 00:00:00 17.98889 C 81.2882 % 14.74 C
800 02-07-2012 00:00:00 15.24444 C 86.4826 % 13 C
Sensor: Nr:Datum:Temp:Feuchte:Taupunkt:
Aussen-T/F 801 03-07-2012 00:00:00 18.02153 C 76.9132 % 13.91 C
802 04-07-2012 00:00:00 19.87465 C 76.5000 % 15.62 C
803 05-07-2012 00:00:00 19.09722 C 91.7153 % 17.72 C
804 06-07-2012 00:00:00 19.21042 C 82.2708 % 16.11 C
805 07-07-2012 00:00:00 19.57743 C 72.4514 % 14.49 C
806 08-07-2012 00:00:00 17.84097 C 81.3542 % 14.6 C
807 09-07-2012 00:00:00 18.63611 C 72.1944 % 13.53 C
808 10-07-2012 00:00:00 19.1441 C 76.7604 % 14.97 C
809 11-07-2012 00:00:00 16.03394 C 79.6861 % 12.53 C
810 12-07-2012 00:00:00 14.8191 C 77.8715 % 11 C
811 13-07-2012 00:00:00 15.50417 C 89.5694 % 13.8 C
812 14-07-2012 00:00:00 15.27708 C 87.8125 % 13.27 C
813 15-07-2012 00:00:00 14.52014 C 86.8542 % 12.36 C
814 16-07-2012 00:00:00 15.02292 C 79.1840 % 11.45 C
815 17-07-2012 00:00:00 17.55035 C 76.7431 % 13.42 C
816 18-07-2012 00:00:00 19.89649 C 72.5088 % 14.81 C
817 19-07-2012 00:00:00 18.18194 C 70.2743 % 12.68 C
818 20-07-2012 00:00:00 14.85872 C 85.6406 % 12.48 C
819 21-07-2012 00:00:00 15.04167 C 80.6493 % 11.74 C
820 22-07-2012 00:00:00 14.62049 C 74.5139 % 10.15 C
821 23-07-2012 00:00:00 17.15069 C 68.0972 % 11.22 C
822 24-07-2012 00:00:00 19.81701 C 70.4826 % 14.3 C
823 25-07-2012 00:00:00 22.11408 C 72.7218 % 16.99 C
824 26-07-2012 00:00:00 23.10764 C 73.2326 % 18.05 C
825 27-07-2012 00:00:00 22.2566 C 82.8021 % 19.19 C
Sensor: Nr:Datum:Temp:Feuchte:Taupunkt:
Aussen-T/F 826 28-07-2012 00:00:00 19.03507 C 92.5660 % 17.8 C
827 29-07-2012 00:00:00 17.61875 C 75.5799 % 13.26 C
828 30-07-2012 00:00:00 16.17396 C 70.1250 % 10.73 C
829 31-07-2012 00:00:00 16.33993 C 79.2778 % 12.75 C
830 01-08-2012 00:00:00 20.08194 C 75.0521 % 15.52 C
831 02-08-2012 00:00:00 20.75938 C 75.0938 % 16.19 C
832 03-08-2012 00:00:00 19.31771 C 71.6042 % 14.06 C
833 04-08-2012 00:00:00 19.1 C 71.9653 % 13.93 C
834 05-08-2012 00:00:00 19.0875 C 83.3889 % 16.21 C
835 06-08-2012 00:00:00 18.40312 C 78.4965 % 14.6 C
836 07-08-2012 00:00:00 17.15556 C 73.1701 % 12.31 C
837 08-08-2012 00:00:00 16.59132 C 79.3229 % 13 C
838 09-08-2012 00:00:00 18.49479 C 77.0868 % 14.41 C
839 10-08-2012 00:00:00 17.33299 C 71.4028 % 12.11 C
840 11-08-2012 00:00:00 16.29444 C 73.2604 % 11.5 C
841 12-08-2012 00:00:00 17.40486 C 68.6181 % 11.58 C
842 13-08-2012 00:00:00 18.22326 C 73.1944 % 13.35 C
843 14-08-2012 00:00:00 19.78993 C 79.0521 % 16.05 C
844 15-08-2012 00:00:00 22.31354 C 70.9549 % 16.79 C
845 16-08-2012 00:00:00 21.27535 C 67.3125 % 14.97 C
846 17-08-2012 00:00:00 20.12986 C 70.1146 % 14.51 C
847 18-08-2012 00:00:00 23.0066 C 67.4271 % 16.65 C
848 19-08-2012 00:00:00 24.67083 C 69.9722 % 18.82 C
849 20-08-2012 00:00:00 23.43229 C 80.3090 % 19.84 C
850 21-08-2012 00:00:00 22.6875 C 81.6771 % 19.39 C
Sensor: Nr:Datum:Temp:Feuchte:Taupunkt:
Aussen-T/F 851 22-08-2012 00:00:00 20.95729 C 64.6042 % 14.04 C
852 23-08-2012 00:00:00 17.78194 C 65.1285 % 11.15 C
853 24-08-2012 00:00:00 18.62842 C 81.4105 % 15.38 C
854 25-08-2012 00:00:00 18.46493 C 78.6458 % 14.69 C
855 26-08-2012 00:00:00 16.26667 C 78.3021 % 12.49 C
856 27-08-2012 00:00:00 16.32049 C 79.0486 % 12.68 C
857 28-08-2012 00:00:00 18.03507 C 74.6076 % 13.46 C
858 29-08-2012 00:00:00 20.02396 C 77.5486 % 15.98 C
859 30-08-2012 00:00:00 17.48889 C 81.0208 % 14.2 C
860 31-08-2012 00:00:00 13.93646 C 84.9132 % 11.44 C
861 01-09-2012 00:00:00 14.49236 C 76.3785 % 10.39 C
862 02-09-2012 00:00:00 13.96285 C 82.2604 % 10.99 C
863 03-09-2012 00:00:00 16.22222 C 79.7535 % 12.72 C
864 04-09-2012 00:00:00 16.86098 C 82.0105 % 13.77 C
865 05-09-2012 00:00:00 16.4125 C 79.7500 % 12.91 C
866 06-09-2012 00:00:00 14.63604 C 70.9187 % 9.42 C
867 07-09-2012 00:00:00 14.4309 C 73.8368 % 9.83 C
868 08-09-2012 00:00:00 16.83403 C 70.1076 % 11.36 C
869 09-09-2012 00:00:00 18.54722 C 68.1563 % 12.57 C
870 10-09-2012 00:00:00 19.67847 C 67.2465 % 13.44 C
871 11-09-2012 00:00:00 17.74028 C 83.6910 % 14.95 C
872 12-09-2012 00:00:00 11.13646 C 93.3750 % 10.11 C
873 13-09-2012 00:00:00 10.78611 C 90.3368 % 9.27 C
874 14-09-2012 00:00:00 13.01424 C 83.7639 % 10.33 C
875 15-09-2012 00:00:00 13.44514 C 88.4410 % 11.57 C
Sensor: Nr:Datum:Temp:Feuchte:Taupunkt:
Aussen-T/F 876 16-09-2012 00:00:00 13.24236 C 85.5903 % 10.88 C
877 17-09-2012 00:00:00 15.15729 C 83.0208 % 12.3 C
878 18-09-2012 00:00:00 14.10868 C 84.2188 % 11.49 C
879 19-09-2012 00:00:00 11.7684 C 70.2292 % 6.53 C
880 20-09-2012 00:00:00 9.9566 C 72.9271 % 5.33 C
881 21-09-2012 00:00:00 10.62118 C 79.5069 % 7.23 C
882 22-09-2012 00:00:00 11.53611 C 80.2917 % 8.26 C
883 23-09-2012 00:00:00 11.58819 C 78.6007 % 8 C
884 24-09-2012 00:00:00 14.89201 C 84.5486 % 12.31 C
885 25-09-2012 00:00:00 12.86597 C 88.1563 % 10.96 C
886 26-09-2012 00:00:00 12.27917 C 95.0382 % 11.51 C
887 27-09-2012 00:00:00 12.68611 C 88.7257 % 10.88 C
888 28-09-2012 00:00:00 12.56701 C 85.9757 % 10.29 C
889 29-09-2012 00:00:00 11.68819 C 84.0382 % 9.08 C
890 30-09-2012 00:00:00 9.30035 C 89.3681 % 7.64 C
891 01-10-2012 00:00:00 9.46319 C 85.2118 % 7.11 C
892 02-10-2012 00:00:00 12.25764 C 84.6736 % 9.75 C
893 03-10-2012 00:00:00 14.55312 C 82.0139 % 11.52 C
894 04-10-2012 00:00:00 12.89722 C 83.2569 % 10.13 C
895 05-10-2012 00:00:00 13.57986 C 85.1285 % 11.13 C
896 06-10-2012 00:00:00 14.99065 C 84.0244 % 12.32 C
897 07-10-2012 00:00:00 10.63669 C 85.8058 % 8.36 C
898 08-10-2012 00:00:00 8.1958 C 91.4790 % 6.89 C
899 09-10-2012 00:00:00 10.60348 C 82.4776 % 7.75 C
900 10-10-2012 00:00:00 6.21146 C 91.4826 % 4.93 C
Sensor: Nr:Datum:Temp:Feuchte:Taupunkt:
Aussen-T/F 901 11-10-2012 00:00:00 6.67361 C 92.2431 % 5.51 C
902 12-10-2012 00:00:00 10.79653 C 89.9479 % 9.22 C
903 13-10-2012 00:00:00 9.08472 C 85.8854 % 6.85 C
904 14-10-2012 00:00:00 8.15833 C 90.5868 % 6.71 C
905 15-10-2012 00:00:00 7.43264 C 92.8646 % 6.36 C
906 16-10-2012 00:00:00 7.85556 C 89.7188 % 6.27 C
907 17-10-2012 00:00:00 10.85972 C 90.2361 % 9.33 C
908 18-10-2012 00:00:00 14.37569 C 85.3924 % 11.96 C
909 19-10-2012 00:00:00 14.37187 C 89.1111 % 12.6 C
910 20-10-2012 00:00:00 13.74722 C 92.9722 % 12.63 C
911 21-10-2012 00:00:00 13.32917 C 93.7014 % 12.34 C
912 22-10-2012 00:00:00 11.79062 C 93.9931 % 10.86 C
913 23-10-2012 00:00:00 11.38403 C 87.8194 % 9.44 C
914 24-10-2012 00:00:00 9.71528 C 91.8819 % 8.46 C
915 25-10-2012 00:00:00 9.9441 C 92.9271 % 8.85 C
916 26-10-2012 00:00:00 6.73542 C 93.3472 % 5.74 C
917 27-10-2012 00:00:00 2.98993 C 78.3160 % -0.41 C
918 28-10-2012 00:00:00 0.51181 C 90.1007 % -0.92 C
919 29-10-2012 00:00:00 0.69306 C 92.2292 % -0.42 C
920 30-10-2012 00:00:00 6.0566 C 90.8507 % 4.68 C
921 31-10-2012 00:00:00 5.97118 C 91.2778 % 4.66 C
922 01-11-2012 00:00:00 7.64965 C 85.8819 % 5.44 C
923 02-11-2012 00:00:00 7.75417 C 81.4132 % 4.78 C
924 03-11-2012 00:00:00 7.38542 C 94.0104 % 6.49 C
925 04-11-2012 00:00:00 7.74028 C 92.3472 % 6.58 C
Sensor: Nr:Datum:Temp:Feuchte:Taupunkt:
Aussen-T/F 926 05-11-2012 00:00:00 8.00382 C 84.4444 % 5.55 C
927 06-11-2012 00:00:00 6.03264 C 87.7708 % 4.16 C
928 07-11-2012 00:00:00 8.52535 C 86.8021 % 6.46 C
929 08-11-2012 00:00:00 8.82222 C 80.7188 % 5.7 C
930 09-11-2012 00:00:00 8.19861 C 83.9444 % 5.65 C
931 10-11-2012 00:00:00 8.89201 C 93.0243 % 7.83 C
932 11-11-2012 00:00:00 8.24097 C 92.3333 % 7.07 C
933 12-11-2012 00:00:00 5.70868 C 88.6701 % 3.99 C
934 13-11-2012 00:00:00 3.26076 C 94.2639 % 2.43 C
935 14-11-2012 00:00:00 2.60312 C 94.3438 % 1.79 C
936 15-11-2012 00:00:00 4.53958 C 88.2361 % 2.77 C
937 16-11-2012 00:00:00 3.22222 C 87.5313 % 1.36 C
938 17-11-2012 00:00:00 4.33472 C 93.4931 % 3.38 C
939 18-11-2012 00:00:00 7.54896 C 95.9792 % 6.95 C
940 19-11-2012 00:00:00 7.68403 C 95.0035 % 6.94 C
941 20-11-2012 00:00:00 5.27188 C 93.6215 % 4.33 C
942 21-11-2012 00:00:00 4.38681 C 91.7778 % 3.17 C
943 22-11-2012 00:00:00 5.51111 C 94.8819 % 4.76 C
944 23-11-2012 00:00:00 6.88472 C 93.0660 % 5.84 C
945 24-11-2012 00:00:00 9.16042 C 89.4167 % 7.51 C
946 25-11-2012 00:00:00 10.6066 C 72.8889 % 5.95 C
947 26-11-2012 00:00:00 6.01493 C 95.3368 % 5.33 C
948 27-11-2012 00:00:00 7.67986 C 89.1875 % 6.02 C
949 28-11-2012 00:00:00 5.5184 C 91.1563 % 4.19 C
950 29-11-2012 00:00:00 4.01319 C 86.8021 % 2.02 C
Sensor: Nr:Datum:Temp:Feuchte:Taupunkt:
Aussen-T/F 951 30-11-2012 00:00:00 1.44375 C 93.9375 % 0.58 C
952 01-12-2012 00:00:00 -0.39861 C 93.9271 % -1.25 C
953 02-12-2012 00:00:00 2.39375 C 89.5035 % 0.85 C
954 03-12-2012 00:00:00 2.27222 C 89.5486 % 0.74 C
955 04-12-2012 00:00:00 3.75312 C 89.4653 % 2.18 C
956 05-12-2012 00:00:00 2.86667 C 90.6389 % 1.49 C
957 06-12-2012 00:00:00 0.5625 C 84.7813 % -1.7 C
958 07-12-2012 00:00:00 -1.00382 C 91.2500 % -2.25 C
959 08-12-2012 00:00:00 -4.66111 C 93.4826 % -5.55 C
960 09-12-2012 00:00:00 0.22326 C 90.9479 % -1.08 C
961 10-12-2012 00:00:00 2.70764 C 86.9965 % 0.77 C
962 11-12-2012 00:00:00 -0.72396 C 86.9514 % -2.62 C
963 12-12-2012 00:00:00 -3.40937 C 85.1563 % -5.54 C
964 13-12-2012 00:00:00 -3.53646 C 88.4896 % -5.16 C
965 14-12-2012 00:00:00 2.76076 C 92.6389 % 1.69 C
966 15-12-2012 00:00:00 6.97153 C 92.2500 % 5.8 C
967 16-12-2012 00:00:00 6.60868 C 91.0278 % 5.25 C
968 17-12-2012 00:00:00 6.04792 C 93.6910 % 5.11 C
969 18-12-2012 00:00:00 5.04583 C 93.1146 % 4.03 C
970 19-12-2012 00:00:00 3.47361 C 96.2708 % 2.94 C
971 20-12-2012 00:00:00 1.32396 C 93.7708 % 0.43 C
972 21-12-2012 00:00:00 3.19236 C 97.7708 % 2.87 C
973 22-12-2012 00:00:00 6.1691 C 95.2361 % 5.47 C
974 23-12-2012 00:00:00 11.85 C 90.7014 % 10.38 C
975 24-12-2012 00:00:00 11.08715 C 83.9306 % 8.48 C
Sensor: Nr:Datum:Temp:Feuchte:Taupunkt:
Aussen-T/F 976 25-12-2012 00:00:00 9.61181 C 81.7431 % 6.65 C
977 26-12-2012 00:00:00 8.15278 C 84.2465 % 5.66 C
978 27-12-2012 00:00:00 7.84757 C 87.0868 % 5.84 C
979 28-12-2012 00:00:00 6.19479 C 93.6806 % 5.25 C
980 29-12-2012 00:00:00 8.19931 C 92.4514 % 7.05 C
981 30-12-2012 00:00:00 8.44618 C 76.8021 % 4.62 C
982 31-12-2012 00:00:00 8.92569 C 76.6319 % 5.05 C
983 01-01-2013 00:00:00 6.59132 C 85.2465 % 4.3 C
984 02-01-2013 00:00:00 4.69861 C 86.2326 % 2.6 C
985 03-01-2013 00:00:00 7.62951 C 90.5069 % 6.18 C
986 04-01-2013 00:00:00 9.87292 C 91.9063 % 8.62 C
987 05-01-2013 00:00:00 7.8816 C 90.6528 % 6.45 C
988 06-01-2013 00:00:00 8.15069 C 89.3438 % 6.51 C
989 07-01-2013 00:00:00 7.30764 C 88.5938 % 5.55 C
990 08-01-2013 00:00:00 6.15417 C 86.4549 % 4.07 C
991 09-01-2013 00:00:00 4.72465 C 87.9271 % 2.9 C
992 10-01-2013 00:00:00 4.44028 C 90.6840 % 3.05 C
993 11-01-2013 00:00:00 1.09201 C 80.8958 % -1.81 C
994 12-01-2013 00:00:00 -2.64514 C 86.8611 % -4.53 C
995 13-01-2013 00:00:00 -3.28368 C 83.3715 % -5.69 C
996 14-01-2013 00:00:00 -4.44028 C 89.7431 % -5.87 C
997 15-01-2013 00:00:00 -2.1941 C 89.2222 % -3.72 C
998 16-01-2013 00:00:00 -2.65521 C 90.0208 % -4.06 C
999 17-01-2013 00:00:00 -2.48542 C 88.3472 % -4.14 C
1000 18-01-2013 00:00:00 -1.70729 C 86.0417 % -3.73 C
Sensor: Nr:Datum:Temp:Feuchte:Taupunkt:
Aussen-T/F 1001 19-01-2013 00:00:00 -2.39375 C 81.1181 % -5.18 C
1002 20-01-2013 00:00:00 -3.06146 C 87.3229 % -4.87 C
1003 21-01-2013 00:00:00 -0.75938 C 92.5590 % -1.81 C
1004 22-01-2013 00:00:00 -1.20382 C 91.8194 % -2.36 C
1005 23-01-2013 00:00:00 -1.0566 C 91.6736 % -2.24 C
1006 24-01-2013 00:00:00 -2.40833 C 86.2639 % -4.38 C
1007 25-01-2013 00:00:00 -2.18368 C 84.2292 % -4.48 C
1008 26-01-2013 00:00:00 -1.99549 C 84.4306 % -4.26 C
1009 27-01-2013 00:00:00 2.22882 C 88.1528 % 0.48 C
1010 28-01-2013 00:00:00 3.96389 C 87.7361 % 2.12 C
1011 29-01-2013 00:00:00 9.00868 C 87.2743 % 7.01 C
1012 30-01-2013 00:00:00 11.32361 C 82.5660 % 8.47 C
1013 31-01-2013 00:00:00 7.765 C 75.5864 % 3.73 C
1014 01-02-2013 00:00:00 6.26378 C 91.9921 % 5.06 C
1015 02-02-2013 00:00:00 3.24097 C 87.7743 % 1.41 C
1016 03-02-2013 00:00:00 3.41458 C 84.2292 % 1.01 C
1017 04-02-2013 00:00:00 5.84792 C 89.4167 % 4.24 C
1018 05-02-2013 00:00:00 4.44583 C 78.9896 % 1.13 C
1019 06-02-2013 00:00:00 1.58819 C 91.4306 % 0.35 C
1020 07-02-2013 00:00:00 1.88576 C 90.5625 % 0.51 C
1021 08-02-2013 00:00:00 0.56424 C 91.6042 % -0.64 C
1022 09-02-2013 00:00:00 -0.7941 C 88.5694 % -2.44 C
1023 10-02-2013 00:00:00 -1.98681 C 82.7569 % -4.52 C
1024 11-02-2013 00:00:00 -0.9316 C 70.8750 % -5.54 C
1025 12-02-2013 00:00:00 -0.84618 C 72.2569 % -5.2 C
Sensor: Nr:Datum:Temp:Feuchte:Taupunkt:
Aussen-T/F 1026 13-02-2013 00:00:00 -0.98125 C 73.6458 % -5.08 C
1027 14-02-2013 00:00:00 -2.40382 C 83.6806 % -4.78 C
1028 15-02-2013 00:00:00 0.91806 C 93.3993 % -0.02 C
1029 16-02-2013 00:00:00 2.92847 C 95.7014 % 2.31 C
1030 17-02-2013 00:00:00 2.97465 C 92.8229 % 1.93 C
1031 18-02-2013 00:00:00 0.52847 C 89.7049 % -0.96 C
1032 19-02-2013 00:00:00 0.79306 C 91.9375 % -0.36 C
1033 20-02-2013 00:00:00 0.4316 C 79.5799 % -2.68 C
1034 21-02-2013 00:00:00 -1.21979 C 76.7188 % -4.77 C
1035 22-02-2013 00:00:00 -2.3066 C 72.8819 % -6.5 C
1036 23-02-2013 00:00:00 -2.80139 C 85.8924 % -4.83 C
1037 24-02-2013 00:00:00 -0.43958 C 90.7604 % -1.76 C
1038 25-02-2013 00:00:00 0.88785 C 95.9375 % 0.32 C
1039 26-02-2013 00:00:00 2.31215 C 94.4792 % 1.52 C
1040 27-02-2013 00:00:00 1.69271 C 89.6667 % 0.18 C
1041 28-02-2013 00:00:00 2.41771 C 88.3368 % 0.69 C
1042 01-03-2013 00:00:00 2.75278 C 82.7014 % 0.11 C
1043 02-03-2013 00:00:00 2.60208 C 75.2674 % -1.32 C
1044 03-03-2013 00:00:00 1.90104 C 84.2535 % -0.47 C
1045 04-03-2013 00:00:00 1.8934 C 82.4444 % -0.77 C
1046 05-03-2013 00:00:00 2.56979 C 83.8611 % 0.12 C
1047 06-03-2013 00:00:00 5.45035 C 78.0139 % 1.93 C
1048 07-03-2013 00:00:00 8.96146 C 79.3646 % 5.59 C
1049 08-03-2013 00:00:00 10.92049 C 83.9063 % 8.31 C
1050 09-03-2013 00:00:00 10.42118 C 84.5660 % 7.94 C
Sensor: Nr:Datum:Temp:Feuchte:Taupunkt:
Aussen-T/F 1051 10-03-2013 00:00:00 3.88611 C 90.5799 % 2.49 C
1052 11-03-2013 00:00:00 -0.5191 C 89.0764 % -2.09 C
1053 12-03-2013 00:00:00 -2.72153 C 90.2674 % -4.09 C
1054 13-03-2013 00:00:00 -2.95907 C 81.1566 % -5.73 C
1055 14-03-2013 00:00:00 -1.88944 C 86.0493 % -3.91 C
1056 15-03-2013 00:00:00 -2.50139 C 79.4063 % -5.57 C
1057 16-03-2013 00:00:00 2.40938 C 66.0729 % -3.26 C
1058 17-03-2013 00:00:00 3.22014 C 86.2431 % 1.15 C
1059 18-03-2013 00:00:00 4.14479 C 82.4410 % 1.43 C
1060 19-03-2013 00:00:00 4.10313 C 82.7500 % 1.44 C
1061 20-03-2013 00:00:00 3.59201 C 90.7639 % 2.23 C
1062 21-03-2013 00:00:00 1.33993 C 86.7153 % -0.62 C
1063 22-03-2013 00:00:00 1.7441 C 78.1840 % -1.64 C
1064 23-03-2013 00:00:00 1.46875 C 67.2951 % -3.92 C
1065 24-03-2013 00:00:00 0.48854 C 50.8924 % -8.48 C
1066 25-03-2013 00:00:00 0.18681 C 56.3854 % -7.45 C
1067 26-03-2013 00:00:00 0.3309 C 54.9167 % -7.65 C
1068 27-03-2013 00:00:00 1.19896 C 57.4340 % -6.26 C
1069 28-03-2013 00:00:00 2.07639 C 68.6563 % -3.07 C
1070 29-03-2013 00:00:00 0.53715 C 86.8750 % -1.39 C
1071 30-03-2013 00:00:00 1.50903 C 75.2361 % -2.39 C
1072 31-03-2013 00:00:00 1.17246 C 77.9094 % -2.24 C
1073 01-04-2013 00:00:00 1.44201 C 69.0382 % -3.6 C
1074 02-04-2013 00:00:00 2.12708 C 62.2396 % -4.33 C
1075 03-04-2013 00:00:00 1.88194 C 70.0521 % -2.99 C
Sensor: Nr:Datum:Temp:Feuchte:Taupunkt:
Aussen-T/F 1076 04-04-2013 00:00:00 3.97465 C 65.6701 % -1.85 C
1077 05-04-2013 00:00:00 2.45382 C 75.3299 % -1.46 C
1078 06-04-2013 00:00:00 3.55104 C 83.4028 % 1.01 C
1079 07-04-2013 00:00:00 3.40382 C 71.6181 % -1.23 C
1080 08-04-2013 00:00:00 4.46979 C 71.6076 % -0.2 C
1081 09-04-2013 00:00:00 5.89479 C 88.8681 % 4.2 C
1082 10-04-2013 00:00:00 8.34653 C 86.5139 % 6.23 C
1083 11-04-2013 00:00:00 12.25972 C 76.2674 % 8.21 C
1084 12-04-2013 00:00:00 10.42708 C 83.9722 % 7.84 C
1085 13-04-2013 00:00:00 11.30243 C 70.4826 % 6.14 C
1086 14-04-2013 00:00:00 15.49271 C 69.5903 % 9.96 C
1087 15-04-2013 00:00:00 15.52118 C 73.4931 % 10.81 C
1088 16-04-2013 00:00:00 16.01215 C 73.3854 % 11.26 C
1089 17-04-2013 00:00:00 17.14167 C 64.9028 % 10.49 C
1090 18-04-2013 00:00:00 15.57153 C 62.1528 % 8.36 C
1091 19-04-2013 00:00:00 11.46389 C 56.8333 % 3.21 C
1092 20-04-2013 00:00:00 10.16944 C 61.6736 % 3.15 C
1093 21-04-2013 00:00:00 10.71389 C 59.7014 % 3.21 C
1094 22-04-2013 00:00:00 12.26562 C 60.0069 % 4.74 C
1095 23-04-2013 00:00:00 12.48924 C 62.8681 % 5.62 C
1096 24-04-2013 00:00:00 14.60278 C 69.3472 % 9.06 C
1097 25-04-2013 00:00:00 17.28958 C 64.4965 % 10.54 C
1098 26-04-2013 00:00:00 12.59896 C 84.6528 % 10.09 C
1099 27-04-2013 00:00:00 6.70972 C 88.6111 % 4.97 C
1100 28-04-2013 00:00:00 7.57118 C 83.3438 % 4.93 C
Sensor: Nr:Datum:Temp:Feuchte:Taupunkt:
Aussen-T/F 1101 29-04-2013 00:00:00 11.20139 C 67.0556 % 5.32 C
1102 30-04-2013 00:00:00 9.40104 C 78.5139 % 5.86 C
1103 01-05-2013 00:00:00 12.25 C 80.0972 % 8.92 C
1104 02-05-2013 00:00:00 15.26458 C 71.7535 % 10.2 C
1105 03-05-2013 00:00:00 14.28056 C 76.8472 % 10.28 C
1106 04-05-2013 00:00:00 15.30521 C 68.4132 % 9.53 C
1107 05-05-2013 00:00:00 14.71458 C 67.0556 % 8.67 C
1108 06-05-2013 00:00:00 15.4691 C 70.1458 % 10.06 C
1109 07-05-2013 00:00:00 14.47708 C 86.2465 % 12.21 C
1110 08-05-2013 00:00:00 15.69062 C 80.7188 % 12.39 C
1111 09-05-2013 00:00:00 16.1566 C 79.2674 % 12.57 C
1112 10-05-2013 00:00:00 13.28785 C 70.3924 % 8.02 C
1113 11-05-2013 00:00:00 12.72431 C 79.9549 % 9.36 C
1114 12-05-2013 00:00:00 9.44583 C 87.2049 % 7.43 C
1115 13-05-2013 00:00:00 11.19688 C 87.3056 % 9.17 C
1116 14-05-2013 00:00:00 12.63125 C 81.3576 % 9.53 C
1117 15-05-2013 00:00:00 13.05694 C 84.4688 % 10.5 C
1118 16-05-2013 00:00:00 13.25521 C 93.0174 % 12.15 C
1119 17-05-2013 00:00:00 10.33125 C 94.0278 % 9.41 C
1120 18-05-2013 00:00:00 13.12118 C 83.2813 % 10.35 C
1121 19-05-2013 00:00:00 13.29792 C 84.1910 % 10.69 C
1122 20-05-2013 00:00:00 10.92014 C 91.6771 % 9.62 C
1123 21-05-2013 00:00:00 12.35104 C 85.9826 % 10.08 C
1124 22-05-2013 00:00:00 9.34444 C 87.3438 % 7.35 C
1125 23-05-2013 00:00:00 7.90764 C 85.7535 % 5.67 C
Sensor: Nr:Datum:Temp:Feuchte:Taupunkt:
Aussen-T/F 1126 24-05-2013 00:00:00 7.60521 C 78.8576 % 4.18 C
1127 25-05-2013 00:00:00 8.39687 C 79.6493 % 5.09 C
1128 26-05-2013 00:00:00 8.03611 C 93.6493 % 7.08 C
1129 27-05-2013 00:00:00 12.39201 C 76.8368 % 8.45 C
1130 28-05-2013 00:00:00 13.87465 C 75.0903 % 9.54 C
1131 29-05-2013 00:00:00 10.21285 C 92.6875 % 9.08 C
1132 30-05-2013 00:00:00 11.70208 C 80.4896 % 8.46 C
1133 31-05-2013 00:00:00 13.19792 C 90.3090 % 11.65 C
1134 01-06-2013 00:00:00 12.09549 C 87.9410 % 10.16 C
1135 02-06-2013 00:00:00 13.08125 C 66.3472 % 6.96 C
1136 03-06-2013 00:00:00 12.7375 C 64.3750 % 6.19 C
1137 04-06-2013 00:00:00 13.85833 C 72.3507 % 8.97 C
1138 05-06-2013 00:00:00 16.28889 C 78.3125 % 12.51 C
1139 06-06-2013 00:00:00 18.00868 C 68.3264 % 12.09 C
1140 07-06-2013 00:00:00 18.14826 C 71.4236 % 12.9 C
1141 08-06-2013 00:00:00 18.53125 C 79.0556 % 14.83 C
1142 09-06-2013 00:00:00 15.18819 C 89.5868 % 13.49 C
1143 10-06-2013 00:00:00 12.77396 C 94.5868 % 11.93 C
1144 11-06-2013 00:00:00 15.40451 C 84.7708 % 12.86 C
1145 12-06-2013 00:00:00 17.48576 C 83.4236 % 14.65 C
1146 13-06-2013 00:00:00 18.45313 C 85.0625 % 15.9 C
1147 14-06-2013 00:00:00 14.47917 C 78.2500 % 10.74 C
1148 15-06-2013 00:00:00 15.22674 C 77.9653 % 11.41 C
1149 16-06-2013 00:00:00 16.60104 C 70.9306 % 11.31 C
1150 17-06-2013 00:00:00 20.99236 C 73.9583 % 16.17 C
Sensor: Nr:Datum:Temp:Feuchte:Taupunkt:
Aussen-T/F 1151 18-06-2013 00:00:00 23.88576 C 78.5104 % 19.92 C
1152 19-06-2013 00:00:00 24.9691 C 80.3924 % 21.36 C
1153 20-06-2013 00:00:00 21.63299 C 83.6493 % 18.74 C
1154 21-06-2013 00:00:00 17.72778 C 79.6563 % 14.17 C
1155 22-06-2013 00:00:00 18.08576 C 74.9688 % 13.58 C
1156 23-06-2013 00:00:00 16.03403 C 77.5938 % 12.12 C
1157 24-06-2013 00:00:00 14.4184 C 80.7326 % 11.15 C
1158 25-06-2013 00:00:00 13.24861 C 81.2049 % 10.1 C
1159 26-06-2013 00:00:00 12.21597 C 78.8819 % 8.66 C
1160 27-06-2013 00:00:00 12.77257 C 85.6111 % 10.42 C
1161 28-06-2013 00:00:00 12.51979 C 89.5764 % 10.85 C
1162 29-06-2013 00:00:00 15.31319 C 83.5000 % 12.54 C
1163 30-06-2013 00:00:00 14.36458 C 77.9931 % 10.58 C
1164 01-07-2013 00:00:00 18.46319 C 74.8715 % 13.93 C
1165 02-07-2013 00:00:00 18.88542 C 76.4132 % 14.65 C
1166 03-07-2013 00:00:00 17.18993 C 93.0868 % 16.06 C
1167 04-07-2013 00:00:00 18.03542 C 87.4410 % 15.92 C
1168 05-07-2013 00:00:00 19.17361 C 80.8785 % 15.81 C
1169 06-07-2013 00:00:00 19.30833 C 81.3438 % 16.03 C
1170 07-07-2013 00:00:00 20.55243 C 74.5069 % 15.86 C
1171 08-07-2013 00:00:00 20.53924 C 71.9444 % 15.31 C
1172 09-07-2013 00:00:00 20.80694 C 73.6597 % 15.93 C
1173 10-07-2013 00:00:00 20.12292 C 72.3368 % 14.99 C
1174 11-07-2013 00:00:00 17.10417 C 69.4097 % 11.47 C
1175 12-07-2013 00:00:00 16.90868 C 73.6806 % 12.18 C
Sensor: Nr:Datum:Temp:Feuchte:Taupunkt:
Aussen-T/F 1176 13-07-2013 00:00:00 17.26424 C 74.3160 % 12.66 C
1177 14-07-2013 00:00:00 18.30139 C 74.2847 % 13.65 C
1178 15-07-2013 00:00:00 18.85486 C 75.3333 % 14.4 C
1179 16-07-2013 00:00:00 20.18438 C 72.0590 % 14.99 C
1180 17-07-2013 00:00:00 20.29896 C 74.5729 % 15.63 C
1181 18-07-2013 00:00:00 21.84757 C 69.7014 % 16.06 C
1182 19-07-2013 00:00:00 22.12674 C 67.1042 % 15.74 C
1183 20-07-2013 00:00:00 21.31076 C 69.5417 % 15.52 C
1184 21-07-2013 00:00:00 22.30521 C 69.0000 % 16.34 C
1185 22-07-2013 00:00:00 22.41562 C 70.3958 % 16.76 C
1186 23-07-2013 00:00:00 21.37396 C 86.5069 % 19.03 C
1187 24-07-2013 00:00:00 21.35972 C 80.1076 % 17.79 C
1188 25-07-2013 00:00:00 20.88542 C 86.3472 % 18.52 C
1189 26-07-2013 00:00:00 21.25729 C 95.1007 % 20.44 C
1190 27-07-2013 00:00:00 23.54236 C 84.8646 % 20.85 C
1191 28-07-2013 00:00:00 21.69965 C 82.3889 % 18.57 C
1192 29-07-2013 00:00:00 19.41007 C 88.3993 % 17.44 C
1193 30-07-2013 00:00:00 18.99028 C 79.0139 % 15.27 C
1194 31-07-2013 00:00:00 20.83715 C 75.4653 % 16.34 C
1195 01-08-2013 00:00:00 21.89653 C 75.0764 % 17.28 C
1196 02-08-2013 00:00:00 23.37049 C 72.4132 % 18.13 C
1197 03-08-2013 00:00:00 21.1934 C 85.6146 % 18.69 C
1198 04-08-2013 00:00:00 19.79549 C 78.0382 % 15.86 C
1199 05-08-2013 00:00:00 20.42639 C 78.9618 % 16.65 C
1200 06-08-2013 00:00:00 19.98646 C 87.9132 % 17.92 C
Sensor: Nr:Datum:Temp:Feuchte:Taupunkt:
Aussen-T/F 1201 07-08-2013 00:00:00 18.91562 C 91.5833 % 17.51 C
1202 08-08-2013 00:00:00 16.92118 C 86.3229 % 14.62 C
1203 09-08-2013 00:00:00 16.41597 C 86.1181 % 14.09 C
1204 10-08-2013 00:00:00 18.10764 C 74.2986 % 13.46 C
1205 11-08-2013 00:00:00 16.80278 C 69.1771 % 11.13 C
1206 12-08-2013 00:00:00 15.88229 C 83.6007 % 13.11 C
1207 13-08-2013 00:00:00 15.61319 C 81.7326 % 12.5 C
1208 14-08-2013 00:00:00 14.4559 C 81.5660 % 11.34 C
1209 15-08-2013 00:00:00 16.30035 C 77.9028 % 12.44 C
1210 16-08-2013 00:00:00 17.96319 C 75.3750 % 13.55 C
1211 17-08-2013 00:00:00 20.47965 C 70.5158 % 14.94 C
1212 18-08-2013 00:00:00 19.29614 C 82.4596 % 16.23 C
1213 19-08-2013 00:00:00 17.75764 C 80.2465 % 14.31 C
1214 20-08-2013 00:00:00 14.96458 C 79.6111 % 11.47 C
1215 21-08-2013 00:00:00 15.16285 C 81.7743 % 12.07 C
1216 22-08-2013 00:00:00 16.33576 C 83.6111 % 13.56 C
1217 23-08-2013 00:00:00 18.61667 C 76.7708 % 14.46 C
1218 24-08-2013 00:00:00 16.10208 C 89.7396 % 14.42 C
1219 25-08-2013 00:00:00 16.06806 C 95.2708 % 15.31 C
1220 26-08-2013 00:00:00 15.16806 C 96.5451 % 14.62 C
1221 27-08-2013 00:00:00 15.88472 C 89.9792 % 14.24 C
1222 28-08-2013 00:00:00 15.65312 C 87.5035 % 13.59 C
1223 29-08-2013 00:00:00 14.74062 C 90.2153 % 13.15 C
1224 30-08-2013 00:00:00 15.73924 C 87.8472 % 13.73 C
1225 31-08-2013 00:00:00 16.33229 C 86.2986 % 14.04 C
Sensor: Nr:Datum:Temp:Feuchte:Taupunkt:
Aussen-T/F 1226 01-09-2013 00:00:00 14.50938 C 73.5035 % 9.83 C
1227 02-09-2013 00:00:00 17.48924 C 69.9375 % 11.95 C
1228 03-09-2013 00:00:00 18.08299 C 80.6319 % 14.7 C
1229 04-09-2013 00:00:00 17.74583 C 85.1701 % 15.22 C
1230 05-09-2013 00:00:00 18.47349 C 84.5181 % 15.82 C
1231 06-09-2013 00:00:00 22.68615 C 74.2769 % 17.87 C
1232 07-09-2013 00:00:00 18.36354 C 91.5208 % 16.96 C
1233 08-09-2013 00:00:00 14.78542 C 93.9097 % 13.81 C
1234 09-09-2013 00:00:00 14.16944 C 86.9965 % 12.04 C
1235 10-09-2013 00:00:00 13.35073 C 82.4891 % 10.43 C
1236 11-09-2013 00:00:00 13.00912 C 87.8066 % 11.04 C
1237 12-09-2013 00:00:00 13.53472 C 92.7535 % 12.39 C
1238 13-09-2013 00:00:00 14.67363 C 88.3553 % 12.77 C
1239 14-09-2013 00:00:00 15.8191 C 93.1007 % 14.71 C
1240 15-09-2013 00:00:00 14.41667 C 87.2500 % 12.33 C
1241 16-09-2013 00:00:00 13.23333 C 81.3229 % 10.11 C
1242 17-09-2013 00:00:00 10.58958 C 82.5833 % 7.75 C
1243 18-09-2013 00:00:00 12.57951 C 92.8750 % 11.46 C
1244 19-09-2013 00:00:00 11.89444 C 86.6076 % 9.73 C
1245 20-09-2013 00:00:00 13.91806 C 85.7778 % 11.58 C
1246 21-09-2013 00:00:00 12.20868 C 91.0000 % 10.78 C
1247 22-09-2013 00:00:00 13.3788 C 90.7668 % 11.9 C
1248 23-09-2013 00:00:00 15.46493 C 89.1076 % 13.68 C
1249 24-09-2013 00:00:00 12.34792 C 94.6979 % 11.52 C
1250 25-09-2013 00:00:00 14.08646 C 94.5347 % 13.22 C
Sensor: Nr:Datum:Temp:Feuchte:Taupunkt:
Aussen-T/F 1251 26-09-2013 00:00:00 14.58924 C 91.1389 % 13.16 C
1252 27-09-2013 00:00:00 11.25312 C 89.0660 % 9.52 C
1253 28-09-2013 00:00:00 10.575 C 88.4286 % 8.74 C
1254 29-09-2013 00:00:00 11.89028 C 85.1667 % 9.48 C
1255 30-09-2013 00:00:00 9.80833 C 87.1910 % 7.78 C
1256 01-10-2013 00:00:00 11.38264 C 80.5903 % 8.17 C
1257 02-10-2013 00:00:00 9.01493 C 82.1111 % 6.13 C
1258 03-10-2013 00:00:00 8.84479 C 80.9549 % 5.76 C
1259 04-10-2013 00:00:00 11.33993 C 91.6215 % 10.03 C
1260 05-10-2013 00:00:00 12.69583 C 97.5486 % 12.32 C
1261 06-10-2013 00:00:00 13.60313 C 92.6910 % 12.44 C
1262 07-10-2013 00:00:00 13.21667 C 94.6806 % 12.38 C
1263 08-10-2013 00:00:00 13.44791 C 95.3505 % 12.72 C
1264 09-10-2013 00:00:00 13.86667 C 91.5938 % 12.52 C
1265 10-10-2013 00:00:00 8.4625 C 94.6285 % 7.65 C
1266 11-10-2013 00:00:00 6.86042 C 97.1285 % 6.44 C
1267 12-10-2013 00:00:00 6.31215 C 95.1910 % 5.6 C
1268 13-10-2013 00:00:00 7.69167 C 90.0208 % 6.16 C
1269 14-10-2013 00:00:00 9.89091 C 92.2182 % 8.69 C
1270 15-10-2013 00:00:00 10.43275 C 94.2113 % 9.54 C
1271 16-10-2013 00:00:00 10.04523 C 95.8799 % 9.42 C
1272 17-10-2013 00:00:00 12.70972 C 88.6771 % 10.89 C
1273 18-10-2013 00:00:00 11.80868 C 95.7083 % 11.15 C
1274 19-10-2013 00:00:00 11.72702 C 95.4877 % 11.03 C
1275 20-10-2013 00:00:00 15.28507 C 93.8021 % 14.29 C
Sensor: Nr:Datum:Temp:Feuchte:Taupunkt:
Aussen-T/F 1276 21-10-2013 00:00:00 15.075 C 89.9861 % 13.45 C
1277 22-10-2013 00:00:00 15.7614 C 91.7404 % 14.42 C
1278 23-10-2013 00:00:00 15.81476 C 92.6790 % 14.63 C
1279 24-10-2013 00:00:00 13.67431 C 95.5069 % 12.97 C
1280 25-10-2013 00:00:00 13.01701 C 96.8958 % 12.54 C
1281 26-10-2013 00:00:00 16.41144 C 95.1808 % 15.64 C
1282 27-10-2013 00:00:00 14.94896 C 83.9028 % 12.25 C
1283 28-10-2013 00:00:00 15.40962 C 78.1385 % 11.62 C
1284 29-10-2013 00:00:00 11.12569 C 77.4901 % 7.34 C
1285 30-10-2013 00:00:00 7.81825 C 86.6702 % 5.74 C
1286 31-10-2013 00:00:00 5.27708 C 94.3854 % 4.45 C
1287 01-11-2013 00:00:00 9.4316 C 89.5208 % 7.8 C
1288 02-11-2013 00:00:00 12.79889 C 90.4354 % 11.27 C
1289 03-11-2013 00:00:00 9.93611 C 83.6701 % 7.31 C
1290 04-11-2013 00:00:00 9.80526 C 87.0912 % 7.76 C
1291 05-11-2013 00:00:00 6.72153 C 87.5556 % 4.81 C
1292 06-11-2013 00:00:00 10.70215 C 88.7348 % 8.92 C
1293 07-11-2013 00:00:00 15.04132 C 84.5243 % 12.46 C
1294 08-11-2013 00:00:00 11.92093 C 93.0372 % 10.83 C
1295 09-11-2013 00:00:00 9.48785 C 80.9931 % 6.39 C
1296 10-11-2013 00:00:00 6.68715 C 90.9653 % 5.32 C
1297 11-11-2013 00:00:00 4.00764 C 96.3542 % 3.48 C
1298 12-11-2013 00:00:00 4.41146 C 93.7951 % 3.5 C
1299 13-11-2013 00:00:00 6.28491 C 93.5579 % 5.32 C
1300 14-11-2013 00:00:00 3.2816 C 95.0833 % 2.57 C
Sensor: Nr:Datum:Temp:Feuchte:Taupunkt:
Aussen-T/F 1301 15-11-2013 00:00:00 4.99201 C 90.5035 % 3.57 C
1302 16-11-2013 00:00:00 3.05 C 91.8507 % 1.86 C
1303 17-11-2013 00:00:00 3.2184 C 94.6285 % 2.44 C
1304 18-11-2013 00:00:00 5.38287 C 94.0916 % 4.51 C
1305 19-11-2013 00:00:00 6.22 C 91.5647 % 4.95 C
1306 20-11-2013 00:00:00 3.96643 C 91.7483 % 2.75 C
1307 21-11-2013 00:00:00 4.05603 C 89.4310 % 2.48 C
1308 22-11-2013 00:00:00 4.42 C 86.5545 % 2.38 C
1309 23-11-2013 00:00:00 7.03092 C 87.0000 % 5.02 C
1310 24-11-2013 00:00:00 5.71435 C 88.4739 % 3.96 C
1311 25-11-2013 00:00:00 2.65439 C 93.3216 % 1.69 C
1312 26-11-2013 00:00:00 0.53125 C 94.5590 % -0.24 C
1313 27-11-2013 00:00:00 0.63854 C 92.5035 % -0.43 C
1314 28-11-2013 00:00:00 3.45709 C 94.3022 % 2.63 C
1315 29-11-2013 00:00:00 5.6434 C 91.5833 % 4.38 C
1316 30-11-2013 00:00:00 4.32604 C 93.7951 % 3.42 C
1317 01-12-2013 00:00:00 5.01254 C 94.7178 % 4.24 C
1318 02-12-2013 00:00:00 4.76458 C 93.0486 % 3.74 C
1319 03-12-2013 00:00:00 -0.45729 C 97.1806 % -0.85 C
1320 04-12-2013 00:00:00 3.27917 C 91.8924 % 2.09 C
1321 05-12-2013 00:00:00 3.93475 C 87.9291 % 2.12 C
1322 06-12-2013 00:00:00 3.76181 C 74.9583 % -0.26 C
1323 07-12-2013 00:00:00 4.38715 C 85.8194 % 2.23 C
1324 08-12-2013 00:00:00 6.92188 C 87.3785 % 4.97 C
1325 09-12-2013 00:00:00 6.42222 C 84.1806 % 3.95 C
Sensor: Nr:Datum:Temp:Feuchte:Taupunkt:
Aussen-T/F 1326 10-12-2013 00:00:00 3.24896 C 95.9236 % 2.66 C
1327 11-12-2013 00:00:00 3.72465 C 96.5903 % 3.23 C
1328 12-12-2013 00:00:00 4.08993 C 92.2118 % 2.94 C
1329 13-12-2013 00:00:00 2.65694 C 90.5313 % 1.27 C
1330 14-12-2013 00:00:00 3.58986 C 92.6923 % 2.52 C
1331 15-12-2013 00:00:00 4.99688 C 85.9340 % 2.84 C
1332 16-12-2013 00:00:00 1.49676 C 94.6511 % 0.73 C
1333 17-12-2013 00:00:00 1.25451 C 95.3924 % 0.6 C
1334 18-12-2013 00:00:00 4.19965 C 94.2153 % 3.35 C
1335 19-12-2013 00:00:00 8.13715 C 88.2813 % 6.32 C
1336 20-12-2013 00:00:00 4.38403 C 92.2708 % 3.24 C
1337 21-12-2013 00:00:00 4.81354 C 81.8229 % 1.98 C
1338 22-12-2013 00:00:00 8.81493 C 82.7222 % 6.04 C
1339 23-12-2013 00:00:00 8.42341 C 85.6230 % 6.16 C
1340 24-12-2013 00:00:00 11.57579 C 73.6140 % 7.03 C
1341 25-12-2013 00:00:00 8.41944 C 92.4444 % 7.27 C
1342 26-12-2013 00:00:00 6.06579 C 94.8195 % 5.3 C
1343 27-12-2013 00:00:00 6.6549 C 85.1608 % 4.34 C
1344 28-12-2013 00:00:00 9.14444 C 90.1181 % 7.61 C
1345 29-12-2013 00:00:00 4.76463 C 93.9695 % 3.88 C
1346 30-12-2013 00:00:00 4.17107 C 89.7934 % 2.65 C
1347 31-12-2013 00:00:00 2.91045 C 89.5522 % 1.37 C
1348 01-01-2014 00:00:00 6.46912 C 86.4737 % 4.38 C
1349 02-01-2014 00:00:00 8.31947 C 88.5649 % 6.54 C
1350 03-01-2014 00:00:00 8.74861 C 86.5347 % 6.63 C
Sensor: Nr:Datum:Temp:Feuchte:Taupunkt:
Aussen-T/F 1351 04-01-2014 00:00:00 7.47049 C 88.5833 % 5.71 C
1352 05-01-2014 00:00:00 6.13111 C 91.4622 % 4.85 C
1353 06-01-2014 00:00:00 8.33819 C 89.1736 % 6.66 C
1354 07-01-2014 00:00:00 10.72882 C 85.7708 % 8.45 C
1355 08-01-2014 00:00:00 10.3965 C 86.9027 % 8.31 C
1356 09-01-2014 00:00:00 9.27876 C 85.9961 % 7.06 C
1357 10-01-2014 00:00:00 5.59896 C 86.9757 % 3.61 C
1358 11-01-2014 00:00:00 3.80382 C 93.2049 % 2.81 C
1359 12-01-2014 00:00:00 0.34545 C 97.0618 % -0.06 C
1360 13-01-2014 00:00:00 3.73194 C 95.9965 % 3.15 C
1361 14-01-2014 00:00:00 5.06036 C 94.4536 % 4.25 C
1362 15-01-2014 00:00:00 4.1934 C 91.9444 % 3 C
1363 16-01-2014 00:00:00 6.5375 C 93.3160 % 5.54 C
1364 17-01-2014 00:00:00 6.75 C 92.8021 % 5.67 C
1365 18-01-2014 00:00:00 4.5321 C 90.4686 % 3.11 C
1366 19-01-2014 00:00:00 4.621 C 92.0569 % 3.44 C
1367 20-01-2014 00:00:00 4.32836 C 94.6567 % 3.55 C
1368 21-01-2014 00:00:00 3.49792 C 93.6632 % 2.58 C
1369 22-01-2014 00:00:00 3.18571 C 95.3022 % 2.51 C
1370 23-01-2014 00:00:00 3.72927 C 92.3049 % 2.6 C
1371 24-01-2014 00:00:00 3.90268 C 93.5670 % 2.96 C
1372 25-01-2014 00:00:00 2.8165 C 94.8000 % 2.07 C
1373 26-01-2014 00:00:00 5.11851 C 83.3630 % 2.54 C
1374 27-01-2014 00:00:00 4.4199 C 87.2094 % 2.48 C
1375 28-01-2014 00:00:00 2.36869 C 88.8889 % 0.73 C
Sensor: Nr:Datum:Temp:Feuchte:Taupunkt:
Aussen-T/F 1376 29-01-2014 00:00:00 1.54036 C 85.8253 % -0.57 C
1377 30-01-2014 00:00:00 1.98611 C 84.2049 % -0.39 C
1378 31-01-2014 00:00:00 1.03819 C 91.0799 % -0.25 C
1379 01-02-2014 00:00:00 4.63819 C 89.8646 % 3.12 C
1380 02-02-2014 00:00:00 4.14306 C 90.0729 % 2.66 C
1381 03-02-2014 00:00:00 1.00938 C 95.5486 % 0.38 C
1382 04-02-2014 00:00:00 4.28785 C 89.7083 % 2.75 C
1383 05-02-2014 00:00:00 4.74236 C 89.7049 % 3.2 C
1384 06-02-2014 00:00:00 8.42431 C 76.6181 % 4.56 C
1385 07-02-2014 00:00:00 8.79132 C 78.4410 % 5.25 C
1386 08-02-2014 00:00:00 6.5309 C 83.7222 % 3.98 C
1387 09-02-2014 00:00:00 5.34375 C 80.9306 % 2.34 C
1388 10-02-2014 00:00:00 3.38819 C 87.2500 % 1.48 C
1389 11-02-2014 00:00:00 5.41354 C 82.3819 % 2.66 C
1390 12-02-2014 00:00:00 5.44028 C 81.1319 % 2.47 C
1391 13-02-2014 00:00:00 5.71771 C 88.4479 % 3.96 C
1392 14-02-2014 00:00:00 5.64722 C 85.6979 % 3.44 C
1393 15-02-2014 00:00:00 9.70669 C 79.3415 % 6.31 C
1394 16-02-2014 00:00:00 7.36493 C 80.5694 % 4.25 C
1395 17-02-2014 00:00:00 3.59861 C 91.7118 % 2.38 C
1396 18-02-2014 00:00:00 3.38715 C 94.0590 % 2.52 C
1397 19-02-2014 00:00:00 7.825 C 84.9722 % 5.46 C
1398 20-02-2014 00:00:00 8.68958 C 82.6215 % 5.9 C
1399 21-02-2014 00:00:00 7.64062 C 84.5451 % 5.21 C
1400 22-02-2014 00:00:00 4.99861 C 87.1563 % 3.05 C
Sensor: Nr:Datum:Temp:Feuchte:Taupunkt:
Aussen-T/F 1401 23-02-2014 00:00:00 5.94204 C 83.6694 % 3.39 C
1402 24-02-2014 00:00:00 5.86389 C 80.9444 % 2.85 C
1403 25-02-2014 00:00:00 6.68681 C 82.1910 % 3.87 C
1404 26-02-2014 00:00:00 8.58182 C 81.5382 % 5.61 C
1405 27-02-2014 00:00:00 5.86275 C 84.1961 % 3.41 C
1406 28-02-2014 00:00:00 6.2146 C 87.8248 % 4.35 C
1407 01-03-2014 00:00:00 5.44375 C 88.4410 % 3.69 C
1408 02-03-2014 00:00:00 3.55069 C 87.5208 % 1.68 C
1409 03-03-2014 00:00:00 5.27743 C 86.6458 % 3.24 C
1410 04-03-2014 00:00:00 4.21701 C 86.7118 % 2.2 C
1411 05-03-2014 00:00:00 4.68235 C 86.5059 % 2.63 C
1412 06-03-2014 00:00:00 3.87951 C 89.4306 % 2.3 C
1413 07-03-2014 00:00:00 6.23037 C 80.7383 % 3.17 C
1414 08-03-2014 00:00:00 7.3847 C 80.0427 % 4.18 C
1415 09-03-2014 00:00:00 7.27263 C 76.4772 % 3.42 C
1416 10-03-2014 00:00:00 7.44444 C 75.5035 % 3.41 C
1417 11-03-2014 00:00:00 8.4184 C 78.6424 % 4.93 C
1418 12-03-2014 00:00:00 9.07812 C 74.1354 % 4.72 C
1419 13-03-2014 00:00:00 8.16007 C 73.3681 % 3.69 C
1420 14-03-2014 00:00:00 7.91944 C 76.8993 % 4.12 C
1421 15-03-2014 00:00:00 8.97326 C 77.3021 % 5.22 C
1422 16-03-2014 00:00:00 11.50486 C 77.2500 % 7.67 C
1423 17-03-2014 00:00:00 10.27882 C 81.5486 % 7.27 C
1424 18-03-2014 00:00:00 9.4066 C 83.2882 % 6.72 C
1425 19-03-2014 00:00:00 12.2875 C 70.5521 % 7.1 C
Sensor: Nr:Datum:Temp:Feuchte:Taupunkt:
Aussen-T/F 1426 20-03-2014 00:00:00 12.49333 C 67.2772 % 6.6 C
1427 21-03-2014 00:00:00 13.1375 C 66.5069 % 7.05 C
1428 22-03-2014 00:00:00 8.65208 C 83.0799 % 5.95 C
1429 23-03-2014 00:00:00 6.03507 C 81.4861 % 3.11 C
1430 24-03-2014 00:00:00 5.42632 C 80.7404 % 2.39 C
1431 25-03-2014 00:00:00 4.1625 C 82.4271 % 1.44 C
1432 26-03-2014 00:00:00 4.56076 C 78.8125 % 1.21 C
1433 27-03-2014 00:00:00 8.14604 C 73.6475 % 3.73 C
1434 28-03-2014 00:00:00 10.60972 C 66.4167 % 4.62 C
1435 29-03-2014 00:00:00 10.34963 C 70.5809 % 5.24 C
1436 30-03-2014 00:00:00 9.15619 C 76.1429 % 5.18 C
1437 31-03-2014 00:00:00 12.96562 C 65.8924 % 6.75 C
1438 01-04-2014 00:00:00 13.77519 C 67.7366 % 7.92 C
1439 02-04-2014 00:00:00 13.90458 C 68.9754 % 8.31 C
1440 03-04-2014 00:00:00 12.54324 C 77.5811 % 8.74 C
1441 04-04-2014 00:00:00 14.95971 C 74.9173 % 10.55 C
1442 05-04-2014 00:00:00 13.00531 C 86.2612 % 10.77 C
1443 06-04-2014 00:00:00 11.67782 C 83.0879 % 8.91 C
1444 07-04-2014 00:00:00 15.95041 C 75.4713 % 11.62 C
1445 08-04-2014 00:00:00 12.18521 C 67.1585 % 6.28 C
1446 09-04-2014 00:00:00 9.27426 C 75.9154 % 5.25 C
1447 10-04-2014 00:00:00 10.31543 C 77.0864 % 6.48 C
1448 11-04-2014 00:00:00 14.56849 C 72.5000 % 9.69 C
1449 12-04-2014 00:00:00 12.65368 C 70.8982 % 7.52 C
1450 13-04-2014 00:00:00 11.60669 C 71.0599 % 6.55 C
Sensor: Nr:Datum:Temp:Feuchte:Taupunkt:
Aussen-T/F 1451 14-04-2014 00:00:00 9.7593 C 71.2491 % 4.81 C
1452 15-04-2014 00:00:00 7.10171 C 73.7991 % 2.75 C
1453 16-04-2014 00:00:00 12.97192 C 49.4521 % 2.65 C
1454 17-04-2014 00:00:00 9.85313 C 63.3021 % 3.22 C
1455 18-04-2014 00:00:00 10.72049 C 64.8750 % 4.39 C
1456 19-04-2014 00:00:00 10.82049 C 71.8993 % 5.96 C
1457 20-04-2014 00:00:00 14.91825 C 70.5509 % 9.62 C
1458 21-04-2014 00:00:00 12.49479 C 77.9896 % 8.77 C
1459 22-04-2014 00:00:00 12.82847 C 85.6076 % 10.48 C
1460 23-04-2014 00:00:00 13.43958 C 81.1771 % 10.28 C
1461 24-04-2014 00:00:00 15.42535 C 79.0035 % 11.8 C
1462 25-04-2014 00:00:00 16.71562 C 74.1319 % 12.09 C
1463 26-04-2014 00:00:00 15.2 C 74.7604 % 10.75 C
1464 27-04-2014 00:00:00 13.07674 C 81.7986 % 10.04 C
1465 28-04-2014 00:00:00 12.80243 C 79.8715 % 9.42 C
1466 29-04-2014 00:00:00 13.43403 C 90.3056 % 11.88 C
1467 30-04-2014 00:00:00 14.53507 C 84.7500 % 12 C
1468 01-05-2014 00:00:00 14.73611 C 81.3611 % 11.58 C
1469 02-05-2014 00:00:00 11.71319 C 86.6736 % 9.57 C
1470 03-05-2014 00:00:00 10.92708 C 61.0069 % 3.71 C
1471 04-05-2014 00:00:00 9.61042 C 68.0590 % 4.02 C
1472 05-05-2014 00:00:00 12.60069 C 67.5521 % 6.76 C
1473 06-05-2014 00:00:00 13.72083 C 74.2778 % 9.23 C
1474 07-05-2014 00:00:00 13.05764 C 84.9931 % 10.6 C
1475 08-05-2014 00:00:00 12.32847 C 84.6146 % 9.81 C
Sensor: Nr:Datum:Temp:Feuchte:Taupunkt:
Aussen-T/F 1476 09-05-2014 00:00:00 15.33403 C 71.0833 % 10.13 C
1477 10-05-2014 00:00:00 12.40903 C 81.6528 % 9.36 C
1478 11-05-2014 00:00:00 11.45764 C 80.1667 % 8.16 C
1479 12-05-2014 00:00:00 11.1941 C 74.9167 % 6.92 C
1480 13-05-2014 00:00:00 10.30729 C 85.3368 % 7.96 C
1481 14-05-2014 00:00:00 10.63542 C 76.9514 % 6.77 C
1482 15-05-2014 00:00:00 10.00382 C 80.4757 % 6.8 C
1483 16-05-2014 00:00:00 13.25347 C 73.1250 % 8.55 C
1484 17-05-2014 00:00:00 14.22292 C 71.7500 % 9.2 C
1485 18-05-2014 00:00:00 15.4809 C 74.3021 % 10.93 C
1486 19-05-2014 00:00:00 17.57188 C 70.6944 % 12.19 C
1487 20-05-2014 00:00:00 19.46562 C 67.3681 % 13.26 C
1488 21-05-2014 00:00:00 20.29792 C 68.1181 % 14.23 C
1489 22-05-2014 00:00:00 20.21806 C 65.7465 % 13.61 C
1490 23-05-2014 00:00:00 15.52639 C 89.6667 % 13.84 C
1491 24-05-2014 00:00:00 14.72993 C 81.1514 % 11.53 C
1492 25-05-2014 00:00:00 15.25071 C 74.9149 % 10.83 C
1493 26-05-2014 00:00:00 16.8625 C 80.3056 % 13.45 C
1494 27-05-2014 00:00:00 15.19431 C 94.7346 % 14.36 C
1495 28-05-2014 00:00:00 14.58118 C 88.4000 % 12.69 C
1496 29-05-2014 00:00:00 13.44653 C 87.1042 % 11.35 C
1497 30-05-2014 00:00:00 13.2316 C 70.4167 % 7.97 C
1498 31-05-2014 00:00:00 13.40382 C 74.2639 % 8.92 C
1499 01-06-2014 00:00:00 15.49273 C 69.6545 % 9.98 C
1500 02-06-2014 00:00:00 15.88943 C 67.9715 % 9.99 C
Sensor: Nr:Datum:Temp:Feuchte:Taupunkt:
Aussen-T/F 1501 03-06-2014 00:00:00 15.78662 C 74.8627 % 11.34 C
1502 04-06-2014 00:00:00 14.95388 C 86.4155 % 12.71 C
1503 05-06-2014 00:00:00 14.55765 C 67.7687 % 8.68 C
1504 06-06-2014 00:00:00 17.20312 C 67.7778 % 11.2 C
1505 07-06-2014 00:00:00 20.77257 C 72.3750 % 15.62 C
1506 08-06-2014 00:00:00 24.09514 C 70.7431 % 18.45 C
1507 09-06-2014 00:00:00 25.74583 C 69.9583 % 19.85 C
1508 10-06-2014 00:00:00 23.66632 C 70.6389 % 18.01 C
1509 11-06-2014 00:00:00 20.10803 C 81.3175 % 16.81 C
1510 12-06-2014 00:00:00 19.97431 C 66.4583 % 13.54 C
1511 13-06-2014 00:00:00 18.37014 C 68.1597 % 12.4 C
1512 14-06-2014 00:00:00 17.27465 C 65.5104 % 10.76 C
1513 15-06-2014 00:00:00 16.86944 C 67.1875 % 10.75 C
1514 16-06-2014 00:00:00 15.61944 C 74.7396 % 11.15 C
1515 17-06-2014 00:00:00 17.41354 C 66.8819 % 11.2 C
1516 18-06-2014 00:00:00 17.76319 C 71.4931 % 12.54 C
1517 19-06-2014 00:00:00 15.70791 C 75.5252 % 11.4 C
1518 20-06-2014 00:00:00 15.64143 C 71.1667 % 10.44 C
1519 21-06-2014 00:00:00 16.62118 C 65.5903 % 10.15 C
1520 22-06-2014 00:00:00 16.62782 C 66.3415 % 10.33 C
1521 23-06-2014 00:00:00 17.14792 C 65.1910 % 10.56 C
1522 24-06-2014 00:00:00 16.64978 C 71.6277 % 11.5 C
1523 25-06-2014 00:00:00 17.29096 C 56.5426 % 8.58 C
1524 26-06-2014 00:00:00 16.18958 C 64.0764 % 9.4 C
1525 27-06-2014 00:00:00 17.54167 C 67.2604 % 11.41 C
Sensor: Nr:Datum:Temp:Feuchte:Taupunkt:
Aussen-T/F 1526 28-06-2014 00:00:00 16.28043 C 87.3950 % 14.18 C
1527 29-06-2014 00:00:00 14.67192 C 93.3251 % 13.61 C
1528 30-06-2014 00:00:00 16.05247 C 75.2167 % 11.67 C
1529 01-07-2014 00:00:00 15.65035 C 70.2917 % 10.26 C
1530 02-07-2014 00:00:00 16.86146 C 65.5313 % 10.37 C
1531 03-07-2014 00:00:00 19.78889 C 59.6493 % 11.72 C
1532 04-07-2014 00:00:00 20.36076 C 67.5382 % 14.16 C
1533 05-07-2014 00:00:00 20.4 C 77.3439 % 16.3 C
1534 06-07-2014 00:00:00 23.48509 C 69.7818 % 17.65 C
1535 07-07-2014 00:00:00 19.86367 C 64.8202 % 13.05 C
1536 08-07-2014 00:00:00 15.57633 C 89.8898 % 13.92 C
1537 09-07-2014 00:00:00 12.97083 C 95.1667 % 12.22 C
1538 10-07-2014 00:00:00 17.68292 C 90.2000 % 16.06 C
1539 11-07-2014 00:00:00 18.42369 C 88.6466 % 16.51 C
1540 12-07-2014 00:00:00 18.68363 C 88.1018 % 16.67 C
1541 13-07-2014 00:00:00 19.06941 C 85.5922 % 16.6 C
1542 14-07-2014 00:00:00 19.60206 C 79.5021 % 15.96 C
1543 15-07-2014 00:00:00 21.3216 C 70.6901 % 15.78 C
1544 16-07-2014 00:00:00 21.88732 C 74.8829 % 17.23 C
1545 17-07-2014 00:00:00 23.77903 C 70.2742 % 18.04 C
1546 18-07-2014 00:00:00 24.87935 C 65.5097 % 17.97 C
1547 19-07-2014 00:00:00 27.76989 C 58.4086 % 18.86 C
1548 20-07-2014 00:00:00 22.68715 C 80.6840 % 19.19 C
1549 21-07-2014 00:00:00 20.29965 C 91.0660 % 18.79 C
1550 22-07-2014 00:00:00 23.6856 C 82.0494 % 20.44 C
Sensor: Nr:Datum:Temp:Feuchte:Taupunkt:
Aussen-T/F 1551 23-07-2014 00:00:00 23.11788 C 73.8869 % 18.2 C
1552 24-07-2014 00:00:00 20.63922 C 73.5020 % 15.74 C
1553 25-07-2014 00:00:00 21.8193 C 72.9825 % 16.76 C
1554 26-07-2014 00:00:00 21.92 C 74.3097 % 17.14 C
1555 27-07-2014 00:00:00 19.66694 C 83.9339 % 16.88 C
1556 28-07-2014 00:00:00 22.3284 C 78.8580 % 18.48 C
1557 29-07-2014 00:00:00 19.88194 C 95.8125 % 19.19 C
1558 30-07-2014 00:00:00 19.93194 C 85.4097 % 17.41 C
1559 31-07-2014 00:00:00 20.20645 C 77.0896 % 16.06 C
1560 01-08-2014 00:00:00 20.08438 C 81.7153 % 16.86 C
1561 02-08-2014 00:00:00 20.10868 C 84.8264 % 17.48 C
1562 03-08-2014 00:00:00 21.3566 C 81.2743 % 18.02 C
1563 04-08-2014 00:00:00 19.00347 C 86.5799 % 16.71 C
1564 05-08-2014 00:00:00 18.77049 C 82.0208 % 15.64 C
1565 06-08-2014 00:00:00 17.59618 C 84.4201 % 14.94 C
1566 07-08-2014 00:00:00 18.9934 C 85.7986 % 16.56 C
1567 08-08-2014 00:00:00 18.87604 C 89.5625 % 17.12 C
1568 09-08-2014 00:00:00 20.16771 C 80.6076 % 16.73 C
1569 10-08-2014 00:00:00 19.0125 C 90.0208 % 17.34 C
1570 11-08-2014 00:00:00 17.0066 C 81.0000 % 13.72 C
1571 12-08-2014 00:00:00 17.62431 C 72.1944 % 12.56 C
1572 13-08-2014 00:00:00 15.97674 C 89.6528 % 14.28 C
1573 14-08-2014 00:00:00 16.15426 C 84.3298 % 13.51 C
1574 15-08-2014 00:00:00 14.48638 C 92.1720 % 13.23 C
1575 16-08-2014 00:00:00 15.13439 C 89.3930 % 13.4 C
Sensor: Nr:Datum:Temp:Feuchte:Taupunkt:
Aussen-T/F 1576 17-08-2014 00:00:00 16.14062 C 77.5243 % 12.21 C
1577 18-08-2014 00:00:00 16.30417 C 74.5313 % 11.77 C
1578 19-08-2014 00:00:00 13.79653 C 83.4410 % 11.04 C
1579 20-08-2014 00:00:00 12.68681 C 83.0799 % 9.89 C
1580 21-08-2014 00:00:00 12.84653 C 82.9965 % 10.03 C
1581 22-08-2014 00:00:00 14.04062 C 78.5000 % 10.36 C
1582 23-08-2014 00:00:00 14.26875 C 83.3194 % 11.48 C
1583 24-08-2014 00:00:00 11.58993 C 93.2465 % 10.54 C
1584 25-08-2014 00:00:00 13.23854 C 93.7743 % 12.26 C
1585 26-08-2014 00:00:00 14.79479 C 96.8681 % 14.3 C
1586 27-08-2014 00:00:00 15.38741 C 91.3237 % 13.98 C
1587 28-08-2014 00:00:00 15.84062 C 93.0556 % 14.72 C
1588 29-08-2014 00:00:00 18.05278 C 88.6979 % 16.16 C
1589 30-08-2014 00:00:00 16.23299 C 90.9965 % 14.76 C
1590 31-08-2014 00:00:00 14.70069 C 92.8125 % 13.55 C
1591 01-09-2014 00:00:00 14.60556 C 91.4896 % 13.24 C
1592 02-09-2014 00:00:00 14.6191 C 90.6771 % 13.11 C
1593 03-09-2014 00:00:00 15.03299 C 89.9549 % 13.4 C
1594 04-09-2014 00:00:00 16.74028 C 89.6910 % 15.04 C
1595 05-09-2014 00:00:00 18.15903 C 91.3819 % 16.73 C
1596 06-09-2014 00:00:00 17.4559 C 92.7604 % 16.27 C
1597 07-09-2014 00:00:00 18.08889 C 88.1264 % 16.09 C
1598 08-09-2014 00:00:00 17.83403 C 84.0833 % 15.11 C
1599 09-09-2014 00:00:00 15.64965 C 81.4410 % 12.48 C
1600 10-09-2014 00:00:00 14.27882 C 83.4132 % 11.51 C
Sensor: Nr:Datum:Temp:Feuchte:Taupunkt:
Aussen-T/F 1601 11-09-2014 00:00:00 14.96111 C 83.0903 % 12.12 C
1602 12-09-2014 00:00:00 14.12153 C 84.7257 % 11.59 C
1603 13-09-2014 00:00:00 16.12118 C 88.7743 % 14.27 C
1604 14-09-2014 00:00:00 16.65196 C 88.0641 % 14.67 C
1605 15-09-2014 00:00:00 16.079 C 91.5516 % 14.7 C
1606 16-09-2014 00:00:00 16.93264 C 90.1458 % 15.31 C
1607 17-09-2014 00:00:00 16.05139 C 92.2118 % 14.79 C
1608 18-09-2014 00:00:00 17.4875 C 95.6215 % 16.78 C
1609 19-09-2014 00:00:00 18.38993 C 95.2708 % 17.62 C
1610 20-09-2014 00:00:00 17.14931 C 96.4583 % 16.58 C
1611 21-09-2014 00:00:00 15.46146 C 95.3090 % 14.71 C
1612 22-09-2014 00:00:00 12.53194 C 86.3194 % 10.31 C
1613 23-09-2014 00:00:00 9.91146 C 90.8993 % 8.5 C
1614 24-09-2014 00:00:00 11.10451 C 89.8056 % 9.5 C
1615 25-09-2014 00:00:00 13.67917 C 85.6806 % 11.33 C
1616 26-09-2014 00:00:00 14.24896 C 88.9653 % 12.46 C
1617 27-09-2014 00:00:00 15.59965 C 91.2743 % 14.18 C
1618 28-09-2014 00:00:00 14.22743 C 95.0660 % 13.45 C
1619 29-09-2014 00:00:00 15.41493 C 94.8472 % 14.59 C
1620 30-09-2014 00:00:00 16.83438 C 93.1875 % 15.73 C
1621 01-10-2014 00:00:00 15.87778 C 94.6389 % 15.02 C
1622 02-10-2014 00:00:00 14.35799 C 95.7326 % 13.69 C
1623 03-10-2014 00:00:00 13.73785 C 95.4063 % 13.02 C
1624 04-10-2014 00:00:00 12.86979 C 93.2014 % 11.8 C
1625 05-10-2014 00:00:00 12.94097 C 94.0799 % 12.01 C
Sensor: Nr:Datum:Temp:Feuchte:Taupunkt:
Aussen-T/F 1626 06-10-2014 00:00:00 14.3 C 90.3750 % 12.75 C
1627 07-10-2014 00:00:00 13.71806 C 92.2986 % 12.49 C
1628 08-10-2014 00:00:00 13.3 C 97.6069 % 12.93 C
1629 09-10-2014 00:00:00 15.17173 C 97.6859 % 14.81 C
1630 10-10-2014 00:00:00 14.20902 C 96.4000 % 13.64 C
1631 11-10-2014 00:00:00 14.77847 C 96.0347 % 14.15 C
1632 12-10-2014 00:00:00 12.52744 C 95.6029 % 11.84 C
1633 13-10-2014 00:00:00 14.72014 C 96.7569 % 14.21 C
1634 14-10-2014 00:00:00 12.54495 C 95.1847 % 11.8 C
1635 15-10-2014 00:00:00 11.65639 C 95.3910 % 10.94 C
1636 16-10-2014 00:00:00 14.02682 C 94.9818 % 13.24 C
1637 17-10-2014 00:00:00 14.05977 C 93.7854 % 13.07 C
1638 18-10-2014 00:00:00 12.49887 C 97.7283 % 12.15 C
1639 19-10-2014 00:00:00 15.09722 C 92.7188 % 13.93 C
1640 20-10-2014 00:00:00 15.06015 C 83.9885 % 12.38 C
1641 21-10-2014 00:00:00 11.78491 C 85.1649 % 9.38 C
1642 22-10-2014 00:00:00 8.88438 C 85.2674 % 6.55 C
1643 23-10-2014 00:00:00 10.3816 C 87.9444 % 8.47 C
1644 24-10-2014 00:00:00 10.59097 C 90.2951 % 9.07 C
1645 25-10-2014 00:00:00 11.53056 C 94.5417 % 10.69 C
1646 26-10-2014 00:00:00 11.35625 C 95.5278 % 10.67 C
1647 27-10-2014 00:00:00 9.22813 C 96.0903 % 8.64 C
1648 28-10-2014 00:00:00 7.93681 C 88.3750 % 6.14 C
1649 29-10-2014 00:00:00 9.50556 C 91.5347 % 8.2 C
1650 30-10-2014 00:00:00 12.10625 C 96.8819 % 11.63 C
Sensor: Nr:Datum:Temp:Feuchte:Taupunkt:
Aussen-T/F 1651 31-10-2014 00:00:00 12.05903 C 97.0694 % 11.61 C
1652 01-11-2014 00:00:00 10.92674 C 98.2674 % 10.66 C
1653 02-11-2014 00:00:00 11.24448 C 97.2776 % 10.83 C
1654 03-11-2014 00:00:00 13.84028 C 90.1806 % 12.26 C
1655 04-11-2014 00:00:00 11.22049 C 96.5521 % 10.69 C
1656 05-11-2014 00:00:00 9.33229 C 95.2257 % 8.61 C
1657 06-11-2014 00:00:00 6.59514 C 92.6250 % 5.49 C
1658 07-11-2014 00:00:00 5.60208 C 94.8160 % 4.84 C
1659 08-11-2014 00:00:00 8.8941 C 91.4340 % 7.58 C
1660 09-11-2014 00:00:00 6.62257 C 96.8125 % 6.15 C
1661 10-11-2014 00:00:00 8.76389 C 96.3715 % 8.22 C
1662 11-11-2014 00:00:00 8.47553 C 95.0106 % 7.72 C
1663 12-11-2014 00:00:00 9.50104 C 95.2604 % 8.78 C
1664 13-11-2014 00:00:00 9.66736 C 96.6806 % 9.17 C
1665 14-11-2014 00:00:00 10.60174 C 90.0313 % 9.04 C
1666 15-11-2014 00:00:00 9.75938 C 94.5347 % 8.93 C
1667 16-11-2014 00:00:00 8.75674 C 97.4468 % 8.38 C
1668 17-11-2014 00:00:00 8.71146 C 97.5799 % 8.35 C
1669 18-11-2014 00:00:00 8.62491 C 96.7473 % 8.14 C
1670 19-11-2014 00:00:00 8.07465 C 95.9514 % 7.47 C
1671 20-11-2014 00:00:00 6.45486 C 94.4826 % 5.63 C
1672 21-11-2014 00:00:00 5.36458 C 95.0799 % 4.64 C
1673 22-11-2014 00:00:00 5.83576 C 95.7569 % 5.21 C
1674 23-11-2014 00:00:00 6.30104 C 96.9931 % 5.86 C
1675 24-11-2014 00:00:00 7.36679 C 94.6236 % 6.56 C
Sensor: Nr:Datum:Temp:Feuchte:Taupunkt:
Aussen-T/F 1676 25-11-2014 00:00:00 3.04781 C 97.7769 % 2.73 C
1677 26-11-2014 00:00:00 5.29848 C 89.8182 % 3.77 C
1678 27-11-2014 00:00:00 5.85447 C 92.9300 % 4.8 C
1679 28-11-2014 00:00:00 5.42203 C 91.8771 % 4.21 C
1680 29-11-2014 00:00:00 4.46596 C 89.4070 % 2.88 C
1681 30-11-2014 00:00:00 3.88993 C 91.8229 % 2.69 C
1682 01-12-2014 00:00:00 3.33299 C 91.1840 % 2.04 C
1683 02-12-2014 00:00:00 1.63731 C 91.3192 % 0.38 C
1684 03-12-2014 00:00:00 1.74095 C 94.0216 % 0.88 C
1685 04-12-2014 00:00:00 2.32917 C 92.6806 % 1.27 C
1686 05-12-2014 00:00:00 4.15278 C 92.7500 % 3.09 C
1687 06-12-2014 00:00:00 4.51389 C 95.0174 % 3.79 C
1688 07-12-2014 00:00:00 4.32049 C 92.1597 % 3.16 C
1689 08-12-2014 00:00:00 3.10625 C 93.1458 % 2.11 C
1690 09-12-2014 00:00:00 2.57569 C 96.3472 % 2.05 C
1691 10-12-2014 00:00:00 4.42118 C 89.8993 % 2.91 C
1692 11-12-2014 00:00:00 6.26736 C 89.8125 % 4.72 C
1693 12-12-2014 00:00:00 9.07951 C 85.8507 % 6.84 C
1694 13-12-2014 00:00:00 4.45625 C 96.4618 % 3.94 C
1695 14-12-2014 00:00:00 2.59063 C 96.5868 % 2.1 C
1696 15-12-2014 00:00:00 3.42986 C 93.8646 % 2.54 C
1697 16-12-2014 00:00:00 6.12049 C 91.8542 % 4.9 C
1698 17-12-2014 00:00:00 6.08021 C 92.4167 % 4.95 C
1699 18-12-2014 00:00:00 11.91597 C 90.3021 % 10.38 C
1700 19-12-2014 00:00:00 10.45243 C 86.8194 % 8.35 C
Sensor: Nr:Datum:Temp:Feuchte:Taupunkt:
Aussen-T/F 1701 20-12-2014 00:00:00 5.90764 C 85.4618 % 3.66 C
1702 21-12-2014 00:00:00 6.41042 C 88.0833 % 4.59 C
1703 22-12-2014 00:00:00 8.375 C 87.5139 % 6.43 C
1704 23-12-2014 00:00:00 10.04444 C 85.6222 % 7.75 C
1705 24-12-2014 00:00:00 8.3214 C 86.1158 % 6.14 C
1706 25-12-2014 00:00:00 5.2875 C 85.6027 % 3.08 C
1707 26-12-2014 00:00:00 2.31469 C 97.1259 % 1.91 C
1708 27-12-2014 00:00:00 1.46649 C 94.8796 % 0.74 C
1709 28-12-2014 00:00:00 -3.09591 C 79.8636 % -6.07 C
1710 29-12-2014 00:00:00 -0.46157 C 89.7388 % -1.94 C
1711 30-12-2014 00:00:00 2.6765 C 92.5574 % 1.59 C
1712 31-12-2014 00:00:00 2.46053 C 93.8487 % 1.57 C
1713 01-01-2015 00:00:00 1.89397 C 96.4741 % 1.39 C
1714 02-01-2015 00:00:00 3.6411 C 89.1575 % 2.03 C
1715 03-01-2015 00:00:00 1.94125 C 94.7000 % 1.18 C
1716 04-01-2015 00:00:00 2.94172 C 93.6503 % 2.02 C
1717 05-01-2015 00:00:00 -0.02447 C 95.0904 % -0.71 C
1718 06-01-2015 00:00:00 0.48846 C 92.6923 % -0.55 C
1719 07-01-2015 00:00:00 2.52604 C 92.4113 % 1.42 C
1720 08-01-2015 00:00:00 6.62222 C 92.6632 % 5.52 C
1721 09-01-2015 00:00:00 9.27879 C 85.8977 % 7.04 C
1722 10-01-2015 00:00:00 13.56872 C 83.0051 % 10.74 C
1723 11-01-2015 00:00:00 5.45068 C 76.2432 % 1.61 C
1724 12-01-2015 00:00:00 6.91962 C 83.3811 % 4.3 C
1725 13-01-2015 00:00:00 10.09231 C 75.4163 % 5.95 C
Sensor: Nr:Datum:Temp:Feuchte:Taupunkt:
Aussen-T/F 1726 14-01-2015 00:00:00 5.9911 C 84.6525 % 3.61 C
1727 15-01-2015 00:00:00 10.14352 C 76.1574 % 6.14 C
1728 16-01-2015 00:00:00 6.66424 C 88.4201 % 4.89 C
1729 17-01-2015 00:00:00 3.35174 C 91.5660 % 2.11 C
1730 18-01-2015 00:00:00 1.91111 C 84.4965 % -0.42 C
1731 19-01-2015 00:00:00 0.89028 C 89.3889 % -0.65 C
1732 20-01-2015 00:00:00 0.86285 C 90.8576 % -0.46 C
1733 21-01-2015 00:00:00 -0.0414 C 88.7123 % -1.68 C
1734 22-01-2015 00:00:00 1.45625 C 84.8438 % -0.81 C
1735 23-01-2015 00:00:00 1.33299 C 89.6736 % -0.17 C
1736 24-01-2015 00:00:00 1.04056 C 91.7189 % -0.15 C
1737 25-01-2015 00:00:00 2.19444 C 94.2396 % 1.37 C
1738 26-01-2015 00:00:00 3.05694 C 95.0069 % 2.34 C
1739 27-01-2015 00:00:00 3.85208 C 93.6806 % 2.93 C
1740 28-01-2015 00:00:00 4.1184 C 90.7604 % 2.75 C
1741 29-01-2015 00:00:00 3.03715 C 88.2431 % 1.29 C
1742 30-01-2015 00:00:00 1.92569 C 90.3715 % 0.52 C
1743 31-01-2015 00:00:00 2.07143 C 87.5437 % 0.23 C
1744 01-02-2015 00:00:00 2.04274 C 93.0565 % 1.04 C
1745 02-02-2015 00:00:00 2.35794 C 89.0635 % 0.75 C
1746 03-02-2015 00:00:00 0.88769 C 90.6462 % -0.46 C
1747 04-02-2015 00:00:00 0.04848 C 87.0379 % -1.84 C
1748 05-02-2015 00:00:00 -1.86778 C 83.7333 % -4.25 C
1749 06-02-2015 00:00:00 0.42153 C 69.7431 % -4.45 C
1750 07-02-2015 00:00:00 -0.6316 C 80.7569 % -3.52 C
Sensor: Nr:Datum:Temp:Feuchte:Taupunkt:
Aussen-T/F 1751 08-02-2015 00:00:00 3.19444 C 81.6701 % 0.37 C
1752 09-02-2015 00:00:00 4.06597 C 90.9549 % 2.73 C
1753 10-02-2015 00:00:00 4.96528 C 91.7188 % 3.73 C
1754 11-02-2015 00:00:00 3.82917 C 87.1771 % 1.9 C
1755 12-02-2015 00:00:00 2.75556 C 89.3854 % 1.19 C
1756 13-02-2015 00:00:00 2.27396 C 89.2326 % 0.69 C
1757 14-02-2015 00:00:00 3.73438 C 86.5382 % 1.7 C
1758 15-02-2015 00:00:00 1.72778 C 89.3542 % 0.17 C
1759 16-02-2015 00:00:00 1.82744 C 88.4874 % 0.13 C
1760 17-02-2015 00:00:00 3.31146 C 88.3646 % 1.58 C
1761 18-02-2015 00:00:00 4.09479 C 89.1493 % 2.47 C
1762 19-02-2015 00:00:00 0.94861 C 88.1007 % -0.79 C
1763 20-02-2015 00:00:00 6.96389 C 77.7326 % 3.35 C
1764 21-02-2015 00:00:00 5.27535 C 85.5972 % 3.06 C
1765 22-02-2015 00:00:00 3.72083 C 82.6285 % 1.05 C
1766 23-02-2015 00:00:00 3.46944 C 89.0000 % 1.83 C
1767 24-02-2015 00:00:00 4.88611 C 84.9757 % 2.58 C
1768 25-02-2015 00:00:00 4.28403 C 89.1215 % 2.65 C
1769 26-02-2015 00:00:00 6.06354 C 89.7708 % 4.51 C
1770 27-02-2015 00:00:00 5.01736 C 91.6632 % 3.78 C
1771 28-02-2015 00:00:00 2.37187 C 85.8854 % 0.26 C
1772 01-03-2015 00:00:00 7.71493 C 80.8125 % 4.63 C
1773 02-03-2015 00:00:00 6.14653 C 79.5556 % 2.88 C
1774 03-03-2015 00:00:00 5.52812 C 78.2778 % 2.05 C
1775 04-03-2015 00:00:00 4.51771 C 82.8576 % 1.86 C
Sensor: Nr:Datum:Temp:Feuchte:Taupunkt:
Aussen-T/F 1776 05-03-2015 00:00:00 5.08681 C 83.0556 % 2.45 C
1777 06-03-2015 00:00:00 4.14931 C 84.0660 % 1.71 C
1778 07-03-2015 00:00:00 4.96007 C 81.3993 % 2.05 C
1779 08-03-2015 00:00:00 6.05625 C 83.0174 % 3.4 C
1780 09-03-2015 00:00:00 7.81354 C 84.5938 % 5.38 C
1781 10-03-2015 00:00:00 5.56319 C 96.8542 % 5.1 C
1782 11-03-2015 00:00:00 4.39549 C 87.3090 % 2.48 C
1783 12-03-2015 00:00:00 3.92222 C 82.5382 % 1.23 C
1784 13-03-2015 00:00:00 4.14514 C 76.4688 % 0.39 C
1785 14-03-2015 00:00:00 4.55451 C 82.5729 % 1.85 C
1786 15-03-2015 00:00:00 4.61042 C 89.4132 % 3.02 C
1787 16-03-2015 00:00:00 4.68368 C 86.6736 % 2.66 C
1788 17-03-2015 00:00:00 7.26632 C 81.9722 % 4.4 C
1789 18-03-2015 00:00:00 9.08924 C 80.6424 % 5.94 C
1790 19-03-2015 00:00:00 7.62431 C 91.9132 % 6.4 C
1791 20-03-2015 00:00:00 8.07465 C 82.3889 % 5.26 C
1792 21-03-2015 00:00:00 5.69201 C 90.0000 % 4.18 C
1793 22-03-2015 00:00:00 5.19792 C 82.4965 % 2.47 C
1794 23-03-2015 00:00:00 3.85521 C 84.2118 % 1.44 C
1795 24-03-2015 00:00:00 6.94167 C 81.1181 % 3.93 C
1796 25-03-2015 00:00:00 7.68056 C 84.0729 % 5.17 C
1797 26-03-2015 00:00:00 7.17257 C 77.3333 % 3.48 C
1798 27-03-2015 00:00:00 7.64965 C 74.8472 % 3.48 C
1799 28-03-2015 00:00:00 8.51667 C 79.0243 % 5.09 C
1800 29-03-2015 00:00:00 11.63659 C 83.7029 % 8.98 C
Sensor: Nr:Datum:Temp:Feuchte:Taupunkt:
Aussen-T/F 1801 30-03-2015 00:00:00 8.21597 C 71.2222 % 3.32 C
1802 31-03-2015 00:00:00 10.06181 C 74.1771 % 5.68 C
1803 01-04-2015 00:00:00 6.38924 C 70.3542 % 1.4 C
1804 02-04-2015 00:00:00 6.45868 C 73.6250 % 2.1 C
1805 03-04-2015 00:00:00 5.87951 C 71.3819 % 1.11 C
1806 04-04-2015 00:00:00 6.24896 C 76.7882 % 2.49 C
1807 05-04-2015 00:00:00 5.21354 C 69.6042 % 0.12 C
1808 06-04-2015 00:00:00 5.33542 C 76.9201 % 1.62 C
1809 07-04-2015 00:00:00 5.98646 C 76.3785 % 2.16 C
1810 08-04-2015 00:00:00 8.43776 C 77.5594 % 4.75 C
1811 09-04-2015 00:00:00 11.19653 C 77.2118 % 7.36 C
1812 10-04-2015 00:00:00 13.22708 C 68.0278 % 7.46 C
1813 11-04-2015 00:00:00 12.37118 C 70.6736 % 7.2 C
1814 12-04-2015 00:00:00 11.34444 C 70.3090 % 6.14 C
1815 13-04-2015 00:00:00 11.50104 C 69.8576 % 6.2 C
1816 14-04-2015 00:00:00 13.37778 C 67.0347 % 7.39 C
1817 15-04-2015 00:00:00 16.43472 C 63.5799 % 9.51 C
1818 16-04-2015 00:00:00 15.04757 C 69.6493 % 9.55 C
1819 17-04-2015 00:00:00 11.41736 C 67.7951 % 5.69 C
1820 18-04-2015 00:00:00 8.60486 C 64.9931 % 2.41 C
1821 19-04-2015 00:00:00 9.50903 C 62.7708 % 2.78 C
1822 20-04-2015 00:00:00 12.20312 C 60.9549 % 4.9 C
1823 21-04-2015 00:00:00 13.69549 C 60.5278 % 6.21 C
1824 22-04-2015 00:00:00 10.77465 C 69.4826 % 5.42 C
1825 23-04-2015 00:00:00 10.84062 C 70.1806 % 5.63 C
Sensor: Nr:Datum:Temp:Feuchte:Taupunkt:
Aussen-T/F 1826 24-04-2015 00:00:00 13.43403 C 62.6701 % 6.46 C
1827 25-04-2015 00:00:00 12.95486 C 81.1250 % 9.8 C
1828 26-04-2015 00:00:00 15.34444 C 79.1736 % 11.76 C
1829 27-04-2015 00:00:00 10.42014 C 94.5868 % 9.59 C
1830 28-04-2015 00:00:00 9.15382 C 73.6910 % 4.71 C
1831 29-04-2015 00:00:00 8.3059 C 73.2951 % 3.82 C
1832 30-04-2015 00:00:00 9.85764 C 80.8819 % 6.73 C
1833 01-05-2015 00:00:00 8.17979 C 82.7700 % 5.43 C
1834 02-05-2015 00:00:00 9.88958 C 78.1007 % 6.26 C
1835 03-05-2015 00:00:00 13.80469 C 89.9856 % 12.19 C
1836 04-05-2015 00:00:00 16.61875 C 81.1319 % 13.37 C
1837 05-05-2015 00:00:00 18.45035 C 74.4514 % 13.83 C
1838 06-05-2015 00:00:00 13.3566 C 69.4306 % 7.89 C
1839 07-05-2015 00:00:00 13.35764 C 65.8646 % 7.12 C
1840 08-05-2015 00:00:00 14.46632 C 68.7951 % 8.81 C
1841 09-05-2015 00:00:00 15.2441 C 75.9410 % 11.03 C
1842 10-05-2015 00:00:00 14.78229 C 75.1944 % 10.44 C
1843 11-05-2015 00:00:00 17.12812 C 73.8611 % 12.43 C
1844 12-05-2015 00:00:00 18.0309 C 74.6181 % 13.46 C
1845 13-05-2015 00:00:00 14.45208 C 67.5590 % 8.53 C
1846 14-05-2015 00:00:00 14.14351 C 72.7298 % 9.33 C
1847 15-05-2015 00:00:00 15.02882 C 77.6215 % 11.15 C
1848 16-05-2015 00:00:00 12.01528 C 78.7569 % 8.45 C
1849 17-05-2015 00:00:00 14.18924 C 70.3750 % 8.88 C
1850 18-05-2015 00:00:00 15.27535 C 65.6250 % 8.88 C
Sensor: Nr:Datum:Temp:Feuchte:Taupunkt:
Aussen-T/F 1851 19-05-2015 00:00:00 13.64941 C 60.6403 % 6.19 C
1852 20-05-2015 00:00:00 11.71144 C 70.5166 % 6.54 C
1853 21-05-2015 00:00:00 11.60764 C 69.7118 % 6.27 C
1854 22-05-2015 00:00:00 15.74722 C 61.0868 % 8.27 C
1855 23-05-2015 00:00:00 15.85278 C 71.0625 % 10.62 C
1856 24-05-2015 00:00:00 17.02887 C 75.7852 % 12.73 C
1857 25-05-2015 00:00:00 13.82968 C 88.0452 % 11.89 C
1858 26-05-2015 00:00:00 11.87604 C 75.6736 % 7.72 C
1859 27-05-2015 00:00:00 11.63958 C 70.3194 % 6.43 C
1860 28-05-2015 00:00:00 14.21944 C 69.5104 % 8.73 C
1861 29-05-2015 00:00:00 13.27367 C 76.0712 % 9.15 C
1862 30-05-2015 00:00:00 12.66319 C 71.2188 % 7.59 C
1863 31-05-2015 00:00:00 14.50903 C 73.4653 % 9.83 C
1864 01-06-2015 00:00:00 14.86667 C 79.3472 % 11.33 C
1865 02-06-2015 00:00:00 16.57639 C 73.3056 % 11.78 C
1866 03-06-2015 00:00:00 17.74965 C 70.8646 % 12.4 C
1867 04-06-2015 00:00:00 18.54896 C 65.3993 % 11.94 C
1868 05-06-2015 00:00:00 22.1191 C 67.8681 % 15.91 C
1869 06-06-2015 00:00:00 19.94028 C 80.0208 % 16.39 C
1870 07-06-2015 00:00:00 18.04306 C 59.8576 % 10.13 C
1871 08-06-2015 00:00:00 16.17222 C 63.8056 % 9.32 C
1872 09-06-2015 00:00:00 14.94792 C 62.4688 % 7.85 C
1873 10-06-2015 00:00:00 17.10208 C 66.1146 % 10.73 C
1874 11-06-2015 00:00:00 19.95895 C 61.7825 % 12.41 C
1875 12-06-2015 00:00:00 19.48699 C 78.0855 % 15.57 C
Sensor: Nr:Datum:Temp:Feuchte:Taupunkt:
Aussen-T/F 1876 13-06-2015 00:00:00 18.63958 C 85.4028 % 16.14 C
1877 14-06-2015 00:00:00 19.07708 C 68.7674 % 13.21 C
1878 15-06-2015 00:00:00 17.59271 C 74.7535 % 13.06 C
1879 16-06-2015 00:00:00 15.68924 C 63.0868 % 8.69 C
1880 17-06-2015 00:00:00 15.5816 C 65.6250 % 9.18 C
1881 18-06-2015 00:00:00 17.15625 C 75.1736 % 12.73 C
1882 19-06-2015 00:00:00 12.7559 C 82.5104 % 9.86 C
1883 20-06-2015 00:00:00 13.05547 C 82.0000 % 10.06 C
1884 21-06-2015 00:00:00 15.43396 C 84.8358 % 12.9 C
1885 22-06-2015 00:00:00 13.19855 C 87.9273 % 11.24 C
1886 23-06-2015 00:00:00 11.71206 C 92.2057 % 10.49 C
1887 24-06-2015 00:00:00 14.96215 C 81.0417 % 11.74 C
1888 25-06-2015 00:00:00 17.94306 C 75.7118 % 13.6 C
1889 26-06-2015 00:00:00 19.40139 C 78.2465 % 15.52 C
1890 27-06-2015 00:00:00 20.26461 C 74.9877 % 15.69 C
1891 28-06-2015 00:00:00 18.39741 C 72.8405 % 13.44 C
1892 29-06-2015 00:00:00 23.63875 C 61.7438 % 15.87 C
1893 30-06-2015 00:00:00 21.94847 C 63.2710 % 14.65 C
1894 01-07-2015 00:00:00 24.13993 C 63.3022 % 16.73 C
1895 02-07-2015 00:00:00 26.83474 C 64.8246 % 19.66 C
1896 03-07-2015 00:00:00 28.2408 C 65.4400 % 21.14 C
1897 04-07-2015 00:00:00 27.77951 C 67.8229 % 21.29 C
1898 05-07-2015 00:00:00 26.75417 C 64.4028 % 19.47 C
1899 06-07-2015 00:00:00 23.89674 C 54.1630 % 14.07 C
1900 07-07-2015 00:00:00 23.4251 C 64.1833 % 16.27 C
Sensor: Nr:Datum:Temp:Feuchte:Taupunkt:
Aussen-T/F 1901 08-07-2015 00:00:00 17.62465 C 71.6944 % 12.45 C
1902 09-07-2015 00:00:00 16.50669 C 68.3134 % 10.65 C
1903 10-07-2015 00:00:00 17.02947 C 57.6175 % 8.61 C
1904 11-07-2015 00:00:00 21.24132 C 54.9340 % 11.83 C
1905 12-07-2015 00:00:00 19.0157 C 71.3264 % 13.71 C
1906 13-07-2015 00:00:00 17.93777 C 85.0638 % 15.39 C
1907 14-07-2015 00:00:00 21.06476 C 74.5551 % 16.37 C
1908 15-07-2015 00:00:00 21.59368 C 75.8000 % 17.14 C
1909 16-07-2015 00:00:00 24.00382 C 71.6667 % 18.57 C
1910 17-07-2015 00:00:00 28.34301 C 50.2206 % 16.99 C
1911 18-07-2015 00:00:00 23.63602 C 62.5441 % 16.06 C
1912 19-07-2015 00:00:00 21.84756 C 77.9451 % 17.83 C
1913 20-07-2015 00:00:00 22.02667 C 88.1833 % 19.98 C
1914 21-07-2015 00:00:00 26.21048 C 69.2476 % 20.13 C
1915 22-07-2015 00:00:00 23.3275 C 74.4857 % 18.53 C
1916 23-07-2015 00:00:00 20.60312 C 64.9514 % 13.78 C
1917 24-07-2015 00:00:00 21.45543 C 69.6180 % 15.67 C
1918 25-07-2015 00:00:00 17.38849 C 77.9048 % 13.5 C
1919 26-07-2015 00:00:00 15.82244 C 71.9961 % 10.79 C
1920 27-07-2015 00:00:00 17.63472 C 81.2604 % 14.39 C
1921 28-07-2015 00:00:00 17.16294 C 63.9825 % 10.3 C
1922 29-07-2015 00:00:00 17.78846 C 55.9808 % 8.9 C
1923 30-07-2015 00:00:00 14.2708 C 74.1720 % 9.74 C
1924 31-07-2015 00:00:00 16.9314 C 65.0744 % 10.33 C
1925 01-08-2015 00:00:00 19.24097 C 59.1319 % 11.07 C
Sensor: Nr:Datum:Temp:Feuchte:Taupunkt:
Aussen-T/F 1926 02-08-2015 00:00:00 20.84722 C 61.6979 % 13.23 C
1927 03-08-2015 00:00:00 23.19217 C 57.6157 % 14.37 C
1928 04-08-2015 00:00:00 19.03299 C 81.7396 % 15.84 C
1929 05-08-2015 00:00:00 19.79201 C 76.1424 % 15.47 C
1930 06-08-2015 00:00:00 24 C 66.2153 % 17.31 C
1931 07-08-2015 00:00:00 26.94306 C 61.3715 % 18.88 C
1932 08-08-2015 00:00:00 22.82014 C 79.2431 % 19.03 C
1933 09-08-2015 00:00:00 21.98785 C 77.7708 % 17.93 C
1934 10-08-2015 00:00:00 19.76944 C 83.2465 % 16.85 C
1935 11-08-2015 00:00:00 21.91979 C 74.4583 % 17.17 C
1936 12-08-2015 00:00:00 23.09896 C 77.4583 % 18.94 C
1937 13-08-2015 00:00:00 25.32292 C 70.7535 % 19.63 C
1938 14-08-2015 00:00:00 24.17396 C 69.3611 % 18.21 C
1939 15-08-2015 00:00:00 20.86319 C 72.4201 % 15.72 C
1940 16-08-2015 00:00:00 15.85799 C 89.8924 % 14.2 C
1941 17-08-2015 00:00:00 14.78889 C 90.7396 % 13.29 C
1942 18-08-2015 00:00:00 15.90625 C 82.9757 % 13.02 C
1943 19-08-2015 00:00:00 15.71493 C 78.1458 % 11.92 C
1944 20-08-2015 00:00:00 18.10382 C 74.0625 % 13.41 C
1945 21-08-2015 00:00:00 18.85764 C 70.1910 % 13.31 C
1946 22-08-2015 00:00:00 19.10729 C 64.2708 % 12.21 C
1947 23-08-2015 00:00:00 19.89722 C 63.7431 % 12.83 C
1948 24-08-2015 00:00:00 19.22187 C 83.3750 % 16.34 C
1949 25-08-2015 00:00:00 17.40729 C 68.3472 % 11.52 C
1950 26-08-2015 00:00:00 20.71458 C 65.1667 % 13.94 C
Sensor: Nr:Datum:Temp:Feuchte:Taupunkt:
Aussen-T/F 1951 27-08-2015 00:00:00 18.60486 C 83.2986 % 15.72 C
1952 28-08-2015 00:00:00 16.57292 C 89.2813 % 14.8 C
1953 29-08-2015 00:00:00 19.31181 C 88.3993 % 17.35 C
1954 30-08-2015 00:00:00 23.12396 C 82.7396 % 20.03 C
1955 31-08-2015 00:00:00 24.2934 C 69.7604 % 18.42 C
1956 01-09-2015 00:00:00 17.4059 C 90.9826 % 15.92 C
1957 02-09-2015 00:00:00 15.13229 C 84.9479 % 12.62 C
1958 03-09-2015 00:00:00 13.95937 C 84.7326 % 11.43 C
1959 04-09-2015 00:00:00 13.54792 C 79.5833 % 10.09 C
1960 05-09-2015 00:00:00 13.21701 C 84.4479 % 10.65 C
1961 06-09-2015 00:00:00 13.11632 C 74.0868 % 8.61 C
1962 07-09-2015 00:00:00 13.56493 C 87.0000 % 11.44 C
1963 08-09-2015 00:00:00 15.09236 C 84.9271 % 12.58 C
1964 09-09-2015 00:00:00 15.60139 C 76.2118 % 11.43 C
1965 10-09-2015 00:00:00 13.23854 C 76.5972 % 9.22 C
1966 11-09-2015 00:00:00 13.19792 C 79.2847 % 9.69 C
1967 12-09-2015 00:00:00 15.35312 C 83.7361 % 12.62 C
1968 13-09-2015 00:00:00 17.07153 C 92.6042 % 15.86 C
1969 14-09-2015 00:00:00 15.52639 C 91.7431 % 14.19 C
1970 15-09-2015 00:00:00 12.94931 C 87.0938 % 10.86 C
1971 16-09-2015 00:00:00 15.01667 C 93.7153 % 14.01 C
1972 17-09-2015 00:00:00 14.6566 C 91.2049 % 13.24 C
1973 18-09-2015 00:00:00 14.53542 C 85.5278 % 12.14 C
1974 19-09-2015 00:00:00 14.32292 C 87.2118 % 12.23 C
1975 20-09-2015 00:00:00 13.77188 C 84.7743 % 11.26 C
Sensor: Nr:Datum:Temp:Feuchte:Taupunkt:
Aussen-T/F 1976 21-09-2015 00:00:00 12.22847 C 90.1354 % 10.66 C
1977 22-09-2015 00:00:00 13.06701 C 91.6285 % 11.74 C
1978 23-09-2015 00:00:00 11.92535 C 93.3056 % 10.88 C
1979 24-09-2015 00:00:00 13.09618 C 90.9340 % 11.65 C
1980 25-09-2015 00:00:00 13.95278 C 87.2257 % 11.86 C
1981 26-09-2015 00:00:00 12.73889 C 89.2049 % 11.01 C
1982 27-09-2015 00:00:00 11.29236 C 83.7500 % 8.65 C
1983 28-09-2015 00:00:00 10.50729 C 82.5556 % 7.67 C
1984 29-09-2015 00:00:00 10.96979 C 81.2257 % 7.88 C
1985 30-09-2015 00:00:00 10.73368 C 77.8993 % 7.04 C
1986 01-10-2015 00:00:00 9.88646 C 74.8576 % 5.64 C
1987 02-10-2015 00:00:00 9.21528 C 85.2083 % 6.86 C
1988 03-10-2015 00:00:00 11.40139 C 85.8993 % 9.13 C
1989 04-10-2015 00:00:00 12.61562 C 91.5000 % 11.27 C
1990 05-10-2015 00:00:00 11.96597 C 92.3958 % 10.77 C
1991 06-10-2015 00:00:00 15.93854 C 95.3576 % 15.2 C
1992 07-10-2015 00:00:00 14.99028 C 89.4375 % 13.27 C
1993 08-10-2015 00:00:00 13.45521 C 86.9167 % 11.32 C
1994 09-10-2015 00:00:00 12.29618 C 93.3993 % 11.26 C
1995 10-10-2015 00:00:00 12.19271 C 87.9236 % 10.25 C
1996 11-10-2015 00:00:00 8.37431 C 76.8542 % 4.56 C
1997 12-10-2015 00:00:00 5.28229 C 82.6007 % 2.57 C
1998 13-10-2015 00:00:00 4.33542 C 90.2049 % 2.88 C
1999 14-10-2015 00:00:00 3.63333 C 95.0139 % 2.91 C
2000 15-10-2015 00:00:00 4.25694 C 95.2500 % 3.57 C
Sensor: Nr:Datum:Temp:Feuchte:Taupunkt:
Aussen-T/F 2001 16-10-2015 00:00:00 6.52431 C 92.4236 % 5.39 C
2002 17-10-2015 00:00:00 6.99375 C 89.5000 % 5.39 C
2003 18-10-2015 00:00:00 7.25556 C 90.9896 % 5.89 C
2004 19-10-2015 00:00:00 8.22361 C 91.6285 % 6.94 C
2005 20-10-2015 00:00:00 9.33576 C 93.8785 % 8.4 C
2006 21-10-2015 00:00:00 9.83611 C 91.5903 % 8.53 C
2007 22-10-2015 00:00:00 11.18472 C 88.5000 % 9.36 C
2008 23-10-2015 00:00:00 10.26979 C 95.0417 % 9.51 C
2009 24-10-2015 00:00:00 11.03438 C 89.7465 % 9.42 C
2010 25-10-2015 00:00:00 11.68229 C 92.6528 % 10.53 C
2011 26-10-2015 00:00:00 9.55312 C 94.6736 % 8.74 C
2012 27-10-2015 00:00:00 8.10278 C 94.6701 % 7.3 C
2013 28-10-2015 00:00:00 9.54444 C 91.5382 % 8.24 C
2014 29-10-2015 00:00:00 10.48299 C 92.5799 % 9.33 C
2015 30-10-2015 00:00:00 7.79965 C 95.7917 % 7.17 C
2016 31-10-2015 00:00:00 7.27118 C 93.9479 % 6.36 C
2017 01-11-2015 00:00:00 6.57708 C 96.2118 % 6.02 C
2018 02-11-2015 00:00:00 4.67431 C 96.7049 % 4.2 C
2019 03-11-2015 00:00:00 4.99896 C 95.2813 % 4.31 C
2020 04-11-2015 00:00:00 7.79549 C 94.1146 % 6.91 C
2021 05-11-2015 00:00:00 10.38299 C 95.2569 % 9.66 C
2022 06-11-2015 00:00:00 13.31493 C 92.8854 % 12.19 C
2023 07-11-2015 00:00:00 16.40417 C 94.1493 % 15.46 C
2024 08-11-2015 00:00:00 12.97292 C 95.2118 % 12.23 C
2025 09-11-2015 00:00:00 14.80846 C 83.2353 % 11.99 C
Sensor: Nr:Datum:Temp:Feuchte:Taupunkt:
Aussen-T/F 2026 10-11-2015 00:00:00 13.07951 C 84.1493 % 10.47 C
2027 11-11-2015 00:00:00 11.7066 C 84.5625 % 9.2 C
2028 12-11-2015 00:00:00 11.71562 C 87.6354 % 9.73 C
2029 13-11-2015 00:00:00 10.51875 C 88.3993 % 8.68 C
2030 14-11-2015 00:00:00 8.91806 C 83.4722 % 6.27 C
2031 15-11-2015 00:00:00 12.53854 C 84.1944 % 9.95 C
2032 16-11-2015 00:00:00 11.63438 C 83.7708 % 8.99 C
2033 17-11-2015 00:00:00 14.03889 C 89.3438 % 12.31 C
2034 18-11-2015 00:00:00 13.87604 C 73.4063 % 9.21 C
2035 19-11-2015 00:00:00 12.23611 C 85.8750 % 9.94 C
2036 20-11-2015 00:00:00 7.64444 C 94.6667 % 6.84 C
2037 21-11-2015 00:00:00 3.88021 C 91.2500 % 2.59 C
2038 22-11-2015 00:00:00 2.85139 C 91.2396 % 1.57 C
2039 23-11-2015 00:00:00 2.48125 C 91.7917 % 1.29 C
2040 24-11-2015 00:00:00 1.88785 C 89.9931 % 0.42 C
2041 25-11-2015 00:00:00 4.63646 C 91.6528 % 3.4 C
2042 26-11-2015 00:00:00 4.92257 C 92.5174 % 3.81 C
2043 27-11-2015 00:00:00 2.23299 C 94.7951 % 1.49 C
2044 28-11-2015 00:00:00 4.42821 C 85.6357 % 2.24 C
2045 29-11-2015 00:00:00 9.10451 C 86.0660 % 6.9 C
2046 30-11-2015 00:00:00 9.89514 C 90.3056 % 8.38 C
2047 01-12-2015 00:00:00 11.24618 C 92.4410 % 10.07 C
2048 02-12-2015 00:00:00 9.85729 C 87.9375 % 7.96 C
2049 03-12-2015 00:00:00 7.55664 C 86.3252 % 5.42 C
2050 04-12-2015 00:00:00 6.93333 C 91.5694 % 5.66 C
Sensor: Nr:Datum:Temp:Feuchte:Taupunkt:
Aussen-T/F 2051 05-12-2015 00:00:00 6.05903 C 89.7500 % 4.51 C
2052 06-12-2015 00:00:00 8.44861 C 86.8160 % 6.38 C
2053 07-12-2015 00:00:00 8.35868 C 92.6840 % 7.24 C
2054 08-12-2015 00:00:00 4.51007 C 97.2292 % 4.11 C
2055 09-12-2015 00:00:00 6.58229 C 94.7396 % 5.8 C
2056 10-12-2015 00:00:00 3.22882 C 93.5590 % 2.29 C
2057 11-12-2015 00:00:00 4.75451 C 92.5069 % 3.65 C
2058 12-12-2015 00:00:00 8.05903 C 95.3681 % 7.36 C
2059 13-12-2015 00:00:00 8.6316 C 90.9167 % 7.23 C
2060 14-12-2015 00:00:00 5.9875 C 96.5243 % 5.48 C
2061 15-12-2015 00:00:00 5.6816 C 96.2813 % 5.14 C
2062 16-12-2015 00:00:00 9.66146 C 97.4514 % 9.28 C
2063 17-12-2015 00:00:00 12.51647 C 94.1098 % 11.6 C
2064 18-12-2015 00:00:00 11.17396 C 93.8472 % 10.22 C
2065 19-12-2015 00:00:00 11.26667 C 91.7708 % 9.98 C
2066 20-12-2015 00:00:00 7.84687 C 96.5278 % 7.33 C
2067 21-12-2015 00:00:00 10.07014 C 88.0938 % 8.19 C
2068 22-12-2015 00:00:00 11.62281 C 82.5175 % 8.75 C
2069 23-12-2015 00:00:00 10.964 C 81.0000 % 7.83 C
2070 24-12-2015 00:00:00 11.76867 C 85.1506 % 9.36 C
2071 25-12-2015 00:00:00 11.08646 C 87.9063 % 9.16 C
2072 26-12-2015 00:00:00 10.37257 C 87.6354 % 8.41 C
2073 27-12-2015 00:00:00 7.5375 C 92.7847 % 6.45 C
2074 28-12-2015 00:00:00 2.6941 C 97.0833 % 2.28 C
2075 29-12-2015 00:00:00 3.10521 C 97.6493 % 2.77 C
Sensor: Nr:Datum:Temp:Feuchte:Taupunkt:
Aussen-T/F 2076 30-12-2015 00:00:00 4.88299 C 93.8507 % 3.98 C
2077 31-12-2015 00:00:00 5.0934 C 93.0000 % 4.06 C
2078 01-01-2016 00:00:00 4.17222 C 95.5521 % 3.53 C
2079 02-01-2016 00:00:00 4.50451 C 93.6563 % 3.57 C
2080 03-01-2016 00:00:00 5.64826 C 92.3889 % 4.51 C
2081 04-01-2016 00:00:00 5.3184 C 94.4861 % 4.51 C
2082 05-01-2016 00:00:00 6.45694 C 91.6285 % 5.2 C
2083 06-01-2016 00:00:00 5.95903 C 94.3542 % 5.12 C
2084 07-01-2016 00:00:00 5.04028 C 94.1042 % 4.17 C
2085 08-01-2016 00:00:00 3.28646 C 90.7396 % 1.92 C
2086 09-01-2016 00:00:00 1.12292 C 97.2361 % 0.73 C
2087 10-01-2016 00:00:00 6.27708 C 91.8785 % 5.06 C
2088 11-01-2016 00:00:00 5.25729 C 94.6875 % 4.48 C
2089 12-01-2016 00:00:00 5.58229 C 88.8229 % 3.89 C
2090 13-01-2016 00:00:00 4.93333 C 89.9931 % 3.43 C
2091 14-01-2016 00:00:00 3.31701 C 89.1944 % 1.71 C
2092 15-01-2016 00:00:00 2.89062 C 90.6806 % 1.52 C
2093 16-01-2016 00:00:00 2.0875 C 90.9653 % 0.77 C
2094 17-01-2016 00:00:00 0.26424 C 83.9583 % -2.12 C
2095 18-01-2016 00:00:00 -4.85799 C 90.6840 % -6.14 C
2096 19-01-2016 00:00:00 -5.27882 C 89.7257 % -6.7 C
2097 20-01-2016 00:00:00 -1.61806 C 91.4618 % -2.82 C
2098 21-01-2016 00:00:00 0.6684 C 92.9618 % -0.34 C
2099 22-01-2016 00:00:00 -2.10729 C 91.9201 % -3.24 C
2100 23-01-2016 00:00:00 4.1559 C 94.7465 % 3.39 C
Sensor: Nr:Datum:Temp:Feuchte:Taupunkt:
Aussen-T/F 2101 24-01-2016 00:00:00 5.37396 C 93.7882 % 4.46 C
2102 25-01-2016 00:00:00 7.51076 C 93.2813 % 6.5 C
2103 26-01-2016 00:00:00 9.35729 C 85.4410 % 7.04 C
2104 27-01-2016 00:00:00 11.44792 C 70.5313 % 6.29 C
2105 28-01-2016 00:00:00 7.3625 C 85.9931 % 5.18 C
2106 29-01-2016 00:00:00 5.64583 C 86.0833 % 3.51 C
2107 30-01-2016 00:00:00 7.42914 C 86.8885 % 5.39 C
2108 31-01-2016 00:00:00 6.31944 C 89.3819 % 4.7 C
2109 01-02-2016 00:00:00 11.92326 C 84.3993 % 9.38 C
2110 02-02-2016 00:00:00 10.40035 C 86.6354 % 8.27 C
2111 03-02-2016 00:00:00 5.14306 C 85.1354 % 2.86 C
2112 04-02-2016 00:00:00 4.62118 C 90.7153 % 3.24 C
2113 05-02-2016 00:00:00 7.46076 C 91.2847 % 6.13 C
2114 06-02-2016 00:00:00 8.36806 C 86.5069 % 6.25 C
2115 07-02-2016 00:00:00 9.22743 C 76.8021 % 5.37 C
2116 08-02-2016 00:00:00 8.09062 C 80.4167 % 4.93 C
2117 09-02-2016 00:00:00 7.11076 C 85.9306 % 4.92 C
2118 10-02-2016 00:00:00 4.86562 C 85.1493 % 2.59 C
2119 11-02-2016 00:00:00 4.89444 C 87.2674 % 2.96 C
2120 12-02-2016 00:00:00 3.0316 C 85.9826 % 0.92 C
2121 13-02-2016 00:00:00 1.57049 C 93.5625 % 0.65 C
2122 14-02-2016 00:00:00 4.64965 C 94.9931 % 3.92 C
2123 15-02-2016 00:00:00 2.20278 C 91.7396 % 1 C
2124 16-02-2016 00:00:00 0.19792 C 81.4688 % -2.59 C
2125 17-02-2016 00:00:00 0.40625 C 88.6771 % -1.24 C
Sensor: Nr:Datum:Temp:Feuchte:Taupunkt:
Aussen-T/F 2126 18-02-2016 00:00:00 2.11285 C 85.4514 % -0.07 C
2127 19-02-2016 00:00:00 1.43507 C 92.3472 % 0.33 C
2128 20-02-2016 00:00:00 6.41528 C 92.1944 % 5.24 C
2129 21-02-2016 00:00:00 11.8375 C 88.1042 % 9.93 C
2130 22-02-2016 00:00:00 9.57778 C 85.1250 % 7.21 C
2131 23-02-2016 00:00:00 2.26424 C 95.8333 % 1.67 C
2132 24-02-2016 00:00:00 2.15243 C 91.2674 % 0.88 C
2133 25-02-2016 00:00:00 0.66597 C 90.3507 % -0.73 C
2134 26-02-2016 00:00:00 2.36771 C 85.4931 % 0.19 C
2135 27-02-2016 00:00:00 2.35694 C 77.3333 % -1.19 C
2136 28-02-2016 00:00:00 2.12509 C 77.4145 % -1.4 C
2137 29-02-2016 00:00:00 3.32569 C 70.7847 % -1.46 C
2138 01-03-2016 00:00:00 1.1875 C 81.7361 % -1.58 C
2139 02-03-2016 00:00:00 6.5125 C 83.4375 % 3.91 C
2140 03-03-2016 00:00:00 3.61736 C 87.0208 % 1.66 C
2141 04-03-2016 00:00:00 1.76528 C 93.4722 % 0.83 C
2142 05-03-2016 00:00:00 4.32153 C 92.1042 % 3.16 C
2143 06-03-2016 00:00:00 3.0434 C 94.2535 % 2.21 C
2144 07-03-2016 00:00:00 2.40347 C 93.7049 % 1.5 C
2145 08-03-2016 00:00:00 1.75521 C 90.5972 % 0.39 C
2146 09-03-2016 00:00:00 2.60799 C 83.1042 % 0.04 C
2147 10-03-2016 00:00:00 2.73576 C 83.8264 % 0.28 C
2148 11-03-2016 00:00:00 4.25868 C 83.4757 % 1.71 C
2149 12-03-2016 00:00:00 4.36424 C 78.1215 % 0.9 C
2150 13-03-2016 00:00:00 5.06944 C 77.3924 % 1.45 C
Sensor: Nr:Datum:Temp:Feuchte:Taupunkt:
Aussen-T/F 2151 14-03-2016 00:00:00 4.20451 C 71.0174 % -0.57 C
2152 15-03-2016 00:00:00 3.53264 C 80.5833 % 0.52 C
2153 16-03-2016 00:00:00 4.7066 C 73.0556 % 0.3 C
2154 17-03-2016 00:00:00 4.57049 C 75.0625 % 0.54 C
2155 18-03-2016 00:00:00 3.8934 C 83.0868 % 1.29 C
2156 19-03-2016 00:00:00 5.67465 C 87.0938 % 3.7 C
2157 20-03-2016 00:00:00 5.89583 C 80.9514 % 2.88 C
2158 21-03-2016 00:00:00 7.0625 C 84.7813 % 4.68 C
2159 22-03-2016 00:00:00 8.10035 C 79.6354 % 4.8 C
2160 23-03-2016 00:00:00 7.93438 C 81.8576 % 5.03 C
2161 24-03-2016 00:00:00 7.05069 C 85.9410 % 4.86 C
2162 25-03-2016 00:00:00 6.93125 C 92.5347 % 5.81 C
2163 26-03-2016 00:00:00 9.02778 C 82.5382 % 6.22 C
2164 27-03-2016 00:00:00 9.36558 C 82.0543 % 6.46 C
2165 28-03-2016 00:00:00 8.24167 C 84.3993 % 5.77 C
2166 29-03-2016 00:00:00 9.19792 C 74.2535 % 4.86 C
2167 30-03-2016 00:00:00 9.98958 C 84.7431 % 7.54 C
2168 31-03-2016 00:00:00 7.10243 C 92.7153 % 6 C
2169 01-04-2016 00:00:00 7.02396 C 85.1076 % 4.7 C
2170 02-04-2016 00:00:00 8.56007 C 85.2361 % 6.23 C
2171 03-04-2016 00:00:00 13.56285 C 81.3472 % 10.43 C
2172 04-04-2016 00:00:00 13.63299 C 81.7951 % 10.58 C
2173 05-04-2016 00:00:00 11.25069 C 92.5313 % 10.09 C
2174 06-04-2016 00:00:00 10.87153 C 79.3507 % 7.44 C
2175 07-04-2016 00:00:00 8.49479 C 75.7014 % 4.46 C
Sensor: Nr:Datum:Temp:Feuchte:Taupunkt:
Aussen-T/F 2176 08-04-2016 00:00:00 6.48403 C 79.6181 % 3.22 C
2177 09-04-2016 00:00:00 8.00139 C 72.3785 % 3.34 C
2178 10-04-2016 00:00:00 11.74757 C 69.9479 % 6.45 C
2179 11-04-2016 00:00:00 12.00972 C 70.4757 % 6.81 C
2180 12-04-2016 00:00:00 11.31181 C 78.9861 % 7.8 C
2181 13-04-2016 00:00:00 8.81354 C 93.8854 % 7.88 C
2182 14-04-2016 00:00:00 10.59722 C 80.6215 % 7.41 C
2183 15-04-2016 00:00:00 13.04618 C 74.1493 % 8.55 C
2184 16-04-2016 00:00:00 11.99514 C 81.5035 % 8.93 C
2185 17-04-2016 00:00:00 8.41111 C 77.1875 % 4.65 C
2186 18-04-2016 00:00:00 7.11632 C 74.6910 % 2.94 C
2187 19-04-2016 00:00:00 8.83507 C 72.7292 % 4.22 C
2188 20-04-2016 00:00:00 9.1559 C 66.4826 % 3.25 C
2189 21-04-2016 00:00:00 11.43229 C 64.2431 % 4.93 C
2190 22-04-2016 00:00:00 13.17674 C 62.2014 % 6.11 C
2191 23-04-2016 00:00:00 7.88299 C 78.2292 % 4.33 C
2192 24-04-2016 00:00:00 5.24444 C 78.5243 % 1.82 C
2193 25-04-2016 00:00:00 4.71632 C 85.9792 % 2.58 C
2194 26-04-2016 00:00:00 4.5934 C 82.9306 % 1.95 C
2195 27-04-2016 00:00:00 5.57465 C 78.2847 % 2.1 C
2196 28-04-2016 00:00:00 6.65 C 71.1007 % 1.8 C
2197 29-04-2016 00:00:00 7.88056 C 69.0972 % 2.58 C
2198 30-04-2016 00:00:00 7.70174 C 83.3611 % 5.06 C
2199 01-05-2016 00:00:00 10.10486 C 81.5451 % 7.09 C
2200 02-05-2016 00:00:00 12.06389 C 73.2674 % 7.43 C
Sensor: Nr:Datum:Temp:Feuchte:Taupunkt:
Aussen-T/F 2201 03-05-2016 00:00:00 10.93785 C 75.7222 % 6.83 C
2202 04-05-2016 00:00:00 9.10035 C 68.4063 % 3.6 C
2203 05-05-2016 00:00:00 11.45347 C 67.3507 % 5.63 C
2204 06-05-2016 00:00:00 15.34618 C 68.6806 % 9.63 C
2205 07-05-2016 00:00:00 16.83542 C 65.2604 % 10.28 C
2206 08-05-2016 00:00:00 18.59861 C 52.5521 % 8.72 C
2207 09-05-2016 00:00:00 18.28715 C 61.7326 % 10.82 C
2208 10-05-2016 00:00:00 17.08646 C 77.6076 % 13.15 C
2209 11-05-2016 00:00:00 17.43438 C 75.9340 % 13.15 C
2210 12-05-2016 00:00:00 17.84271 C 69.8472 % 12.27 C
2211 13-05-2016 00:00:00 14.31736 C 89.5903 % 12.63 C
2212 14-05-2016 00:00:00 10.45972 C 71.9549 % 5.63 C
2213 15-05-2016 00:00:00 9.07743 C 70.0069 % 3.91 C
2214 16-05-2016 00:00:00 9.98819 C 70.5069 % 4.88 C
2215 17-05-2016 00:00:00 12.31563 C 69.0139 % 6.8 C
2216 18-05-2016 00:00:00 14.47535 C 74.1007 % 9.92 C
2217 19-05-2016 00:00:00 14.04722 C 75.6667 % 9.82 C
2218 20-05-2016 00:00:00 14.08125 C 79.6771 % 10.63 C
2219 21-05-2016 00:00:00 17.67708 C 74.5382 % 13.1 C
2220 22-05-2016 00:00:00 18.70312 C 72.9201 % 13.75 C
2221 23-05-2016 00:00:00 14.01632 C 83.2743 % 11.23 C
2222 24-05-2016 00:00:00 10.97431 C 91.3264 % 9.62 C
2223 25-05-2016 00:00:00 12.7125 C 87.5069 % 10.69 C
2224 26-05-2016 00:00:00 14.89826 C 81.0938 % 11.69 C
2225 27-05-2016 00:00:00 16.77849 C 90.6534 % 15.24 C
Sensor: Nr:Datum:Temp:Feuchte:Taupunkt:
Aussen-T/F 2226 28-05-2016 00:00:00 18.08383 C 88.8922 % 16.22 C
2227 29-05-2016 00:00:00 17.36528 C 89.6007 % 15.64 C
2228 30-05-2016 00:00:00 17.49722 C 93.2639 % 16.4 C
2229 31-05-2016 00:00:00 16.51458 C 87.4861 % 14.43 C
2230 01-06-2016 00:00:00 15.69931 C 94.7153 % 14.85 C
2231 02-06-2016 00:00:00 17.51979 C 92.0035 % 16.21 C
2232 03-06-2016 00:00:00 16.76875 C 94.6806 % 15.91 C
2233 04-06-2016 00:00:00 17.85104 C 90.8472 % 16.34 C
2234 05-06-2016 00:00:00 19.18611 C 89.0486 % 17.34 C
2235 06-06-2016 00:00:00 19.18785 C 86.9896 % 16.97 C
2236 07-06-2016 00:00:00 19.88403 C 82.1597 % 16.75 C
2237 08-06-2016 00:00:00 19.56354 C 77.2500 % 15.47 C
2238 09-06-2016 00:00:00 17.3191 C 71.5556 % 12.13 C
2239 10-06-2016 00:00:00 16.15521 C 71.4444 % 10.99 C
2240 11-06-2016 00:00:00 17.56701 C 74.5035 % 12.99 C
2241 12-06-2016 00:00:00 17.18299 C 86.9931 % 15 C
2242 13-06-2016 00:00:00 15.94479 C 94.8472 % 15.12 C
2243 14-06-2016 00:00:00 16.36597 C 87.8507 % 14.35 C
2244 15-06-2016 00:00:00 15.42431 C 86.9340 % 13.26 C
2245 16-06-2016 00:00:00 13.77292 C 93.5903 % 12.76 C
2246 17-06-2016 00:00:00 14.68889 C 90.7882 % 13.2 C
2247 18-06-2016 00:00:00 14.84861 C 87.4549 % 12.79 C
2248 19-06-2016 00:00:00 15.40278 C 75.9653 % 11.19 C
2249 20-06-2016 00:00:00 14.61979 C 81.8958 % 11.56 C
2250 21-06-2016 00:00:00 18.21736 C 88.4757 % 16.28 C
Sensor: Nr:Datum:Temp:Feuchte:Taupunkt:
Aussen-T/F 2251 22-06-2016 00:00:00 20.84792 C 87.8333 % 18.76 C
2252 23-06-2016 00:00:00 23.76528 C 81.5243 % 20.41 C
2253 24-06-2016 00:00:00 22.11979 C 90.4826 % 20.49 C
2254 25-06-2016 00:00:00 16.85451 C 95.9306 % 16.2 C
2255 26-06-2016 00:00:00 15.41562 C 85.3854 % 12.98 C
2256 27-06-2016 00:00:00 15.91562 C 86.7743 % 13.72 C
2257 28-06-2016 00:00:00 18.26597 C 84.3646 % 15.58 C
2258 29-06-2016 00:00:00 19.04444 C 74.5521 % 14.42 C
2259 30-06-2016 00:00:00 18.7566 C 80.8264 % 15.4 C
2260 01-07-2016 00:00:00 19.88194 C 81.0556 % 16.54 C
2261 02-07-2016 00:00:00 16.90868 C 78.6840 % 13.18 C
2262 03-07-2016 00:00:00 15.21559 C 83.5437 % 12.45 C
2263 04-07-2016 00:00:00 17.43333 C 82.9201 % 14.5 C
2264 05-07-2016 00:00:00 19.40903 C 78.1979 % 15.51 C
2265 06-07-2016 00:00:00 16.61042 C 74.0104 % 11.96 C
2266 07-07-2016 00:00:00 17.08576 C 77.8785 % 13.2 C
2267 08-07-2016 00:00:00 18.87222 C 80.7292 % 15.49 C
2268 09-07-2016 00:00:00 21.08889 C 76.2778 % 16.75 C
2269 10-07-2016 00:00:00 21.92535 C 79.2431 % 18.17 C
2270 11-07-2016 00:00:00 21.61701 C 73.7326 % 16.73 C
2271 12-07-2016 00:00:00 19.06354 C 74.7049 % 14.47 C
2272 13-07-2016 00:00:00 14.71319 C 91.3750 % 13.32 C
2273 14-07-2016 00:00:00 14.94583 C 79.4063 % 11.42 C
2274 15-07-2016 00:00:00 16.08229 C 74.0417 % 11.46 C
2275 16-07-2016 00:00:00 16.98542 C 83.0451 % 14.09 C
Sensor: Nr:Datum:Temp:Feuchte:Taupunkt:
Aussen-T/F 2276 17-07-2016 00:00:00 21.34757 C 80.4132 % 17.84 C
2277 18-07-2016 00:00:00 21.85069 C 75.3924 % 17.3 C
2278 19-07-2016 00:00:00 21.61667 C 78.1597 % 17.65 C
2279 20-07-2016 00:00:00 23.34097 C 74.8785 % 18.63 C
2280 21-07-2016 00:00:00 21.23924 C 86.6632 % 18.93 C
2281 22-07-2016 00:00:00 20.96806 C 88.7674 % 19.04 C
2282 23-07-2016 00:00:00 20.3434 C 91.5104 % 18.91 C
2283 24-07-2016 00:00:00 22.0941 C 85.4583 % 19.54 C
2284 25-07-2016 00:00:00 21.8191 C 81.6910 % 18.55 C
2285 26-07-2016 00:00:00 20.20208 C 86.3333 % 17.85 C
2286 27-07-2016 00:00:00 19.62986 C 81.0313 % 16.29 C
2287 28-07-2016 00:00:00 20.20174 C 82.7986 % 17.18 C
2288 29-07-2016 00:00:00 19.81042 C 85.1319 % 17.24 C
2289 30-07-2016 00:00:00 20.55278 C 78.7326 % 16.73 C
2290 31-07-2016 00:00:00 18.14444 C 80.7535 % 14.79 C
2291 01-08-2016 00:00:00 16.63958 C 78.4757 % 12.88 C
2292 02-08-2016 00:00:00 16.16875 C 92.2986 % 14.92 C
2293 03-08-2016 00:00:00 18.55174 C 94.0938 % 17.58 C
2294 04-08-2016 00:00:00 18.01667 C 94.7188 % 17.16 C
2295 05-08-2016 00:00:00 16.58403 C 88.5486 % 14.69 C
2296 06-08-2016 00:00:00 17.59097 C 86.3924 % 15.29 C
2297 07-08-2016 00:00:00 18.92153 C 81.4306 % 15.67 C
2298 08-08-2016 00:00:00 19.25521 C 77.6701 % 15.26 C
2299 09-08-2016 00:00:00 16.42986 C 72.2361 % 11.42 C
2300 10-08-2016 00:00:00 13.02465 C 80.0243 % 9.66 C
Sensor: Nr:Datum:Temp:Feuchte:Taupunkt:
Aussen-T/F 2301 11-08-2016 00:00:00 12.3 C 83.5417 % 9.6 C
2302 12-08-2016 00:00:00 17.31701 C 90.8264 % 15.8 C
2303 13-08-2016 00:00:00 20.62604 C 78.3715 % 16.73 C
2304 14-08-2016 00:00:00 19.08924 C 80.5139 % 15.66 C
2305 15-08-2016 00:00:00 18.95451 C 78.0243 % 15.04 C
2306 16-08-2016 00:00:00 18.07778 C 75.1632 % 13.61 C
2307 17-08-2016 00:00:00 18.14653 C 73.3785 % 13.31 C
2308 18-08-2016 00:00:00 17.22743 C 82.1597 % 14.16 C
2309 19-08-2016 00:00:00 19.36181 C 83.5174 % 16.5 C
2310 20-08-2016 00:00:00 18.84757 C 83.1701 % 15.93 C
2311 21-08-2016 00:00:00 17.07361 C 80.3611 % 13.67 C
2312 22-08-2016 00:00:00 17.30799 C 84.0833 % 14.59 C
2313 23-08-2016 00:00:00 19.09167 C 77.7708 % 15.12 C
2314 24-08-2016 00:00:00 20.54583 C 77.3750 % 16.45 C
2315 25-08-2016 00:00:00 21.59896 C 76.2118 % 17.23 C
2316 26-08-2016 00:00:00 22.53715 C 76.8542 % 18.27 C
2317 27-08-2016 00:00:00 23.96528 C 78.7674 % 20.05 C
2318 28-08-2016 00:00:00 23.4684 C 72.0660 % 18.14 C
2319 29-08-2016 00:00:00 18.98993 C 79.2326 % 15.31 C
2320 30-08-2016 00:00:00 18.11736 C 75.7917 % 13.78 C
2321 31-08-2016 00:00:00 17.84514 C 77.5278 % 13.86 C
2322 01-09-2016 00:00:00 19.62431 C 75.6736 % 15.21 C
2323 02-09-2016 00:00:00 18.78785 C 78.7361 % 15.02 C
2324 03-09-2016 00:00:00 20.71944 C 73.6319 % 15.84 C
2325 04-09-2016 00:00:00 18.18681 C 81.7396 % 15.02 C
Sensor: Nr:Datum:Temp:Feuchte:Taupunkt:
Aussen-T/F 2326 05-09-2016 00:00:00 17.73715 C 79.3021 % 14.11 C
2327 06-09-2016 00:00:00 16.62882 C 82.0938 % 13.56 C
2328 07-09-2016 00:00:00 17.39792 C 80.3299 % 13.98 C
2329 08-09-2016 00:00:00 19.44722 C 79.7535 % 15.86 C
2330 09-09-2016 00:00:00 20.12222 C 70.5451 % 14.6 C
2331 10-09-2016 00:00:00 19.21944 C 81.0729 % 15.89 C
2332 11-09-2016 00:00:00 18.8684 C 76.5243 % 14.65 C
2333 12-09-2016 00:00:00 19.58437 C 79.0764 % 15.86 C
2334 13-09-2016 00:00:00 21.20937 C 77.7431 % 17.17 C
2335 14-09-2016 00:00:00 20.91319 C 74.3924 % 16.19 C
2336 15-09-2016 00:00:00 20.02847 C 76.3229 % 15.74 C
2337 16-09-2016 00:00:00 17.33889 C 85.6076 % 14.9 C
2338 17-09-2016 00:00:00 15.96146 C 85.0660 % 13.45 C
2339 18-09-2016 00:00:00 17.13993 C 89.9549 % 15.48 C
2340 19-09-2016 00:00:00 15.49201 C 84.4688 % 12.89 C
2341 20-09-2016 00:00:00 14.8184 C 88.4965 % 12.94 C
2342 21-09-2016 00:00:00 13.86563 C 78.4618 % 10.19 C
2343 22-09-2016 00:00:00 11.70625 C 84.6944 % 9.22 C
2344 23-09-2016 00:00:00 13.62518 C 86.6383 % 11.44 C
2345 24-09-2016 00:00:00 13.82326 C 85.2188 % 11.39 C
2346 25-09-2016 00:00:00 14.39201 C 85.4653 % 11.99 C
2347 26-09-2016 00:00:00 14.99062 C 86.0799 % 12.68 C
2348 27-09-2016 00:00:00 13.42847 C 93.2951 % 12.37 C
2349 28-09-2016 00:00:00 15.2816 C 85.6632 % 12.9 C
2350 29-09-2016 00:00:00 18.69375 C 79.3299 % 15.04 C
Sensor: Nr:Datum:Temp:Feuchte:Taupunkt:
Aussen-T/F 2351 30-09-2016 00:00:00 15.12813 C 89.0451 % 13.34 C
2352 01-10-2016 00:00:00 13.55804 C 95.6643 % 12.88 C
2353 02-10-2016 00:00:00 12.49271 C 89.3333 % 10.79 C
2354 03-10-2016 00:00:00 12.49236 C 92.3958 % 11.29 C
2355 04-10-2016 00:00:00 10.89931 C 93.8333 % 9.95 C
2356 05-10-2016 00:00:00 8.62465 C 83.2986 % 5.96 C
2357 06-10-2016 00:00:00 7.98125 C 88.4201 % 6.19 C
2358 07-10-2016 00:00:00 10.85069 C 93.5208 % 9.85 C
2359 08-10-2016 00:00:00 9.28854 C 94.1042 % 8.39 C
2360 09-10-2016 00:00:00 8.50868 C 91.9167 % 7.27 C
2361 10-10-2016 00:00:00 6.46875 C 92.8993 % 5.41 C
2362 11-10-2016 00:00:00 7.98993 C 90.9514 % 6.61 C
2363 12-10-2016 00:00:00 8.69201 C 90.6111 % 7.24 C
2364 13-10-2016 00:00:00 7.54583 C 87.7118 % 5.64 C
2365 14-10-2016 00:00:00 9.31042 C 87.7674 % 7.39 C
2366 15-10-2016 00:00:00 11.21667 C 90.9028 % 9.79 C
2367 16-10-2016 00:00:00 8.72222 C 95.3646 % 8.02 C
2368 17-10-2016 00:00:00 10.64132 C 96.5833 % 10.12 C
2369 18-10-2016 00:00:00 11.33924 C 92.4236 % 10.16 C
2370 19-10-2016 00:00:00 9.26389 C 89.1597 % 7.57 C
2371 20-10-2016 00:00:00 8.03368 C 95.9097 % 7.42 C
2372 21-10-2016 00:00:00 7.65845 C 95.9498 % 7.05 C
2373 22-10-2016 00:00:00 7.80729 C 96.0000 % 7.21 C
2374 23-10-2016 00:00:00 6.84236 C 95.3368 % 6.15 C
2375 24-10-2016 00:00:00 9.37778 C 96.9931 % 8.93 C
Sensor: Nr:Datum:Temp:Feuchte:Taupunkt:
Aussen-T/F 2376 25-10-2016 00:00:00 11.21424 C 95.8507 % 10.58 C
2377 26-10-2016 00:00:00 9.47049 C 94.1597 % 8.58 C
2378 27-10-2016 00:00:00 8.9309 C 95.3750 % 8.23 C
2379 28-10-2016 00:00:00 11.35833 C 91.6597 % 10.05 C
2380 29-10-2016 00:00:00 11.58854 C 90.4965 % 10.09 C
2381 30-10-2016 00:00:00 7.61215 C 95.8229 % 6.99 C
2382 31-10-2016 00:00:00 7.10417 C 96.0694 % 6.52 C
2383 01-11-2016 00:00:00 6.92431 C 97.0694 % 6.49 C
2384 02-11-2016 00:00:00 7.39618 C 91.7292 % 6.14 C
2385 03-11-2016 00:00:00 6.31493 C 91.8819 % 5.09 C
2386 04-11-2016 00:00:00 4.72674 C 94.8819 % 3.98 C
2387 05-11-2016 00:00:00 6.88299 C 96.7118 % 6.4 C
2388 06-11-2016 00:00:00 5.54201 C 89.6458 % 3.98 C
2389 07-11-2016 00:00:00 4.69097 C 93.6354 % 3.75 C
2390 08-11-2016 00:00:00 3.20521 C 92.4167 % 2.1 C
2391 09-11-2016 00:00:00 3.69722 C 94.5417 % 2.9 C
2392 10-11-2016 00:00:00 5.22847 C 94.8403 % 4.47 C
2393 11-11-2016 00:00:00 5.08785 C 96.2569 % 4.54 C
2394 12-11-2016 00:00:00 2.06181 C 93.0764 % 1.06 C
2395 13-11-2016 00:00:00 2.12049 C 91.5347 % 0.89 C
2396 14-11-2016 00:00:00 -0.38611 C 93.0799 % -1.37 C
2397 15-11-2016 00:00:00 4.75208 C 92.9931 % 3.72 C
2398 16-11-2016 00:00:00 9.88715 C 95.6910 % 9.23 C
2399 17-11-2016 00:00:00 10.99757 C 89.4340 % 9.33 C
2400 18-11-2016 00:00:00 9.44792 C 85.6667 % 7.17 C
Sensor: Nr:Datum:Temp:Feuchte:Taupunkt:
Aussen-T/F 2401 19-11-2016 00:00:00 5.51319 C 87.6146 % 3.63 C
2402 20-11-2016 00:00:00 9.3559 C 81.1806 % 6.3 C
2403 21-11-2016 00:00:00 10.27813 C 92.0208 % 9.04 C
2404 22-11-2016 00:00:00 10.22222 C 93.8160 % 9.27 C
2405 23-11-2016 00:00:00 8.56389 C 96.9931 % 8.11 C
2406 24-11-2016 00:00:00 8.79306 C 94.5590 % 7.97 C
2407 25-11-2016 00:00:00 7.72222 C 85.3924 % 5.43 C
2408 26-11-2016 00:00:00 6.87708 C 88.3542 % 5.09 C
2409 27-11-2016 00:00:00 5.11215 C 92.9514 % 4.07 C
2410 28-11-2016 00:00:00 -0.13333 C 93.4583 % -1.06 C
2411 29-11-2016 00:00:00 -2.74097 C 91.0382 % -4 C
2412 30-11-2016 00:00:00 -2.71076 C 92.1319 % -3.81 C
2413 01-12-2016 00:00:00 3.3875 C 84.6354 % 1.05 C
2414 02-12-2016 00:00:00 5.17361 C 93.7917 % 4.26 C
2415 03-12-2016 00:00:00 -0.32882 C 96.9410 % -0.75 C
2416 04-12-2016 00:00:00 -2.61215 C 96.1840 % -3.13 C
2417 05-12-2016 00:00:00 -3.83507 C 95.3438 % -4.47 C
2418 06-12-2016 00:00:00 -3.15903 C 95.5972 % -3.76 C
2419 07-12-2016 00:00:00 -0.29965 C 96.1111 % -0.84 C
2420 08-12-2016 00:00:00 1.07778 C 94.8542 % 0.35 C
2421 09-12-2016 00:00:00 6.58819 C 84.4861 % 4.17 C
2422 10-12-2016 00:00:00 5.04201 C 91.7743 % 3.82 C
2423 11-12-2016 00:00:00 8.10174 C 85.5174 % 5.82 C
2424 12-12-2016 00:00:00 6.76563 C 92.9792 % 5.71 C
2425 13-12-2016 00:00:00 4.10868 C 96.3160 % 3.58 C
Sensor: Nr:Datum:Temp:Feuchte:Taupunkt:
Aussen-T/F 2426 14-12-2016 00:00:00 6.42569 C 95.7986 % 5.81 C
2427 15-12-2016 00:00:00 6.89583 C 94.3924 % 6.06 C
2428 16-12-2016 00:00:00 4.60451 C 88.2778 % 2.84 C
2429 17-12-2016 00:00:00 3.86806 C 91.7222 % 2.65 C
2430 18-12-2016 00:00:00 5.3059 C 94.3750 % 4.48 C
2431 19-12-2016 00:00:00 4.3816 C 89.4236 % 2.8 C
2432 20-12-2016 00:00:00 1.0875 C 91.6424 % -0.12 C
2433 21-12-2016 00:00:00 2.26076 C 91.9444 % 1.09 C
2434 22-12-2016 00:00:00 3.84896 C 93.6701 % 2.92 C
2435 23-12-2016 00:00:00 4.14757 C 95.4340 % 3.48 C
2436 24-12-2016 00:00:00 7.17188 C 86.6597 % 5.1 C
2437 25-12-2016 00:00:00 8.5434 C 89.2674 % 6.88 C
2438 26-12-2016 00:00:00 7.71215 C 88.2118 % 5.89 C
2439 27-12-2016 00:00:00 4.30139 C 88.8160 % 2.62 C
2440 28-12-2016 00:00:00 3.53819 C 90.0035 % 2.06 C
2441 29-12-2016 00:00:00 -1.78438 C 96.3299 % -2.29 C
2442 30-12-2016 00:00:00 -2.37014 C 96.3924 % -2.86 C
2443 31-12-2016 00:00:00 -4.09028 C 95.6424 % -4.68 C
2444 01-01-2017 00:00:00 -2.24792 C 95.3854 % -2.88 C
2445 02-01-2017 00:00:00 0.68021 C 94.3229 % -0.12 C
2446 03-01-2017 00:00:00 1.83819 C 91.4340 % 0.59 C
2447 04-01-2017 00:00:00 3.52049 C 90.0556 % 2.05 C
2448 05-01-2017 00:00:00 0.04687 C 83.2813 % -2.44 C
2449 06-01-2017 00:00:00 -6.48125 C 90.3090 % -7.8 C
2450 07-01-2017 00:00:00 -4.20694 C 86.7674 % -6.08 C
Sensor: Nr:Datum:Temp:Feuchte:Taupunkt:
Aussen-T/F 2451 08-01-2017 00:00:00 0.59306 C 95.4583 % -0.05 C
2452 09-01-2017 00:00:00 2.15 C 93.8819 % 1.27 C
2453 10-01-2017 00:00:00 1.40799 C 95.5625 % 0.78 C
2454 11-01-2017 00:00:00 3.72639 C 93.5799 % 2.79 C
2455 12-01-2017 00:00:00 4.3066 C 88.2396 % 2.54 C
2456 13-01-2017 00:00:00 2.18576 C 91.4097 % 0.94 C
2457 14-01-2017 00:00:00 2.66806 C 85.3611 % 0.46 C
2458 15-01-2017 00:00:00 0.83819 C 92.1910 % -0.28 C
2459 16-01-2017 00:00:00 -1.62361 C 93.6910 % -2.5 C
2460 17-01-2017 00:00:00 -3.91493 C 91.1875 % -5.14 C
2461 18-01-2017 00:00:00 -5.38646 C 91.6875 % -6.52 C
2462 19-01-2017 00:00:00 -6.17292 C 92.2153 % -7.23 C
2463 20-01-2017 00:00:00 -6.54167 C 91.1458 % -7.74 C
2464 21-01-2017 00:00:00 -5.94167 C 92.0660 % -7.02 C
2465 22-01-2017 00:00:00 -7.48889 C 92.6806 % -8.47 C
2466 23-01-2017 00:00:00 -5.41458 C 93.0035 % -6.36 C
2467 24-01-2017 00:00:00 -0.75035 C 91.2257 % -2 C
2468 25-01-2017 00:00:00 -1.16701 C 83.8021 % -3.55 C
2469 26-01-2017 00:00:00 -1.71667 C 84.5069 % -3.98 C
2470 27-01-2017 00:00:00 -3.44306 C 90.2188 % -4.81 C
2471 28-01-2017 00:00:00 -1.90347 C 90.7083 % -3.22 C
2472 29-01-2017 00:00:00 2.8691 C 91.9722 % 1.7 C
2473 30-01-2017 00:00:00 4.73507 C 94.6528 % 3.95 C
2474 31-01-2017 00:00:00 3.29583 C 91.5174 % 2.05 C
2475 01-02-2017 00:00:00 3.48611 C 87.9896 % 1.69 C
Sensor: Nr:Datum:Temp:Feuchte:Taupunkt:
Aussen-T/F 2476 02-02-2017 00:00:00 5.1434 C 94.4132 % 4.32 C
2477 03-02-2017 00:00:00 5.66007 C 94.2396 % 4.81 C
2478 04-02-2017 00:00:00 6.00556 C 89.9549 % 4.49 C
2479 05-02-2017 00:00:00 4.83993 C 91.1181 % 3.52 C
2480 06-02-2017 00:00:00 3.82396 C 89.6493 % 2.28 C
2481 07-02-2017 00:00:00 4.2184 C 89.5347 % 2.66 C
2482 08-02-2017 00:00:00 2.98785 C 85.8160 % 0.85 C
2483 09-02-2017 00:00:00 0.05903 C 84.0729 % -2.3 C
2484 10-02-2017 00:00:00 0.67222 C 82.7813 % -1.91 C
2485 11-02-2017 00:00:00 1.79896 C 93.6910 % 0.89 C
2486 12-02-2017 00:00:00 2.74132 C 92.1215 % 1.59 C
2487 13-02-2017 00:00:00 3.48576 C 82.9653 % 0.87 C
2488 14-02-2017 00:00:00 1.66042 C 85.0833 % -0.57 C
2489 15-02-2017 00:00:00 2.27639 C 90.1181 % 0.83 C
2490 16-02-2017 00:00:00 4.06597 C 95.0382 % 3.34 C
2491 17-02-2017 00:00:00 6.02222 C 95.7882 % 5.4 C
2492 18-02-2017 00:00:00 5.94097 C 89.9375 % 4.42 C
2493 19-02-2017 00:00:00 3.47083 C 91.4722 % 2.22 C
2494 20-02-2017 00:00:00 8.45104 C 91.1111 % 7.09 C
2495 21-02-2017 00:00:00 10.41458 C 92.1806 % 9.2 C
2496 22-02-2017 00:00:00 11.10243 C 86.9167 % 9.01 C
2497 23-02-2017 00:00:00 9.37708 C 82.3160 % 6.52 C
2498 24-02-2017 00:00:00 5.21007 C 80.1215 % 2.07 C
2499 25-02-2017 00:00:00 3.83993 C 84.8889 % 1.54 C
2500 26-02-2017 00:00:00 8.62951 C 75.2188 % 4.5 C
Sensor: Nr:Datum:Temp:Feuchte:Taupunkt:
Aussen-T/F 2501 27-02-2017 00:00:00 10.96042 C 73.1771 % 6.35 C
2502 28-02-2017 00:00:00 5.79618 C 82.1285 % 2.99 C
2503 01-03-2017 00:00:00 6.67257 C 86.8229 % 4.64 C
2504 02-03-2017 00:00:00 8.27986 C 68.5764 % 2.85 C
2505 03-03-2017 00:00:00 6.21771 C 76.6840 % 2.44 C
2506 04-03-2017 00:00:00 10.95451 C 72.5382 % 6.22 C
2507 05-03-2017 00:00:00 7.21354 C 86.9063 % 5.18 C
2508 06-03-2017 00:00:00 6.48333 C 88.9306 % 4.79 C
2509 07-03-2017 00:00:00 6.06806 C 92.0243 % 4.87 C
2510 08-03-2017 00:00:00 5.01528 C 95.6597 % 4.38 C
2511 09-03-2017 00:00:00 11.11146 C 85.3472 % 8.75 C
2512 10-03-2017 00:00:00 7.4684 C 74.9896 % 3.33 C
2513 11-03-2017 00:00:00 6.7316 C 76.7847 % 2.95 C
2514 12-03-2017 00:00:00 6.62813 C 73.0590 % 2.15 C
2515 13-03-2017 00:00:00 6.71007 C 76.5278 % 2.88 C
2516 14-03-2017 00:00:00 9.45625 C 79.7708 % 6.14 C
2517 15-03-2017 00:00:00 10.41493 C 79.8819 % 7.1 C
2518 16-03-2017 00:00:00 8.32569 C 79.1250 % 4.93 C
2519 17-03-2017 00:00:00 8.68507 C 77.3438 % 4.95 C
2520 18-03-2017 00:00:00 9.53889 C 87.9514 % 7.64 C
2521 19-03-2017 00:00:00 12.1559 C 84.9444 % 9.7 C
2522 20-03-2017 00:00:00 11.60278 C 74.2986 % 7.19 C
2523 21-03-2017 00:00:00 9.375 C 83.3090 % 6.69 C
2524 22-03-2017 00:00:00 5.39132 C 87.9861 % 3.57 C
2525 23-03-2017 00:00:00 8.8434 C 81.9097 % 5.93 C
Sensor: Nr:Datum:Temp:Feuchte:Taupunkt:
Aussen-T/F 2526 24-03-2017 00:00:00 9.49444 C 76.3194 % 5.54 C
2527 25-03-2017 00:00:00 9.21424 C 65.5590 % 3.11 C
2528 26-03-2017 00:00:00 9.36594 C 63.8080 % 2.87 C
2529 27-03-2017 00:00:00 8.83194 C 64.8194 % 2.59 C
2530 28-03-2017 00:00:00 10.73819 C 69.2431 % 5.34 C
2531 29-03-2017 00:00:00 12.89063 C 73.7014 % 8.31 C
2532 30-03-2017 00:00:00 14.33507 C 72.3819 % 9.44 C
2533 31-03-2017 00:00:00 13.69896 C 69.0938 % 8.14 C
2534 01-04-2017 00:00:00 13.59792 C 71.9792 % 8.65 C
2535 02-04-2017 00:00:00 11.71736 C 74.2222 % 7.29 C
2536 03-04-2017 00:00:00 10.47257 C 76.1042 % 6.45 C
2537 04-04-2017 00:00:00 9.3059 C 73.6285 % 4.85 C
2538 05-04-2017 00:00:00 8.78889 C 75.9444 % 4.79 C
2539 06-04-2017 00:00:00 8.65278 C 73.7292 % 4.23 C
2540 07-04-2017 00:00:00 11.31566 C 70.4578 % 6.14 C
2541 08-04-2017 00:00:00 14.59887 C 63.6780 % 7.8 C
2542 09-04-2017 00:00:00 12.46215 C 72.6910 % 7.7 C
2543 10-04-2017 00:00:00 10.93993 C 75.5174 % 6.79 C
2544 11-04-2017 00:00:00 9.67188 C 68.7778 % 4.22 C
2545 12-04-2017 00:00:00 11.34167 C 67.3993 % 5.53 C
2546 13-04-2017 00:00:00 11.57153 C 68.3403 % 5.95 C
2547 14-04-2017 00:00:00 9.77708 C 68.5660 % 4.28 C
2548 15-04-2017 00:00:00 9.0875 C 81.6493 % 6.12 C
2549 16-04-2017 00:00:00 7.52083 C 79.0590 % 4.13 C
2550 17-04-2017 00:00:00 6.82257 C 84.8090 % 4.45 C
Sensor: Nr:Datum:Temp:Feuchte:Taupunkt:
Aussen-T/F 2551 18-04-2017 00:00:00 5.52187 C 80.9167 % 2.51 C
2552 19-04-2017 00:00:00 4.23646 C 70.6042 % -0.62 C
2553 20-04-2017 00:00:00 4.68715 C 68.7882 % -0.54 C
2554 21-04-2017 00:00:00 7.98299 C 70.7431 % 3 C
2555 22-04-2017 00:00:00 9.60278 C 72.4063 % 4.89 C
2556 23-04-2017 00:00:00 7.34722 C 68.6632 % 1.98 C
2557 24-04-2017 00:00:00 8.25764 C 68.6424 % 2.84 C
2558 25-04-2017 00:00:00 8.07118 C 68.6493 % 2.67 C
2559 26-04-2017 00:00:00 7.03611 C 68.0208 % 1.55 C
2560 27-04-2017 00:00:00 7.07917 C 67.6528 % 1.51 C
2561 28-04-2017 00:00:00 6.15972 C 79.5104 % 2.89 C
2562 29-04-2017 00:00:00 8.79132 C 71.5069 % 3.93 C
2563 30-04-2017 00:00:00 11.04896 C 60.7951 % 3.78 C
2564 01-05-2017 00:00:00 10.13576 C 85.0347 % 7.74 C
2565 02-05-2017 00:00:00 9.00868 C 95.4549 % 8.32 C
2566 03-05-2017 00:00:00 10.15694 C 90.6042 % 8.69 C
2567 04-05-2017 00:00:00 11.64722 C 89.7361 % 10.02 C
2568 05-05-2017 00:00:00 11.58021 C 81.0417 % 8.44 C
2569 06-05-2017 00:00:00 12.91042 C 78.0139 % 9.17 C
2570 07-05-2017 00:00:00 13.1434 C 93.6319 % 12.14 C
2571 08-05-2017 00:00:00 9.64306 C 86.9063 % 7.57 C
2572 09-05-2017 00:00:00 9.69931 C 70.4861 % 4.6 C
2573 10-05-2017 00:00:00 10.29583 C 70.5590 % 5.19 C
2574 11-05-2017 00:00:00 14.23542 C 73.0590 % 9.48 C
2575 12-05-2017 00:00:00 15.89479 C 85.6250 % 13.49 C
Sensor: Nr:Datum:Temp:Feuchte:Taupunkt:
Aussen-T/F 2576 13-05-2017 00:00:00 17.24514 C 75.3472 % 12.85 C
2577 14-05-2017 00:00:00 16.17049 C 80.8993 % 12.89 C
2578 15-05-2017 00:00:00 15.43403 C 72.0104 % 10.42 C
2579 16-05-2017 00:00:00 18.86458 C 61.2049 % 11.24 C
2580 17-05-2017 00:00:00 20.20243 C 65.0521 % 13.43 C
2581 18-05-2017 00:00:00 17.96042 C 84.5729 % 15.32 C
2582 19-05-2017 00:00:00 13.45694 C 96.0694 % 12.84 C
2583 20-05-2017 00:00:00 12.04375 C 83.9931 % 9.43 C
2584 21-05-2017 00:00:00 13.43889 C 75.2118 % 9.14 C
2585 22-05-2017 00:00:00 16.05417 C 73.8090 % 11.39 C
2586 23-05-2017 00:00:00 18.46736 C 69.4410 % 12.78 C
2587 24-05-2017 00:00:00 16.81771 C 73.7639 % 12.11 C
2588 25-05-2017 00:00:00 18.59167 C 70.2604 % 13.07 C
2589 26-05-2017 00:00:00 18.71042 C 70.8472 % 13.31 C
2590 27-05-2017 00:00:00 21.17049 C 66.6285 % 14.72 C
2591 28-05-2017 00:00:00 21.21493 C 78.3993 % 17.31 C
2592 29-05-2017 00:00:00 23.54271 C 75.5660 % 18.97 C
2593 30-05-2017 00:00:00 21.97847 C 74.9549 % 17.33 C
2594 31-05-2017 00:00:00 18.61667 C 68.5278 % 12.72 C
2595 01-06-2017 00:00:00 18.99792 C 71.5590 % 13.74 C
2596 02-06-2017 00:00:00 19.04583 C 83.6771 % 16.22 C
2597 03-06-2017 00:00:00 18.89236 C 93.4132 % 17.81 C
2598 04-06-2017 00:00:00 16.44306 C 84.5556 % 13.83 C
2599 05-06-2017 00:00:00 16.50278 C 76.9792 % 12.46 C
2600 06-06-2017 00:00:00 15.18958 C 77.8750 % 11.36 C
Sensor: Nr:Datum:Temp:Feuchte:Taupunkt:
Aussen-T/F 2601 07-06-2017 00:00:00 13.87778 C 75.5347 % 9.63 C
2602 08-06-2017 00:00:00 18.08924 C 68.5382 % 12.21 C
2603 09-06-2017 00:00:00 16.93299 C 81.6319 % 13.77 C
2604 10-06-2017 00:00:00 17.78368 C 70.4792 % 12.35 C
2605 11-06-2017 00:00:00 20.38229 C 71.8993 % 15.15 C
2606 12-06-2017 00:00:00 20.21667 C 59.4410 % 12.07 C
2607 13-06-2017 00:00:00 17.4059 C 67.4549 % 11.32 C
2608 14-06-2017 00:00:00 18.66597 C 69.6042 % 13 C
2609 15-06-2017 00:00:00 21.18299 C 70.3333 % 15.57 C
2610 16-06-2017 00:00:00 18.97743 C 62.8646 % 11.75 C
2611 17-06-2017 00:00:00 17.05035 C 76.4444 % 12.88 C
2612 18-06-2017 00:00:00 21.54514 C 69.8229 % 15.8 C
2613 19-06-2017 00:00:00 22.06667 C 64.3160 % 15.02 C
2614 20-06-2017 00:00:00 23.55069 C 62.5590 % 15.99 C
2615 21-06-2017 00:00:00 25.2191 C 62.1146 % 17.45 C
2616 22-06-2017 00:00:00 23.325 C 77.8264 % 19.23 C
2617 23-06-2017 00:00:00 22.47014 C 68.4063 % 16.36 C
2618 24-06-2017 00:00:00 20.09028 C 64.8924 % 13.28 C
2619 25-06-2017 00:00:00 20.12639 C 70.0938 % 14.51 C
2620 26-06-2017 00:00:00 21.1184 C 67.1667 % 14.79 C
2621 27-06-2017 00:00:00 18.80104 C 85.3229 % 16.29 C
2622 28-06-2017 00:00:00 19.80208 C 90.8299 % 18.26 C
2623 29-06-2017 00:00:00 17.97535 C 86.2396 % 15.64 C
2624 30-06-2017 00:00:00 17.41624 C 77.3875 % 13.42 C
2625 01-07-2017 00:00:00 16.45451 C 89.6250 % 14.74 C
Sensor: Nr:Datum:Temp:Feuchte:Taupunkt:
Aussen-T/F 2626 02-07-2017 00:00:00 16.87188 C 88.2361 % 14.91 C
2627 03-07-2017 00:00:00 17.94201 C 72.9201 % 13.02 C
2628 04-07-2017 00:00:00 19.98993 C 68.9375 % 14.12 C
2629 05-07-2017 00:00:00 21.5875 C 69.0903 % 15.68 C
2630 06-07-2017 00:00:00 21.41701 C 76.5278 % 17.12 C
2631 07-07-2017 00:00:00 23.46076 C 73.7674 % 18.51 C
2632 08-07-2017 00:00:00 22.5559 C 70.5035 % 16.92 C
2633 09-07-2017 00:00:00 22.69271 C 74.1007 % 17.84 C
2634 10-07-2017 00:00:00 19.75243 C 93.9792 % 18.76 C
2635 11-07-2017 00:00:00 19.33264 C 81.8993 % 16.16 C
2636 12-07-2017 00:00:00 17.22951 C 89.4514 % 15.48 C
2637 13-07-2017 00:00:00 15.53958 C 75.6667 % 11.26 C
2638 14-07-2017 00:00:00 16.34653 C 77.4965 % 12.41 C
2639 15-07-2017 00:00:00 16.46389 C 74.5417 % 11.93 C
2640 16-07-2017 00:00:00 19.03924 C 81.1215 % 15.73 C
2641 17-07-2017 00:00:00 20.61007 C 81.2743 % 17.29 C
2642 18-07-2017 00:00:00 21.7625 C 75.4965 % 17.24 C
2643 19-07-2017 00:00:00 23.46806 C 73.3090 % 18.42 C
2644 20-07-2017 00:00:00 21.83889 C 79.5764 % 18.15 C
2645 21-07-2017 00:00:00 20.14583 C 71.6979 % 14.88 C
2646 22-07-2017 00:00:00 21.77813 C 82.2743 % 18.62 C
2647 23-07-2017 00:00:00 18.27639 C 78.7153 % 14.52 C
2648 24-07-2017 00:00:00 14.9816 C 91.3681 % 13.59 C
2649 25-07-2017 00:00:00 14.46979 C 96.2014 % 13.87 C
2650 26-07-2017 00:00:00 17.50729 C 86.0139 % 15.14 C
Sensor: Nr:Datum:Temp:Feuchte:Taupunkt:
Aussen-T/F 2651 27-07-2017 00:00:00 18.9184 C 89.6250 % 17.18 C
2652 28-07-2017 00:00:00 17.14236 C 83.5694 % 14.34 C
2653 29-07-2017 00:00:00 20.44271 C 81.0174 % 17.07 C
2654 30-07-2017 00:00:00 22.74236 C 73.6667 % 17.8 C
2655 31-07-2017 00:00:00 20.73542 C 77.8750 % 16.74 C
2656 01-08-2017 00:00:00 19.90799 C 94.6424 % 19.02 C
2657 02-08-2017 00:00:00 21.09306 C 86.4688 % 18.75 C
2658 03-08-2017 00:00:00 21.32153 C 83.4271 % 18.4 C
2659 04-08-2017 00:00:00 20.4309 C 76.2500 % 16.11 C
2660 05-08-2017 00:00:00 18.99826 C 79.7326 % 15.42 C
2661 06-08-2017 00:00:00 17.06181 C 74.4028 % 12.48 C
2662 07-08-2017 00:00:00 17.21319 C 74.5313 % 12.65 C
2663 08-08-2017 00:00:00 17.34063 C 86.7500 % 15.11 C
2664 09-08-2017 00:00:00 17.64167 C 77.9826 % 13.76 C
2665 10-08-2017 00:00:00 15.45139 C 94.6771 % 14.6 C
2666 11-08-2017 00:00:00 14.99271 C 95.3889 % 14.26 C
2667 12-08-2017 00:00:00 15.39965 C 94.4688 % 14.52 C
2668 13-08-2017 00:00:00 18.25694 C 84.2813 % 15.56 C
2669 14-08-2017 00:00:00 18.07396 C 87.2535 % 15.92 C
2670 15-08-2017 00:00:00 18.78299 C 93.5243 % 17.72 C
2671 16-08-2017 00:00:00 19.80486 C 87.2847 % 17.63 C
2672 17-08-2017 00:00:00 19.18438 C 87.3125 % 17.02 C
2673 18-08-2017 00:00:00 18.28819 C 94.1632 % 17.33 C
2674 19-08-2017 00:00:00 14.62049 C 90.6076 % 13.1 C
2675 20-08-2017 00:00:00 14.85243 C 86.3993 % 12.6 C
Sensor: Nr:Datum:Temp:Feuchte:Taupunkt:
Aussen-T/F 2676 21-08-2017 00:00:00 15.85833 C 82.2049 % 12.83 C
2677 22-08-2017 00:00:00 15.7316 C 84.9097 % 13.2 C
2678 23-08-2017 00:00:00 17.82812 C 84.2535 % 15.14 C
2679 24-08-2017 00:00:00 19.30625 C 82.1632 % 16.19 C
2680 25-08-2017 00:00:00 18.12049 C 89.3993 % 16.35 C
2681 26-08-2017 00:00:00 20.59861 C 92.9132 % 19.41 C
2682 27-08-2017 00:00:00 19.43507 C 89.5035 % 17.66 C
2683 28-08-2017 00:00:00 19.49063 C 85.7882 % 17.05 C
2684 29-08-2017 00:00:00 19.97986 C 86.3507 % 17.63 C
2685 30-08-2017 00:00:00 20.58819 C 89.0903 % 18.73 C
2686 31-08-2017 00:00:00 17.03194 C 87.1493 % 14.88 C
2687 01-09-2017 00:00:00 13.72639 C 88.3785 % 11.84 C
2688 02-09-2017 00:00:00 14.2625 C 89.4271 % 12.55 C
2689 03-09-2017 00:00:00 13.22257 C 87.7743 % 11.24 C
2690 04-09-2017 00:00:00 13.75208 C 90.0313 % 12.15 C
2691 05-09-2017 00:00:00 17.85347 C 90.3160 % 16.25 C
2692 06-09-2017 00:00:00 17.36389 C 78.5868 % 13.61 C
2693 07-09-2017 00:00:00 15.38472 C 80.6389 % 12.08 C
2694 08-09-2017 00:00:00 15.88958 C 80.7917 % 12.6 C
2695 09-09-2017 00:00:00 14.59236 C 91.5764 % 13.24 C
2696 10-09-2017 00:00:00 13.23924 C 88.7951 % 11.43 C
2697 11-09-2017 00:00:00 14.41667 C 84.9861 % 11.93 C
2698 12-09-2017 00:00:00 14.27674 C 84.4097 % 11.69 C
2699 13-09-2017 00:00:00 14.43993 C 87.5729 % 12.4 C
2700 14-09-2017 00:00:00 11.98194 C 92.1076 % 10.74 C
Sensor: Nr:Datum:Temp:Feuchte:Taupunkt:
Aussen-T/F 2701 15-09-2017 00:00:00 12.37917 C 88.0347 % 10.46 C
2702 16-09-2017 00:00:00 10.41007 C 88.3021 % 8.56 C
2703 17-09-2017 00:00:00 9.97118 C 94.9861 % 9.21 C
2704 18-09-2017 00:00:00 10.50764 C 90.8785 % 9.08 C
2705 19-09-2017 00:00:00 11.95903 C 92.7049 % 10.82 C
2706 20-09-2017 00:00:00 11.3184 C 92.6076 % 10.17 C
2707 21-09-2017 00:00:00 10.7559 C 92.2222 % 9.55 C
2708 22-09-2017 00:00:00 11.39757 C 92.7222 % 10.26 C
2709 23-09-2017 00:00:00 13.63785 C 89.4965 % 11.94 C
2710 24-09-2017 00:00:00 12.54826 C 93.5660 % 11.54 C
2711 25-09-2017 00:00:00 12.85729 C 92.9514 % 11.75 C
2712 26-09-2017 00:00:00 13.54097 C 92.1389 % 12.29 C
2713 27-09-2017 00:00:00 13.15069 C 94.1597 % 12.23 C
2714 28-09-2017 00:00:00 14.79861 C 93.9063 % 13.83 C
2715 29-09-2017 00:00:00 17.64722 C 91.7083 % 16.28 C
2716 30-09-2017 00:00:00 14.56597 C 95.2326 % 13.81 C
2717 01-10-2017 00:00:00 11.45937 C 95.0451 % 10.69 C
2718 02-10-2017 00:00:00 14.42951 C 92.9132 % 13.3 C
2719 03-10-2017 00:00:00 12.49618 C 88.9201 % 10.72 C
2720 04-10-2017 00:00:00 11.37812 C 88.0972 % 9.48 C
2721 05-10-2017 00:00:00 12.35868 C 85.7847 % 10.05 C
2722 06-10-2017 00:00:00 9.83438 C 91.6285 % 8.54 C
2723 07-10-2017 00:00:00 10.24653 C 89.7535 % 8.64 C
2724 08-10-2017 00:00:00 11.93993 C 93.6181 % 10.94 C
2725 09-10-2017 00:00:00 11.42222 C 93.6285 % 10.43 C
Sensor: Nr:Datum:Temp:Feuchte:Taupunkt:
Aussen-T/F 2726 10-10-2017 00:00:00 13.19062 C 93.1424 % 12.11 C
2727 11-10-2017 00:00:00 13.59722 C 90.6111 % 12.09 C
2728 12-10-2017 00:00:00 13.7684 C 84.9618 % 11.29 C
2729 13-10-2017 00:00:00 14.15556 C 91.8646 % 12.85 C
2730 14-10-2017 00:00:00 13.13611 C 95.3750 % 12.41 C
2731 15-10-2017 00:00:00 12.53021 C 95.9410 % 11.9 C
2732 16-10-2017 00:00:00 13.45347 C 95.6215 % 12.77 C
2733 17-10-2017 00:00:00 13.09201 C 95.8299 % 12.44 C
2734 18-10-2017 00:00:00 12.20313 C 95.8264 % 11.56 C
2735 19-10-2017 00:00:00 11.5059 C 95.8472 % 10.87 C
2736 20-10-2017 00:00:00 10.5122 C 88.5610 % 8.71 C
2737 21-10-2017 00:00:00 11.76076 C 91.4410 % 10.41 C
2738 22-10-2017 00:00:00 10.78507 C 85.4340 % 8.44 C
2739 23-10-2017 00:00:00 10.79653 C 87.4826 % 8.8 C
2740 24-10-2017 00:00:00 13.69826 C 91.2465 % 12.3 C
2741 25-10-2017 00:00:00 15.51111 C 87.4271 % 13.43 C
2742 26-10-2017 00:00:00 13.26736 C 91.1389 % 11.85 C
2743 27-10-2017 00:00:00 11.49132 C 89.5660 % 9.84 C
2744 28-10-2017 00:00:00 10.36076 C 83.1944 % 7.64 C
2745 29-10-2017 00:00:00 10.65694 C 82.5243 % 7.81 C
2746 30-10-2017 00:00:00 7.17326 C 85.5243 % 4.91 C
2747 31-10-2017 00:00:00 7.26806 C 85.6944 % 5.04 C
2748 01-11-2017 00:00:00 8.73021 C 85.5313 % 6.44 C
2749 02-11-2017 00:00:00 8.66389 C 87.8333 % 6.76 C
2750 03-11-2017 00:00:00 7.17014 C 93.6285 % 6.21 C
Sensor: Nr:Datum:Temp:Feuchte:Taupunkt:
Aussen-T/F 2751 04-11-2017 00:00:00 8.34132 C 94.7292 % 7.55 C
2752 05-11-2017 00:00:00 8.89965 C 92.2083 % 7.71 C
2753 06-11-2017 00:00:00 5.51424 C 92.8542 % 4.45 C
2754 07-11-2017 00:00:00 4.45868 C 95.0833 % 3.74 C
2755 08-11-2017 00:00:00 6.63854 C 96.5035 % 6.12 C
2756 09-11-2017 00:00:00 7.54028 C 95.7569 % 6.91 C
2757 10-11-2017 00:00:00 7.46563 C 90.7535 % 6.06 C
2758 11-11-2017 00:00:00 6.4559 C 93.8090 % 5.53 C
2759 12-11-2017 00:00:00 4.6809 C 96.1632 % 4.12 C
2760 13-11-2017 00:00:00 5.61111 C 92.8125 % 4.54 C
2761 14-11-2017 00:00:00 4.67951 C 94.3785 % 3.86 C
2762 15-11-2017 00:00:00 6.91389 C 90.0799 % 5.4 C
2763 16-11-2017 00:00:00 4.84201 C 93.1424 % 3.83 C
2764 17-11-2017 00:00:00 6.01007 C 95.7535 % 5.38 C
2765 18-11-2017 00:00:00 3.55278 C 91.3403 % 2.28 C
2766 19-11-2017 00:00:00 5.66389 C 89.5764 % 4.09 C
2767 20-11-2017 00:00:00 5.24618 C 91.6250 % 4 C
2768 21-11-2017 00:00:00 9.24063 C 90.6597 % 7.79 C
2769 22-11-2017 00:00:00 8.26528 C 88.1146 % 6.42 C
2770 23-11-2017 00:00:00 9.3059 C 88.0486 % 7.43 C
2771 24-11-2017 00:00:00 10.45451 C 92.4028 % 9.28 C
2772 25-11-2017 00:00:00 5.3059 C 95.5521 % 4.65 C
2773 26-11-2017 00:00:00 3.77986 C 88.7986 % 2.11 C
2774 27-11-2017 00:00:00 5.66632 C 87.1875 % 3.71 C
2775 28-11-2017 00:00:00 4.26181 C 94.5347 % 3.46 C
Sensor: Nr:Datum:Temp:Feuchte:Taupunkt:
Aussen-T/F 2776 29-11-2017 00:00:00 3.03576 C 95.4618 % 2.38 C
2777 30-11-2017 00:00:00 2.44201 C 95.3958 % 1.78 C
2778 01-12-2017 00:00:00 1.13021 C 95.6389 % 0.51 C
2779 02-12-2017 00:00:00 0.97604 C 94.2361 % 0.16 C
2780 03-12-2017 00:00:00 0.67674 C 93.3958 % -0.26 C
2781 04-12-2017 00:00:00 3.2816 C 95.5799 % 2.64 C
2782 05-12-2017 00:00:00 4.74826 C 93.4792 % 3.79 C
2783 06-12-2017 00:00:00 5.89792 C 90.1493 % 4.41 C
2784 07-12-2017 00:00:00 4.77986 C 86.2465 % 2.68 C
2785 08-12-2017 00:00:00 3.52014 C 88.7153 % 1.84 C
2786 09-12-2017 00:00:00 1.27569 C 83.4618 % -1.21 C
2787 10-12-2017 00:00:00 2.40903 C 88.7049 % 0.74 C
2788 11-12-2017 00:00:00 6.02118 C 93.7708 % 5.1 C
2789 12-12-2017 00:00:00 3.72292 C 84.9792 % 1.44 C
2790 13-12-2017 00:00:00 3.81597 C 89.6875 % 2.28 C
2791 14-12-2017 00:00:00 4.58611 C 90.0625 % 3.1 C
2792 15-12-2017 00:00:00 2.98611 C 95.5903 % 2.35 C
2793 16-12-2017 00:00:00 3.04167 C 95.9618 % 2.46 C
2794 17-12-2017 00:00:00 3.05208 C 92.1076 % 1.9 C
2795 18-12-2017 00:00:00 1.66944 C 95.4444 % 1.02 C
2796 19-12-2017 00:00:00 3.35556 C 97.1146 % 2.94 C
2797 20-12-2017 00:00:00 5.65625 C 97.6389 % 5.31 C
2798 21-12-2017 00:00:00 7.51667 C 97.5556 % 7.16 C
2799 22-12-2017 00:00:00 8.8125 C 97.8889 % 8.5 C
2800 23-12-2017 00:00:00 8.76389 C 93.7813 % 7.82 C
Sensor: Nr:Datum:Temp:Feuchte:Taupunkt:
Aussen-T/F 2801 24-12-2017 00:00:00 8.92292 C 88.6319 % 7.15 C
2802 25-12-2017 00:00:00 6.77708 C 85.7292 % 4.56 C
2803 26-12-2017 00:00:00 4.68299 C 90.7431 % 3.3 C
2804 27-12-2017 00:00:00 5.13993 C 92.8854 % 4.09 C
2805 28-12-2017 00:00:00 3.24826 C 88.2396 % 1.49 C
2806 29-12-2017 00:00:00 2.41944 C 88.1667 % 0.67 C
2807 30-12-2017 00:00:00 7.77187 C 90.7882 % 6.36 C
2808 31-12-2017 00:00:00 12.74549 C 82.5729 % 9.86 C
2809 01-01-2018 00:00:00 7.71458 C 84.2153 % 5.22 C
2810 02-01-2018 00:00:00 6.21076 C 88.1979 % 4.41 C
2811 03-01-2018 00:00:00 8.40313 C 84.5174 % 5.95 C
2812 04-01-2018 00:00:00 8.24792 C 89.7014 % 6.66 C
2813 05-01-2018 00:00:00 8.32257 C 89.6424 % 6.72 C
2814 06-01-2018 00:00:00 6.22188 C 96.7917 % 5.75 C
2815 07-01-2018 00:00:00 5.11458 C 92.0417 % 3.93 C
2816 08-01-2018 00:00:00 4.61597 C 89.1007 % 2.98 C
2817 09-01-2018 00:00:00 5.0191 C 93.0521 % 3.99 C
2818 10-01-2018 00:00:00 6.95243 C 92.3472 % 5.8 C
2819 11-01-2018 00:00:00 6.99653 C 95.0660 % 6.26 C
2820 12-01-2018 00:00:00 6.57708 C 95.7674 % 5.95 C
2821 13-01-2018 00:00:00 5.39062 C 89.7813 % 3.85 C
2822 14-01-2018 00:00:00 2.95174 C 85.5208 % 0.77 C
2823 15-01-2018 00:00:00 3.65833 C 91.1181 % 2.35 C
2824 16-01-2018 00:00:00 6.14618 C 85.7569 % 3.94 C
2825 17-01-2018 00:00:00 3.45868 C 86.7569 % 1.47 C
Sensor: Nr:Datum:Temp:Feuchte:Taupunkt:
Aussen-T/F 2826 18-01-2018 00:00:00 5.94167 C 81.9479 % 3.1 C
2827 19-01-2018 00:00:00 3.96146 C 86.6771 % 1.95 C
2828 20-01-2018 00:00:00 3.05937 C 91.0486 % 1.74 C
2829 21-01-2018 00:00:00 2.72951 C 93.5451 % 1.8 C
2830 22-01-2018 00:00:00 5.11563 C 93.7708 % 4.2 C
2831 23-01-2018 00:00:00 7.37049 C 88.6250 % 5.62 C
2832 24-01-2018 00:00:00 11.38021 C 86.3785 % 9.19 C
2833 25-01-2018 00:00:00 9.87465 C 92.0243 % 8.64 C
2834 26-01-2018 00:00:00 6.62222 C 95.7396 % 5.99 C
2835 27-01-2018 00:00:00 4.73299 C 95.1771 % 4.03 C
2836 28-01-2018 00:00:00 7.29028 C 89.6285 % 5.7 C
2837 29-01-2018 00:00:00 9.82882 C 85.7674 % 7.56 C
2838 30-01-2018 00:00:00 5.41111 C 90.5104 % 3.99 C
2839 31-01-2018 00:00:00 7.52153 C 91.0938 % 6.16 C
2840 01-02-2018 00:00:00 3.10243 C 90.1632 % 1.65 C
2841 02-02-2018 00:00:00 3.41285 C 90.8958 % 2.07 C
2842 03-02-2018 00:00:00 3.47118 C 87.7292 % 1.63 C
2843 04-02-2018 00:00:00 1.1434 C 87.0208 % -0.77 C
2844 05-02-2018 00:00:00 0.32431 C 82.9236 % -2.23 C
2845 06-02-2018 00:00:00 -0.78056 C 89.0174 % -2.36 C
2846 07-02-2018 00:00:00 -0.06111 C 91.5799 % -1.26 C
2847 08-02-2018 00:00:00 -2.18819 C 88.7396 % -3.79 C
2848 09-02-2018 00:00:00 -1.96007 C 92.3854 % -3.03 C
2849 10-02-2018 00:00:00 2.22257 C 88.0660 % 0.46 C
2850 11-02-2018 00:00:00 3.32535 C 86.3333 % 1.27 C
Sensor: Nr:Datum:Temp:Feuchte:Taupunkt:
Aussen-T/F 2851 12-02-2018 00:00:00 2.1059 C 85.9479 % 0.01 C
2852 13-02-2018 00:00:00 -0.32674 C 85.2257 % -2.5 C
2853 14-02-2018 00:00:00 -1.52222 C 83.5069 % -3.95 C
2854 15-02-2018 00:00:00 1.83299 C 89.2535 % 0.26 C
2855 16-02-2018 00:00:00 2.01597 C 96.2500 % 1.48 C
2856 17-02-2018 00:00:00 0.40521 C 93.6354 % -0.5 C
2857 18-02-2018 00:00:00 -1.01701 C 92.6701 % -2.05 C
2858 19-02-2018 00:00:00 1.11667 C 88.7049 % -0.53 C
2859 20-02-2018 00:00:00 0.74271 C 87.0313 % -1.16 C
2860 21-02-2018 00:00:00 1.21181 C 77.1493 % -2.34 C
2861 22-02-2018 00:00:00 -0.03507 C 74.0938 % -4.09 C
2862 23-02-2018 00:00:00 -0.725 C 62.2674 % -7.03 C
2863 24-02-2018 00:00:00 -1.57049 C 63.0625 % -7.67 C
2864 25-02-2018 00:00:00 -2.70729 C 52.6701 % -11.03 C
2865 26-02-2018 00:00:00 -4.18854 C 66.9375 % -9.4 C
2866 27-02-2018 00:00:00 -6.00417 C 70.8264 % -10.43 C
2867 28-02-2018 00:00:00 -6.7066 C 65.9757 % -11.99 C
2868 01-03-2018 00:00:00 -2.91424 C 54.5035 % -10.79 C
2869 02-03-2018 00:00:00 -2.40208 C 62.9826 % -8.48 C
2870 03-03-2018 00:00:00 -0.40937 C 89.6736 % -1.89 C
2871 04-03-2018 00:00:00 4.02986 C 90.9965 % 2.7 C
2872 05-03-2018 00:00:00 5.96979 C 85.9965 % 3.81 C
2873 06-03-2018 00:00:00 4.90694 C 86.9583 % 2.92 C
2874 07-03-2018 00:00:00 5.39792 C 90.0556 % 3.9 C
2875 08-03-2018 00:00:00 6.19653 C 83.8368 % 3.67 C
Sensor: Nr:Datum:Temp:Feuchte:Taupunkt:
Aussen-T/F 2876 09-03-2018 00:00:00 5.56528 C 93.9514 % 4.67 C
2877 10-03-2018 00:00:00 10.03125 C 92.4792 % 8.87 C
2878 11-03-2018 00:00:00 10.51493 C 91.3854 % 9.17 C
2879 12-03-2018 00:00:00 9.7 C 90.2813 % 8.19 C
2880 13-03-2018 00:00:00 7.76667 C 88.1215 % 5.93 C
2881 14-03-2018 00:00:00 6.86458 C 83.6076 % 4.29 C
2882 15-03-2018 00:00:00 6.40382 C 83.6319 % 3.84 C
2883 16-03-2018 00:00:00 7.64097 C 94.7813 % 6.86 C
2884 17-03-2018 00:00:00 -0.44516 C 83.0573 % -2.96 C
2885 18-03-2018 00:00:00 -1.64028 C 75.3299 % -5.42 C
2886 19-03-2018 00:00:00 -0.54479 C 65.7778 % -6.15 C
2887 20-03-2018 00:00:00 0.29653 C 73.5035 % -3.87 C
2888 21-03-2018 00:00:00 1.2059 C 76.4132 % -2.47 C
2889 22-03-2018 00:00:00 3.06319 C 89.6667 % 1.54 C
2890 23-03-2018 00:00:00 6.14028 C 89.0799 % 4.48 C
2891 24-03-2018 00:00:00 5.20069 C 79.8715 % 2.02 C
2892 25-03-2018 00:00:00 5.42862 C 76.5217 % 1.64 C
2893 26-03-2018 00:00:00 7.61146 C 73.0313 % 3.1 C
2894 27-03-2018 00:00:00 5.82222 C 83.6181 % 3.27 C
2895 28-03-2018 00:00:00 8.50799 C 92.0278 % 7.29 C
2896 29-03-2018 00:00:00 7.11424 C 75.6701 % 3.12 C
2897 30-03-2018 00:00:00 6.82813 C 81.6910 % 3.92 C
2898 31-03-2018 00:00:00 8.09792 C 78.7083 % 4.63 C
2899 01-04-2018 00:00:00 7.66979 C 81.5451 % 4.72 C
2900 02-04-2018 00:00:00 8.78611 C 74.8715 % 4.58 C
Sensor: Nr:Datum:Temp:Feuchte:Taupunkt:
Aussen-T/F 2901 03-04-2018 00:00:00 13.35 C 67.7257 % 7.51 C
2902 04-04-2018 00:00:00 11.17187 C 85.0486 % 8.76 C
2903 05-04-2018 00:00:00 8.16042 C 84.2049 % 5.66 C
2904 06-04-2018 00:00:00 6.97187 C 72.9167 % 2.46 C
2905 07-04-2018 00:00:00 12.50035 C 66.5174 % 6.44 C
2906 08-04-2018 00:00:00 14.90417 C 67.3368 % 8.91 C
2907 09-04-2018 00:00:00 13.73333 C 72.7188 % 8.93 C
2908 10-04-2018 00:00:00 13.3816 C 78.1875 % 9.66 C
2909 11-04-2018 00:00:00 11.50035 C 87.5035 % 9.5 C
2910 12-04-2018 00:00:00 13.06493 C 80.5000 % 9.79 C
2911 13-04-2018 00:00:00 10.32188 C 88.1458 % 8.45 C
2912 14-04-2018 00:00:00 13.08403 C 76.3056 % 9.01 C
2913 15-04-2018 00:00:00 14.37465 C 81.8542 % 11.32 C
2914 16-04-2018 00:00:00 13.42882 C 78.5417 % 9.78 C
2915 17-04-2018 00:00:00 13.72569 C 74.7569 % 9.33 C
2916 18-04-2018 00:00:00 15.73264 C 69.7882 % 10.23 C
2917 19-04-2018 00:00:00 17.21806 C 66.2847 % 10.88 C
2918 20-04-2018 00:00:00 17.08681 C 67.8229 % 11.1 C
2919 21-04-2018 00:00:00 18.09931 C 71.2639 % 12.82 C
2920 22-04-2018 00:00:00 18.53681 C 73.1042 % 13.63 C
2921 23-04-2018 00:00:00 18.01181 C 70.6181 % 12.6 C
2922 24-04-2018 00:00:00 14.03854 C 72.5938 % 9.2 C
2923 25-04-2018 00:00:00 13.47917 C 75.5694 % 9.25 C
2924 26-04-2018 00:00:00 11.09167 C 65.0868 % 4.79 C
2925 27-04-2018 00:00:00 11.96181 C 67.8333 % 6.21 C
Sensor: Nr:Datum:Temp:Feuchte:Taupunkt:
Aussen-T/F 2926 28-04-2018 00:00:00 12.62917 C 72.8854 % 7.9 C
2927 29-04-2018 00:00:00 14.24792 C 85.8194 % 11.91 C
2928 30-04-2018 00:00:00 13.44931 C 77.7604 % 9.65 C
2929 01-05-2018 00:00:00 9.59063 C 69.6354 % 4.32 C
2930 02-05-2018 00:00:00 9.44549 C 75.6910 % 5.38 C
2931 03-05-2018 00:00:00 12.35347 C 68.5729 % 6.74 C
2932 04-05-2018 00:00:00 13.14618 C 65.4722 % 6.83 C
2933 05-05-2018 00:00:00 15.50764 C 61.2708 % 8.09 C
2934 06-05-2018 00:00:00 17.0059 C 57.6563 % 8.6 C
2935 07-05-2018 00:00:00 17.60312 C 61.7674 % 10.19 C
2936 08-05-2018 00:00:00 18.08264 C 62.5556 % 10.83 C
2937 09-05-2018 00:00:00 17.125 C 71.3160 % 11.89 C
2938 10-05-2018 00:00:00 14.09271 C 87.0729 % 11.98 C
2939 11-05-2018 00:00:00 14.47951 C 77.2778 % 10.55 C
2940 12-05-2018 00:00:00 16.39236 C 75.1597 % 11.99 C
2941 13-05-2018 00:00:00 14.62278 C 93.1317 % 13.53 C
2942 14-05-2018 00:00:00 16.77361 C 89.0556 % 14.96 C
2943 15-05-2018 00:00:00 15.91597 C 75.1875 % 11.53 C
2944 16-05-2018 00:00:00 15.4941 C 83.2118 % 12.66 C
2945 17-05-2018 00:00:00 13.78333 C 73.6285 % 9.16 C
2946 18-05-2018 00:00:00 12.14792 C 74.4757 % 7.75 C
2947 19-05-2018 00:00:00 13.63299 C 73.7118 % 9.03 C
2948 20-05-2018 00:00:00 14.00278 C 84.2917 % 11.4 C
2949 21-05-2018 00:00:00 17.43819 C 78.1806 % 13.6 C
2950 22-05-2018 00:00:00 16.97917 C 82.6944 % 14.02 C
Sensor: Nr:Datum:Temp:Feuchte:Taupunkt:
Aussen-T/F 2951 23-05-2018 00:00:00 17.30243 C 88.5104 % 15.39 C
2952 24-05-2018 00:00:00 17.125 C 87.8507 % 15.1 C
2953 25-05-2018 00:00:00 19.81944 C 80.2535 % 16.32 C
2954 26-05-2018 00:00:00 20.84826 C 76.3958 % 16.54 C
2955 27-05-2018 00:00:00 20.3191 C 81.4236 % 17.03 C
2956 28-05-2018 00:00:00 21.47083 C 81.6424 % 18.2 C
2957 29-05-2018 00:00:00 20.77292 C 85.9514 % 18.34 C
2958 30-05-2018 00:00:00 21.53403 C 77.5799 % 17.45 C
2959 31-05-2018 00:00:00 22.62083 C 74.5313 % 17.86 C
2960 01-06-2018 00:00:00 19.10729 C 88.6667 % 17.19 C
2961 02-06-2018 00:00:00 19.22917 C 81.5243 % 15.99 C
2962 03-06-2018 00:00:00 19.42708 C 77.5903 % 15.41 C
2963 04-06-2018 00:00:00 20.95938 C 74.2257 % 16.2 C
2964 05-06-2018 00:00:00 20.70035 C 77.2569 % 16.58 C
2965 06-06-2018 00:00:00 21.09375 C 74.2222 % 16.33 C
2966 07-06-2018 00:00:00 21.15174 C 80.5868 % 17.68 C
2967 08-06-2018 00:00:00 20.94375 C 84.2361 % 18.18 C
2968 09-06-2018 00:00:00 21.9125 C 83.9896 % 19.08 C
2969 10-06-2018 00:00:00 21.38239 C 86.1831 % 18.98 C
2970 11-06-2018 00:00:00 19.19444 C 93.4549 % 18.11 C
2971 12-06-2018 00:00:00 16.41979 C 90.3194 % 14.83 C
2972 13-06-2018 00:00:00 14.8941 C 79.6285 % 11.41 C
2973 14-06-2018 00:00:00 14.94132 C 80.6806 % 11.65 C
2974 15-06-2018 00:00:00 17.84236 C 88.0243 % 15.83 C
2975 16-06-2018 00:00:00 19.99306 C 78.6493 % 16.17 C
Sensor: Nr:Datum:Temp:Feuchte:Taupunkt:
Aussen-T/F 2976 17-06-2018 00:00:00 17.94167 C 75.1979 % 13.49 C
2977 18-06-2018 00:00:00 17.81667 C 77.9757 % 13.93 C
2978 19-06-2018 00:00:00 18.89201 C 84.5799 % 16.24 C
2979 20-06-2018 00:00:00 23.07639 C 72.0069 % 17.75 C
2980 21-06-2018 00:00:00 17.92639 C 69.4514 % 12.26 C
2981 22-06-2018 00:00:00 13.74097 C 68.4549 % 8.04 C
2982 23-06-2018 00:00:00 13.76424 C 76.4514 % 9.7 C
2983 24-06-2018 00:00:00 15.88264 C 72.8299 % 11.02 C
2984 25-06-2018 00:00:00 17.09201 C 78.1806 % 13.26 C
2985 26-06-2018 00:00:00 17.67396 C 74.6806 % 13.13 C
2986 27-06-2018 00:00:00 19.15694 C 67.6979 % 13.05 C
2987 28-06-2018 00:00:00 20.71076 C 61.1806 % 12.97 C
2988 29-06-2018 00:00:00 24.11424 C 56.0451 % 14.8 C
2989 30-06-2018 00:00:00 22.06215 C 56.9201 % 13.13 C
2990 01-07-2018 00:00:00 20.86597 C 42.7396 % 7.74 C
2991 02-07-2018 00:00:00 20.44792 C 45.9861 % 8.44 C
2992 03-07-2018 00:00:00 20.73299 C 50.1319 % 9.98 C
2993 04-07-2018 00:00:00 18.84167 C 80.7778 % 15.47 C
2994 05-07-2018 00:00:00 19.41111 C 88.5799 % 17.48 C
2995 06-07-2018 00:00:00 20.03056 C 75.7014 % 15.61 C
2996 07-07-2018 00:00:00 20.66701 C 67.2326 % 14.38 C
2997 08-07-2018 00:00:00 19.71181 C 58.3160 % 11.3 C
2998 09-07-2018 00:00:00 19.32361 C 67.3299 % 13.12 C
2999 10-07-2018 00:00:00 17.13715 C 73.0729 % 12.28 C
3000 11-07-2018 00:00:00 16.10729 C 82.2396 % 13.08 C
Sensor: Nr:Datum:Temp:Feuchte:Taupunkt:
Aussen-T/F 3001 12-07-2018 00:00:00 19.59688 C 80.3924 % 16.13 C
3002 13-07-2018 00:00:00 19.71166 C 77.4240 % 15.65 C
3003 14-07-2018 00:00:00 21.51493 C 67.9236 % 15.34 C
3004 15-07-2018 00:00:00 21.63021 C 64.0521 % 14.54 C
3005 16-07-2018 00:00:00 22.30868 C 61.5347 % 14.56 C
3006 17-07-2018 00:00:00 21.01771 C 65.8507 % 14.39 C
3007 18-07-2018 00:00:00 20.29479 C 65.8750 % 13.71 C
3008 19-07-2018 00:00:00 20.92431 C 60.5069 % 13 C
3009 20-07-2018 00:00:00 21.5559 C 61.6319 % 13.88 C
3010 21-07-2018 00:00:00 20.6125 C 77.3958 % 16.52 C
3011 22-07-2018 00:00:00 21.61458 C 70.0486 % 15.92 C
3012 23-07-2018 00:00:00 22.37917 C 67.0868 % 15.97 C
3013 24-07-2018 00:00:00 23.70278 C 63.7465 % 16.43 C
3014 25-07-2018 00:00:00 25.50069 C 57.3160 % 16.44 C
3015 26-07-2018 00:00:00 27.18785 C 54.2326 % 17.14 C
3016 27-07-2018 00:00:00 26.11146 C 50.4861 % 15.03 C
3017 28-07-2018 00:00:00 21.97743 C 76.3924 % 17.63 C
3018 29-07-2018 00:00:00 23.50521 C 66.0451 % 16.8 C
3019 30-07-2018 00:00:00 24.29931 C 64.4410 % 17.16 C
3020 31-07-2018 00:00:00 25.46875 C 61.9722 % 17.65 C
3021 01-08-2018 00:00:00 20.74271 C 87.4931 % 18.59 C
3022 02-08-2018 00:00:00 23.73056 C 74.2257 % 18.87 C
3023 03-08-2018 00:00:00 26.4684 C 61.0278 % 18.34 C
3024 04-08-2018 00:00:00 26.38714 C 57.9821 % 17.45 C
3025 05-08-2018 00:00:00 24.70486 C 59.6424 % 16.32 C
Sensor: Nr:Datum:Temp:Feuchte:Taupunkt:
Aussen-T/F 3026 06-08-2018 00:00:00 24.16944 C 57.6563 % 15.29 C
3027 07-08-2018 00:00:00 26.73646 C 55.5104 % 17.09 C
3028 08-08-2018 00:00:00 25.29618 C 61.3021 % 17.31 C
3029 09-08-2018 00:00:00 20.57778 C 82.7639 % 17.54 C
3030 10-08-2018 00:00:00 18.35486 C 65.3924 % 11.76 C
3031 11-08-2018 00:00:00 18.37083 C 59.8611 % 10.44 C
3032 12-08-2018 00:00:00 18.15451 C 63.0729 % 11.02 C
3033 13-08-2018 00:00:00 17.68854 C 81.8924 % 14.56 C
3034 14-08-2018 00:00:00 18.53958 C 84.6563 % 15.91 C
3035 15-08-2018 00:00:00 19.375 C 79.2465 % 15.69 C
3036 16-08-2018 00:00:00 20.74444 C 71.2743 % 15.36 C
3037 17-08-2018 00:00:00 19.75903 C 76.6632 % 15.54 C
3038 18-08-2018 00:00:00 18.88785 C 68.7326 % 13.02 C
3039 19-08-2018 00:00:00 20.30521 C 67.4132 % 14.07 C
3040 20-08-2018 00:00:00 20.84444 C 73.5938 % 15.95 C
3041 21-08-2018 00:00:00 21.96979 C 70.6528 % 16.39 C
3042 22-08-2018 00:00:00 23.24757 C 65.7500 % 16.48 C
3043 23-08-2018 00:00:00 22.88681 C 69.0660 % 16.91 C
3044 24-08-2018 00:00:00 19.03368 C 65.5556 % 12.44 C
3045 25-08-2018 00:00:00 14.525 C 69.8438 % 9.09 C
3046 26-08-2018 00:00:00 13.80556 C 67.7882 % 7.96 C
3047 27-08-2018 00:00:00 18.12604 C 70.1493 % 12.6 C
3048 28-08-2018 00:00:00 18.12917 C 67.6632 % 12.06 C
3049 29-08-2018 00:00:00 17.15556 C 80.1528 % 13.71 C
3050 30-08-2018 00:00:00 17.22778 C 75.0799 % 12.78 C
Sensor: Nr:Datum:Temp:Feuchte:Taupunkt:
Aussen-T/F 3051 31-08-2018 00:00:00 15.05521 C 72.2951 % 10.11 C
3052 01-09-2018 00:00:00 14.30833 C 69.0799 % 8.72 C
3053 02-09-2018 00:00:00 14.27188 C 76.5347 % 10.21 C
3054 03-09-2018 00:00:00 18.05417 C 80.5556 % 14.66 C
3055 04-09-2018 00:00:00 20.01736 C 79.3507 % 16.33 C
3056 05-09-2018 00:00:00 20.91701 C 73.3229 % 15.97 C
3057 06-09-2018 00:00:00 18.07014 C 87.7049 % 16 C
3058 07-09-2018 00:00:00 15.72639 C 86.9479 % 13.56 C
3059 08-09-2018 00:00:00 13.53889 C 76.5139 % 9.49 C
3060 09-09-2018 00:00:00 16.94236 C 70.6667 % 11.58 C
3061 10-09-2018 00:00:00 17.5 C 71.7396 % 12.34 C
3062 11-09-2018 00:00:00 18.85868 C 70.4028 % 13.36 C
3063 12-09-2018 00:00:00 19.08646 C 71.2882 % 13.77 C
3064 13-09-2018 00:00:00 16.3625 C 85.6632 % 13.96 C
3065 14-09-2018 00:00:00 16.95174 C 71.3056 % 11.73 C
3066 15-09-2018 00:00:00 15.14028 C 70.3368 % 9.78 C
3067 16-09-2018 00:00:00 14.7184 C 71.4063 % 9.6 C
3068 17-09-2018 00:00:00 16.79306 C 68.7813 % 11.03 C
3069 18-09-2018 00:00:00 19.05208 C 70.2292 % 13.51 C
3070 19-09-2018 00:00:00 20.67951 C 71.7535 % 15.4 C
3071 20-09-2018 00:00:00 19.17153 C 72.3785 % 14.09 C
3072 21-09-2018 00:00:00 15.93472 C 78.7778 % 12.26 C
3073 22-09-2018 00:00:00 12.7566 C 77.2465 % 8.88 C
3074 23-09-2018 00:00:00 12.33056 C 94.4167 % 11.46 C
3075 24-09-2018 00:00:00 9.92396 C 85.7674 % 7.66 C
Sensor: Nr:Datum:Temp:Feuchte:Taupunkt:
Aussen-T/F 3076 25-09-2018 00:00:00 8.38785 C 85.7431 % 6.14 C
3077 26-09-2018 00:00:00 8.82917 C 82.7153 % 6.06 C
3078 27-09-2018 00:00:00 11.32708 C 83.9236 % 8.71 C
3079 28-09-2018 00:00:00 10.18526 C 91.0982 % 8.8 C
3080 29-09-2018 00:00:00 8.2941 C 81.8056 % 5.37 C
3081 30-09-2018 00:00:00 7.9427 C 82.6726 % 5.18 C
3082 01-10-2018 00:00:00 9.71701 C 81.2778 % 6.67 C
3083 02-10-2018 00:00:00 9.17604 C 87.5625 % 7.22 C
3084 03-10-2018 00:00:00 12.2809 C 82.0521 % 9.31 C
3085 04-10-2018 00:00:00 9.78056 C 87.1875 % 7.75 C
3086 05-10-2018 00:00:00 10.63021 C 88.2743 % 8.77 C
3087 06-10-2018 00:00:00 12.7691 C 89.0000 % 11 C
3088 07-10-2018 00:00:00 13.00243 C 89.0833 % 11.25 C
3089 08-10-2018 00:00:00 10.50347 C 88.5521 % 8.69 C
3090 09-10-2018 00:00:00 11.75035 C 91.4340 % 10.4 C
3091 10-10-2018 00:00:00 13.21285 C 90.3646 % 11.67 C
3092 11-10-2018 00:00:00 14.21701 C 88.2674 % 12.31 C
3093 12-10-2018 00:00:00 15.87882 C 86.2604 % 13.59 C
3094 13-10-2018 00:00:00 15.57986 C 84.2257 % 12.93 C
3095 14-10-2018 00:00:00 14.79965 C 83.0174 % 11.95 C
3096 15-10-2018 00:00:00 13.825 C 84.5903 % 11.28 C
3097 16-10-2018 00:00:00 12.87292 C 86.4653 % 10.67 C
3098 17-10-2018 00:00:00 12.82847 C 88.3368 % 10.95 C
3099 18-10-2018 00:00:00 14.04618 C 88.4722 % 12.17 C
3100 19-10-2018 00:00:00 12.08785 C 87.8889 % 10.14 C
Sensor: Nr:Datum:Temp:Feuchte:Taupunkt:
Aussen-T/F 3101 20-10-2018 00:00:00 11.03542 C 86.2431 % 8.83 C
3102 21-10-2018 00:00:00 7.3066 C 91.4479 % 6.01 C
3103 22-10-2018 00:00:00 7.67014 C 90.5417 % 6.22 C
3104 23-10-2018 00:00:00 9.04306 C 84.6944 % 6.61 C
3105 24-10-2018 00:00:00 14.07604 C 86.3472 % 11.83 C
3106 25-10-2018 00:00:00 12.94722 C 83.3368 % 10.19 C
3107 26-10-2018 00:00:00 10.21354 C 80.8299 % 7.07 C
3108 27-10-2018 00:00:00 6.27118 C 90.9340 % 4.9 C
3109 28-10-2018 00:00:00 5.67778 C 83.1424 % 3.05 C
3110 29-10-2018 00:00:00 6.43264 C 84.8160 % 4.07 C
3111 30-10-2018 00:00:00 6.2809 C 91.5868 % 5.02 C
3112 31-10-2018 00:00:00 7.45382 C 86.8194 % 5.41 C
3113 01-11-2018 00:00:00 6.13194 C 95.0799 % 5.4 C
3114 02-11-2018 00:00:00 8.86597 C 94.0486 % 7.96 C
3115 03-11-2018 00:00:00 3.50521 C 96.4549 % 3 C
3116 04-11-2018 00:00:00 6.86007 C 95.2361 % 6.15 C
3117 05-11-2018 00:00:00 10.39097 C 92.1042 % 9.17 C
3118 06-11-2018 00:00:00 8.41806 C 95.6667 % 7.77 C
3119 07-11-2018 00:00:00 9.32118 C 92.4167 % 8.16 C
3120 08-11-2018 00:00:00 10.425 C 89.0660 % 8.7 C
3121 09-11-2018 00:00:00 9.62604 C 92.9861 % 8.55 C
3122 10-11-2018 00:00:00 11.90347 C 90.1250 % 10.34 C
3123 11-11-2018 00:00:00 12.04618 C 90.5972 % 10.56 C
3124 12-11-2018 00:00:00 13.70069 C 90.0278 % 12.1 C
3125 13-11-2018 00:00:00 10.46076 C 92.4965 % 9.3 C
Sensor: Nr:Datum:Temp:Feuchte:Taupunkt:
Aussen-T/F 3126 14-11-2018 00:00:00 6.18264 C 96.5938 % 5.68 C
3127 15-11-2018 00:00:00 6.9816 C 91.5660 % 5.71 C
3128 16-11-2018 00:00:00 5.92778 C 89.7882 % 4.38 C
3129 17-11-2018 00:00:00 2.75417 C 88.6667 % 1.07 C
3130 18-11-2018 00:00:00 1.8566 C 79.8333 % -1.25 C
3131 19-11-2018 00:00:00 3.57014 C 81.2153 % 0.66 C
3132 20-11-2018 00:00:00 3.50972 C 80.1910 % 0.43 C
3133 21-11-2018 00:00:00 2.50312 C 88.6979 % 0.83 C
3134 22-11-2018 00:00:00 2.91458 C 88.0903 % 1.14 C
3135 23-11-2018 00:00:00 0.10868 C 95.3785 % -0.54 C
3136 24-11-2018 00:00:00 4.74792 C 96.2674 % 4.21 C
3137 25-11-2018 00:00:00 5.98785 C 95.8785 % 5.38 C
3138 26-11-2018 00:00:00 6.65625 C 87.8958 % 4.8 C
3139 27-11-2018 00:00:00 4.12465 C 83.8368 % 1.64 C
3140 28-11-2018 00:00:00 3.7 C 91.6667 % 2.47 C
3141 29-11-2018 00:00:00 5.67875 C 92.7735 % 4.6 C
3142 30-11-2018 00:00:00 7.44514 C 94.6875 % 6.65 C
3143 01-12-2018 00:00:00 7.48993 C 91.5833 % 6.21 C
3144 02-12-2018 00:00:00 11.28056 C 93.0868 % 10.21 C
3145 03-12-2018 00:00:00 11.76701 C 95.7708 % 11.11 C
3146 04-12-2018 00:00:00 6.48715 C 90.9653 % 5.12 C
3147 05-12-2018 00:00:00 3.60729 C 96.1806 % 3.06 C
3148 06-12-2018 00:00:00 9.76042 C 93.8924 % 8.83 C
3149 07-12-2018 00:00:00 11.22882 C 86.6667 % 9.09 C
3150 08-12-2018 00:00:00 7.97361 C 88.5035 % 6.19 C
Sensor: Nr:Datum:Temp:Feuchte:Taupunkt:
Aussen-T/F 3151 09-12-2018 00:00:00 8.02544 C 87.9756 % 6.16 C
3152 10-12-2018 00:00:00 4.96771 C 91.2639 % 3.67 C
3153 11-12-2018 00:00:00 3.84375 C 93.7118 % 2.93 C
3154 12-12-2018 00:00:00 2.70801 C 95.4948 % 2.06 C
3155 13-12-2018 00:00:00 1.36181 C 87.4618 % -0.49 C
3156 14-12-2018 00:00:00 1.15521 C 77.4757 % -2.33 C
3157 15-12-2018 00:00:00 0.62683 C 78.6202 % -2.65 C
3158 16-12-2018 00:00:00 0.77743 C 90.5382 % -0.59 C
3159 17-12-2018 00:00:00 4.19722 C 94.8194 % 3.44 C
3160 18-12-2018 00:00:00 5.08229 C 90.2917 % 3.63 C
3161 19-12-2018 00:00:00 6.54495 C 88.8537 % 4.84 C
3162 20-12-2018 00:00:00 7.58741 C 89.6818 % 6 C
3163 21-12-2018 00:00:00 10.78507 C 86.4514 % 8.62 C
3164 22-12-2018 00:00:00 9.94266 C 85.9091 % 7.7 C
3165 23-12-2018 00:00:00 8.60868 C 93.6563 % 7.65 C
3166 24-12-2018 00:00:00 4.88924 C 90.8750 % 3.53 C
3167 25-12-2018 00:00:00 1.85208 C 93.1667 % 0.87 C
3168 26-12-2018 00:00:00 -0.91736 C 95.5035 % -1.54 C
3169 27-12-2018 00:00:00 0.08125 C 95.8090 % -0.51 C
3170 28-12-2018 00:00:00 0.225 C 94.9375 % -0.49 C
3171 29-12-2018 00:00:00 2.70972 C 93.3576 % 1.75 C
3172 30-12-2018 00:00:00 7.50313 C 87.4271 % 5.55 C
3173 31-12-2018 00:00:00 7.59271 C 96.4201 % 7.06 C
3174 01-01-2019 00:00:00 7.09271 C 92.0833 % 5.9 C
3175 02-01-2019 00:00:00 3.70104 C 82.7847 % 1.05 C
Sensor: Nr:Datum:Temp:Feuchte:Taupunkt:
Aussen-T/F 3176 03-01-2019 00:00:00 2.03715 C 93.0000 % 1.03 C
3177 04-01-2019 00:00:00 3.13785 C 91.9826 % 1.96 C
3178 05-01-2019 00:00:00 5.92632 C 93.3825 % 4.94 C
3179 06-01-2019 00:00:00 5.76944 C 91.7674 % 4.54 C
3180 07-01-2019 00:00:00 5.50417 C 89.8819 % 3.98 C
3181 08-01-2019 00:00:00 6.62222 C 85.9688 % 4.45 C
3182 09-01-2019 00:00:00 3.90486 C 83.8368 % 1.43 C
3183 10-01-2019 00:00:00 2.05694 C 83.7708 % -0.39 C
3184 11-01-2019 00:00:00 2.82847 C 94.7882 % 2.08 C
3185 12-01-2019 00:00:00 5.96702 C 92.9734 % 4.92 C
3186 13-01-2019 00:00:00 7.73715 C 94.1493 % 6.86 C
3187 14-01-2019 00:00:00 5.07083 C 89.5625 % 3.5 C
3188 15-01-2019 00:00:00 4.78854 C 89.1007 % 3.15 C
3189 16-01-2019 00:00:00 5.27187 C 85.4861 % 3.04 C
3190 17-01-2019 00:00:00 5.0066 C 87.3924 % 3.09 C
3191 18-01-2019 00:00:00 0.77569 C 91.8611 % -0.39 C
3192 19-01-2019 00:00:00 -2.72396 C 93.3299 % -3.65 C
3193 20-01-2019 00:00:00 -4.97187 C 92.8854 % -5.94 C
3194 21-01-2019 00:00:00 -6.20972 C 93.8472 % -7.04 C
3195 22-01-2019 00:00:00 -4.96667 C 92.0938 % -6.05 C
3196 23-01-2019 00:00:00 -1.57743 C 89.4028 % -3.09 C
3197 24-01-2019 00:00:00 -1.91736 C 83.8854 % -4.27 C
3198 25-01-2019 00:00:00 0.28403 C 88.1354 % -1.44 C
3199 26-01-2019 00:00:00 4.48229 C 92.3229 % 3.35 C
3200 27-01-2019 00:00:00 5.94583 C 90.0868 % 4.45 C
Sensor: Nr:Datum:Temp:Feuchte:Taupunkt:
Aussen-T/F 3201 28-01-2019 00:00:00 3.17118 C 90.8854 % 1.83 C
3202 29-01-2019 00:00:00 1.73021 C 89.6875 % 0.22 C
3203 30-01-2019 00:00:00 0.45972 C 93.3264 % -0.49 C
3204 31-01-2019 00:00:00 -0.09826 C 94.7188 % -0.84 C
3205 01-02-2019 00:00:00 1.74826 C 95.6389 % 1.13 C
3206 02-02-2019 00:00:00 2.46701 C 96.8611 % 2.02 C
3207 03-02-2019 00:00:00 2.7 C 88.6910 % 1.02 C
3208 04-02-2019 00:00:00 1.83229 C 87.0625 % -0.09 C
3209 05-02-2019 00:00:00 4.34375 C 81.1771 % 1.41 C
3210 06-02-2019 00:00:00 1.17639 C 89.9688 % -0.28 C
3211 07-02-2019 00:00:00 5.09549 C 88.0833 % 3.29 C
3212 08-02-2019 00:00:00 7.42604 C 83.5417 % 4.83 C
3213 09-02-2019 00:00:00 8.6309 C 79.8056 % 5.35 C
3214 10-02-2019 00:00:00 7.96076 C 88.4965 % 6.18 C
3215 11-02-2019 00:00:00 4.86736 C 86.4931 % 2.81 C
3216 12-02-2019 00:00:00 3.71597 C 86.6563 % 1.7 C
3217 13-02-2019 00:00:00 1.77951 C 91.5833 % 0.56 C
3218 14-02-2019 00:00:00 0.77431 C 92.7674 % -0.26 C
3219 15-02-2019 00:00:00 2.33854 C 89.2917 % 0.76 C
3220 16-02-2019 00:00:00 3.375 C 88.6319 % 1.68 C
3221 17-02-2019 00:00:00 3.45451 C 89.9236 % 1.96 C
3222 18-02-2019 00:00:00 3.69653 C 86.8368 % 1.71 C
3223 19-02-2019 00:00:00 5.85868 C 87.7118 % 3.98 C
3224 20-02-2019 00:00:00 4.70694 C 89.0660 % 3.06 C
3225 21-02-2019 00:00:00 6.3625 C 90.0174 % 4.85 C
Sensor: Nr:Datum:Temp:Feuchte:Taupunkt:
Aussen-T/F 3226 22-02-2019 00:00:00 9.91111 C 88.0347 % 8.03 C
3227 23-02-2019 00:00:00 5.41076 C 78.7188 % 2.02 C
3228 24-02-2019 00:00:00 3.39271 C 73.0729 % -0.96 C
3229 25-02-2019 00:00:00 5.05139 C 74.1181 % 0.83 C
3230 26-02-2019 00:00:00 6.18646 C 80.1042 % 3.02 C
3231 27-02-2019 00:00:00 6.63576 C 79.5313 % 3.36 C
3232 28-02-2019 00:00:00 8.81701 C 78.9201 % 5.37 C
3233 01-03-2019 00:00:00 8.12708 C 91.9583 % 6.9 C
3234 02-03-2019 00:00:00 8.64236 C 85.0868 % 6.28 C
3235 03-03-2019 00:00:00 11.11319 C 80.0069 % 7.8 C
3236 04-03-2019 00:00:00 9.71875 C 78.3854 % 6.15 C
3237 05-03-2019 00:00:00 6.87396 C 81.6181 % 3.95 C
3238 06-03-2019 00:00:00 10.01944 C 78.9792 % 6.55 C
3239 07-03-2019 00:00:00 10.20729 C 79.2014 % 6.77 C
3240 08-03-2019 00:00:00 8.18854 C 79.1181 % 4.79 C
3241 09-03-2019 00:00:00 10.36875 C 76.7188 % 6.46 C
3242 10-03-2019 00:00:00 9.55694 C 76.8507 % 5.7 C
3243 11-03-2019 00:00:00 4.7934 C 79.8264 % 1.61 C
3244 12-03-2019 00:00:00 6.61563 C 70.1319 % 1.57 C
3245 13-03-2019 00:00:00 6.20382 C 82.8472 % 3.51 C
3246 14-03-2019 00:00:00 7.03611 C 87.2674 % 5.07 C
3247 15-03-2019 00:00:00 10.13993 C 87.2014 % 8.11 C
3248 16-03-2019 00:00:00 10.23472 C 85.5417 % 7.92 C
3249 17-03-2019 00:00:00 8.66319 C 77.8160 % 5.02 C
3250 18-03-2019 00:00:00 4.96458 C 85.1458 % 2.68 C
Sensor: Nr:Datum:Temp:Feuchte:Taupunkt:
Aussen-T/F 3251 19-03-2019 00:00:00 3.83715 C 80.5000 % 0.8 C
3252 20-03-2019 00:00:00 5.47951 C 77.2882 % 1.83 C
3253 21-03-2019 00:00:00 7.53194 C 73.6076 % 3.13 C
3254 22-03-2019 00:00:00 9.15799 C 72.1563 % 4.41 C
3255 23-03-2019 00:00:00 6.18576 C 87.5035 % 4.27 C
3256 24-03-2019 00:00:00 6.4583 C 83.7380 % 3.91 C
3257 25-03-2019 00:00:00 5.13299 C 86.0243 % 2.99 C
3258 26-03-2019 00:00:00 6.64792 C 81.5799 % 3.73 C
3259 27-03-2019 00:00:00 6.81528 C 80.7535 % 3.75 C
3260 28-03-2019 00:00:00 7.32535 C 81.7951 % 4.43 C
3261 29-03-2019 00:00:00 8.96493 C 79.2708 % 5.57 C
3262 30-03-2019 00:00:00 10.50104 C 72.7500 % 5.82 C
3263 31-03-2019 00:00:00 10.31594 C 80.1486 % 7.05 C
3264 01-04-2019 00:00:00 9.41771 C 75.2326 % 5.26 C
3265 02-04-2019 00:00:00 10.74375 C 76.1979 % 6.73 C
3266 03-04-2019 00:00:00 8.37083 C 86.8889 % 6.32 C
3267 04-04-2019 00:00:00 6.05799 C 93.2604 % 5.05 C
3268 05-04-2019 00:00:00 6.32535 C 92.0556 % 5.13 C
3269 06-04-2019 00:00:00 10.20313 C 83.4549 % 7.53 C
3270 07-04-2019 00:00:00 12.02083 C 75.0764 % 7.75 C
3271 08-04-2019 00:00:00 12.69757 C 85.2188 % 10.28 C
3272 09-04-2019 00:00:00 12.23472 C 88.4201 % 10.38 C
3273 10-04-2019 00:00:00 10.80035 C 65.8750 % 4.69 C
3274 11-04-2019 00:00:00 6.94306 C 60.9931 % -0.05 C
3275 12-04-2019 00:00:00 5.01528 C 58.9653 % -2.32 C
Sensor: Nr:Datum:Temp:Feuchte:Taupunkt:
Aussen-T/F 3276 13-04-2019 00:00:00 3.85556 C 75.6458 % -0.04 C
3277 14-04-2019 00:00:00 5.53576 C 76.5590 % 1.75 C
3278 15-04-2019 00:00:00 10.42187 C 69.5868 % 5.11 C
3279 16-04-2019 00:00:00 11.20417 C 67.0417 % 5.32 C
3280 17-04-2019 00:00:00 12.74861 C 83.8576 % 10.09 C
3281 18-04-2019 00:00:00 14.16528 C 65.0556 % 7.7 C
3282 19-04-2019 00:00:00 15.41285 C 56.3681 % 6.78 C
3283 20-04-2019 00:00:00 14.87153 C 61.3125 % 7.5 C
3284 21-04-2019 00:00:00 15.62813 C 58.4688 % 7.52 C
3285 22-04-2019 00:00:00 14.99375 C 59.5382 % 7.19 C
3286 23-04-2019 00:00:00 15.15903 C 61.0799 % 7.72 C
3287 24-04-2019 00:00:00 15.11424 C 73.1042 % 10.34 C
3288 25-04-2019 00:00:00 13.28785 C 78.5139 % 9.64 C
3289 26-04-2019 00:00:00 11.86806 C 83.8681 % 9.23 C
3290 27-04-2019 00:00:00 9.34688 C 89.7569 % 7.75 C
3291 28-04-2019 00:00:00 8.50208 C 83.0000 % 5.79 C
3292 29-04-2019 00:00:00 8.56736 C 84.4653 % 6.1 C
3293 30-04-2019 00:00:00 14.05278 C 68.6979 % 8.39 C
3294 01-05-2019 00:00:00 12.7816 C 76.3333 % 8.73 C
3295 02-05-2019 00:00:00 11.4566 C 80.2535 % 8.18 C
3296 03-05-2019 00:00:00 11.00208 C 73.3056 % 6.42 C
3297 04-05-2019 00:00:00 6.36493 C 84.2014 % 3.9 C
3298 05-05-2019 00:00:00 6.67882 C 81.4167 % 3.73 C
3299 06-05-2019 00:00:00 7.62465 C 77.0660 % 3.87 C
3300 07-05-2019 00:00:00 9.6066 C 73.7396 % 5.16 C
Sensor: Nr:Datum:Temp:Feuchte:Taupunkt:
Aussen-T/F 3301 08-05-2019 00:00:00 9.41667 C 88.5972 % 7.63 C
3302 09-05-2019 00:00:00 11.20938 C 88.9410 % 9.46 C
3303 10-05-2019 00:00:00 12.49306 C 77.5833 % 8.69 C
3304 11-05-2019 00:00:00 10.05833 C 93.1111 % 9 C
3305 12-05-2019 00:00:00 9.40625 C 72.7778 % 4.78 C
3306 13-05-2019 00:00:00 9.96736 C 61.6701 % 2.96 C
3307 14-05-2019 00:00:00 9.58299 C 64.4479 % 3.22 C
3308 15-05-2019 00:00:00 9.79896 C 60.9583 % 2.64 C
3309 16-05-2019 00:00:00 10.83854 C 70.4271 % 5.68 C
3310 17-05-2019 00:00:00 11.60069 C 89.4896 % 9.93 C
3311 18-05-2019 00:00:00 14.44306 C 85.5035 % 12.04 C
3312 19-05-2019 00:00:00 15.85694 C 83.5868 % 13.08 C
3313 20-05-2019 00:00:00 13.90347 C 89.8125 % 12.26 C
3314 21-05-2019 00:00:00 12.49722 C 93.0868 % 11.41 C
3315 22-05-2019 00:00:00 13.38785 C 80.8681 % 10.17 C
3316 23-05-2019 00:00:00 15.11875 C 74.1389 % 10.55 C
3317 24-05-2019 00:00:00 16.93437 C 70.9271 % 11.63 C
3318 25-05-2019 00:00:00 15.60035 C 67.4167 % 9.59 C
3319 26-05-2019 00:00:00 15.92014 C 74.4549 % 11.39 C
3320 27-05-2019 00:00:00 14.98924 C 90.8889 % 13.51 C
3321 28-05-2019 00:00:00 13.95729 C 85.1146 % 11.5 C
3322 29-05-2019 00:00:00 14.97951 C 68.2535 % 9.18 C
3323 30-05-2019 00:00:00 15.62396 C 78.5069 % 11.9 C
3324 31-05-2019 00:00:00 19.22674 C 74.1806 % 14.52 C
3325 01-06-2019 00:00:00 19.98924 C 74.3090 % 15.28 C
Sensor: Nr:Datum:Temp:Feuchte:Taupunkt:
Aussen-T/F 3326 02-06-2019 00:00:00 22.09028 C 70.5521 % 16.49 C
3327 03-06-2019 00:00:00 20.85625 C 73.4583 % 15.94 C
3328 04-06-2019 00:00:00 21.5059 C 73.6146 % 16.59 C
3329 05-06-2019 00:00:00 23.45243 C 67.8507 % 17.17 C
3330 06-06-2019 00:00:00 15.94271 C 78.5556 % 12.22 C
3331 07-06-2019 00:00:00 15.6809 C 76.3646 % 11.54 C
3332 08-06-2019 00:00:00 16.15243 C 62.7743 % 9.06 C
3333 09-06-2019 00:00:00 16.23438 C 72.8542 % 11.36 C
3334 10-06-2019 00:00:00 19.2684 C 73.8403 % 14.49 C
3335 11-06-2019 00:00:00 17.19063 C 83.4826 % 14.37 C
3336 12-06-2019 00:00:00 16.48854 C 82.3194 % 13.47 C
3337 13-06-2019 00:00:00 15.92743 C 75.5694 % 11.62 C
3338 14-06-2019 00:00:00 17.88507 C 82.6875 % 14.9 C
3339 15-06-2019 00:00:00 19.62083 C 79.3646 % 15.95 C
3340 16-06-2019 00:00:00 19.34479 C 71.4271 % 14.05 C
3341 17-06-2019 00:00:00 18.93646 C 73.1111 % 14.02 C
3342 18-06-2019 00:00:00 21.4625 C 72.7188 % 16.36 C
3343 19-06-2019 00:00:00 22.17049 C 73.3125 % 17.17 C
3344 20-06-2019 00:00:00 19.48229 C 80.3681 % 16.01 C
3345 21-06-2019 00:00:00 18.55694 C 68.4306 % 12.64 C
3346 22-06-2019 00:00:00 19.16771 C 69.5729 % 13.47 C
3347 23-06-2019 00:00:00 21.78854 C 71.5521 % 16.42 C
3348 24-06-2019 00:00:00 24.3809 C 68.9965 % 18.32 C
3349 25-06-2019 00:00:00 26.30625 C 65.6458 % 19.36 C
3350 26-06-2019 00:00:00 26.97257 C 66.5486 % 20.21 C
Sensor: Nr:Datum:Temp:Feuchte:Taupunkt:
Aussen-T/F 3351 27-06-2019 00:00:00 24.42326 C 58.6910 % 15.81 C
3352 28-06-2019 00:00:00 21.63368 C 60.1458 % 13.57 C
3353 29-06-2019 00:00:00 24.00937 C 53.3750 % 13.95 C
3354 30-06-2019 00:00:00 25.32014 C 62.4688 % 17.63 C
3355 01-07-2019 00:00:00 22.68715 C 60.6875 % 14.7 C
3356 02-07-2019 00:00:00 19.04306 C 61.0868 % 11.38 C
3357 03-07-2019 00:00:00 17.43472 C 61.1146 % 9.87 C
3358 04-07-2019 00:00:00 18.23021 C 56.4375 % 9.43 C
3359 05-07-2019 00:00:00 20.73889 C 56.5486 % 11.8 C
3360 06-07-2019 00:00:00 21.18681 C 61.5174 % 13.5 C
3361 07-07-2019 00:00:00 17.74306 C 68.3819 % 11.85 C
3362 08-07-2019 00:00:00 14.44931 C 70.9271 % 9.25 C
3363 09-07-2019 00:00:00 15.40868 C 66.0868 % 9.11 C
3364 10-07-2019 00:00:00 16.98854 C 57.9271 % 8.66 C
3365 11-07-2019 00:00:00 17.76076 C 79.7500 % 14.22 C
3366 12-07-2019 00:00:00 17.3375 C 92.0313 % 16.03 C
3367 13-07-2019 00:00:00 17.99896 C 83.4549 % 15.15 C
3368 14-07-2019 00:00:00 16.92569 C 75.5729 % 12.58 C
3369 15-07-2019 00:00:00 16.34757 C 73.9826 % 11.7 C
3370 16-07-2019 00:00:00 16.0375 C 75.3507 % 11.68 C
3371 17-07-2019 00:00:00 17.21979 C 76.2847 % 13.01 C
3372 18-07-2019 00:00:00 19.06944 C 74.1424 % 14.36 C
3373 19-07-2019 00:00:00 20.2441 C 77.7257 % 16.23 C
3374 20-07-2019 00:00:00 21.61736 C 75.2292 % 17.04 C
3375 21-07-2019 00:00:00 21.96076 C 68.7569 % 15.96 C
Sensor: Nr:Datum:Temp:Feuchte:Taupunkt:
Aussen-T/F 3376 22-07-2019 00:00:00 22.29861 C 66.0139 % 15.64 C
3377 23-07-2019 00:00:00 25.05139 C 61.5764 % 17.15 C
3378 24-07-2019 00:00:00 27.05069 C 57.6528 % 17.98 C
3379 25-07-2019 00:00:00 28.69028 C 53.5729 % 18.33 C
3380 26-07-2019 00:00:00 27.21528 C 56.0694 % 17.69 C
3381 27-07-2019 00:00:00 23.20069 C 79.9340 % 19.54 C
3382 28-07-2019 00:00:00 19.86597 C 90.5938 % 18.28 C
3383 29-07-2019 00:00:00 21.16354 C 73.6146 % 16.26 C
3384 30-07-2019 00:00:00 21.86528 C 66.5625 % 15.36 C
3385 31-07-2019 00:00:00 21.06111 C 60.7778 % 13.2 C
3386 01-08-2019 00:00:00 19.46424 C 65.5833 % 12.85 C
3387 02-08-2019 00:00:00 20.52743 C 69.8611 % 14.84 C
3388 03-08-2019 00:00:00 20.39271 C 72.5833 % 15.3 C
3389 04-08-2019 00:00:00 20.53854 C 68.3681 % 14.51 C
3390 05-08-2019 00:00:00 22.56562 C 67.3333 % 16.21 C
3391 06-08-2019 00:00:00 19.97604 C 80.0104 % 16.42 C
3392 07-08-2019 00:00:00 19.07535 C 87.4479 % 16.94 C
3393 08-08-2019 00:00:00 20.39132 C 75.4826 % 15.91 C
3394 09-08-2019 00:00:00 19.85833 C 86.8125 % 17.6 C
3395 10-08-2019 00:00:00 20.67986 C 77.2986 % 16.56 C
3396 11-08-2019 00:00:00 16.99444 C 80.9028 % 13.69 C
3397 12-08-2019 00:00:00 16.4441 C 84.5729 % 13.84 C
3398 13-08-2019 00:00:00 15.94306 C 78.5799 % 12.23 C
3399 14-08-2019 00:00:00 16.52882 C 76.0139 % 12.29 C
3400 15-08-2019 00:00:00 17.34306 C 88.4896 % 15.42 C
Sensor: Nr:Datum:Temp:Feuchte:Taupunkt:
Aussen-T/F 3401 16-08-2019 00:00:00 17.72257 C 80.7049 % 14.37 C
3402 17-08-2019 00:00:00 18.07049 C 86.6146 % 15.8 C
3403 18-08-2019 00:00:00 19.8941 C 90.2847 % 18.25 C
3404 19-08-2019 00:00:00 18.3684 C 77.8715 % 14.44 C
3405 20-08-2019 00:00:00 15.78611 C 80.0347 % 12.35 C
3406 21-08-2019 00:00:00 16.52222 C 75.4306 % 12.17 C
3407 22-08-2019 00:00:00 17.27465 C 72.3576 % 12.26 C
3408 23-08-2019 00:00:00 18.44792 C 70.9271 % 13.08 C
3409 24-08-2019 00:00:00 19.52326 C 70.7153 % 14.06 C
3410 25-08-2019 00:00:00 21.57431 C 75.4097 % 17.04 C
3411 26-08-2019 00:00:00 22.3684 C 80.4097 % 18.83 C
3412 27-08-2019 00:00:00 22.81979 C 79.4132 % 19.07 C
3413 28-08-2019 00:00:00 23.38924 C 73.0868 % 18.29 C
3414 29-08-2019 00:00:00 22.04201 C 76.9236 % 17.81 C
3415 30-08-2019 00:00:00 21.0059 C 72.4444 % 15.86 C
3416 31-08-2019 00:00:00 22.0566 C 72.1215 % 16.8 C
3417 01-09-2019 00:00:00 18.73056 C 76.1563 % 14.45 C
3418 02-09-2019 00:00:00 15.43958 C 67.8264 % 9.53 C
3419 03-09-2019 00:00:00 15.68611 C 70.4340 % 10.33 C
3420 04-09-2019 00:00:00 16.83646 C 77.0521 % 12.79 C
3421 05-09-2019 00:00:00 15.41285 C 74.8958 % 10.99 C
3422 06-09-2019 00:00:00 13.54271 C 71.3021 % 8.45 C
3423 07-09-2019 00:00:00 12.95382 C 86.8160 % 10.81 C
3424 08-09-2019 00:00:00 12.67778 C 94.2569 % 11.78 C
3425 09-09-2019 00:00:00 12.50868 C 90.4583 % 10.99 C
Sensor: Nr:Datum:Temp:Feuchte:Taupunkt:
Aussen-T/F 3426 10-09-2019 00:00:00 11.86563 C 85.2361 % 9.47 C
3427 11-09-2019 00:00:00 13.34931 C 80.9444 % 10.15 C
3428 12-09-2019 00:00:00 19.07292 C 78.3889 % 15.23 C
3429 13-09-2019 00:00:00 17.76319 C 88.1424 % 15.78 C
3430 14-09-2019 00:00:00 15.58229 C 81.1806 % 12.37 C
3431 15-09-2019 00:00:00 15.40243 C 78.5451 % 11.69 C
3432 16-09-2019 00:00:00 16.09444 C 78.7569 % 12.41 C
3433 17-09-2019 00:00:00 15.6191 C 73.6736 % 10.94 C
3434 18-09-2019 00:00:00 11.41215 C 73.9826 % 6.95 C
3435 19-09-2019 00:00:00 10.47361 C 74.5903 % 6.16 C
3436 20-09-2019 00:00:00 10.72153 C 72.3958 % 5.97 C
3437 21-09-2019 00:00:00 12.32465 C 69.3090 % 6.87 C
3438 22-09-2019 00:00:00 14.8625 C 75.8819 % 10.65 C
3439 23-09-2019 00:00:00 16.54479 C 84.7118 % 13.96 C
3440 24-09-2019 00:00:00 14.13194 C 90.2847 % 12.57 C
3441 25-09-2019 00:00:00 15.26806 C 90.7986 % 13.77 C
3442 26-09-2019 00:00:00 16.26111 C 92.6840 % 15.07 C
3443 27-09-2019 00:00:00 16.20451 C 86.9097 % 14.02 C
3444 28-09-2019 00:00:00 15.30903 C 84.9306 % 12.79 C
3445 29-09-2019 00:00:00 16.12778 C 82.9965 % 13.24 C
3446 30-09-2019 00:00:00 15.31424 C 80.2917 % 11.94 C
3447 01-10-2019 00:00:00 15.98125 C 88.2743 % 14.04 C
3448 02-10-2019 00:00:00 12.49479 C 83.0764 % 9.7 C
3449 03-10-2019 00:00:00 9.77535 C 90.5313 % 8.3 C
3450 04-10-2019 00:00:00 10.31563 C 95.1563 % 9.58 C
Sensor: Nr:Datum:Temp:Feuchte:Taupunkt:
Aussen-T/F 3451 05-10-2019 00:00:00 10.64965 C 87.9444 % 8.74 C
3452 06-10-2019 00:00:00 8.34063 C 95.9896 % 7.74 C
3453 07-10-2019 00:00:00 10.09167 C 94.3785 % 9.23 C
3454 08-10-2019 00:00:00 12.83333 C 94.7292 % 12.01 C
3455 09-10-2019 00:00:00 11.68715 C 92.5069 % 10.51 C
3456 10-10-2019 00:00:00 11.67509 C 86.3404 % 9.47 C
3457 11-10-2019 00:00:00 12.72361 C 89.2500 % 11 C
3458 12-10-2019 00:00:00 13.63368 C 89.1597 % 11.88 C
3459 13-10-2019 00:00:00 16.44722 C 91.2153 % 15.01 C
3460 14-10-2019 00:00:00 16.00938 C 89.6632 % 14.31 C
3461 15-10-2019 00:00:00 14.32674 C 92.2014 % 13.08 C
3462 16-10-2019 00:00:00 12.65347 C 94.1042 % 11.73 C
3463 17-10-2019 00:00:00 14.64826 C 90.9861 % 13.19 C
3464 18-10-2019 00:00:00 12.52604 C 91.7500 % 11.22 C
3465 19-10-2019 00:00:00 12.88561 C 90.9460 % 11.44 C
3466 20-10-2019 00:00:00 13.60139 C 97.5645 % 13.22 C
3467 21-10-2019 00:00:00 13.67735 C 93.5157 % 12.65 C
3468 22-10-2019 00:00:00 11.49819 C 91.8520 % 10.22 C
3469 23-10-2019 00:00:00 11.05972 C 94.7847 % 10.26 C
3470 24-10-2019 00:00:00 14.06458 C 92.1528 % 12.81 C
3471 25-10-2019 00:00:00 13.32951 C 87.3889 % 11.28 C
3472 26-10-2019 00:00:00 13.17604 C 91.4201 % 11.81 C
3473 27-10-2019 00:00:00 10.25174 C 93.0868 % 9.19 C
3474 28-10-2019 00:00:00 6.33854 C 96.7847 % 5.87 C
3475 29-10-2019 00:00:00 6.56632 C 92.0972 % 5.38 C
Sensor: Nr:Datum:Temp:Feuchte:Taupunkt:
Aussen-T/F 3476 30-10-2019 00:00:00 3.52778 C 93.9410 % 2.65 C
3477 31-10-2019 00:00:00 2.23438 C 93.5799 % 1.31 C
3478 01-11-2019 00:00:00 6.02465 C 96.1736 % 5.46 C
3479 02-11-2019 00:00:00 13.19792 C 90.2188 % 11.63 C
3480 03-11-2019 00:00:00 11.85035 C 91.8125 % 10.56 C
3481 04-11-2019 00:00:00 10.33333 C 92.9306 % 9.24 C
3482 05-11-2019 00:00:00 9.70972 C 89.4826 % 8.07 C
3483 06-11-2019 00:00:00 8.97569 C 95.1563 % 8.24 C
3484 07-11-2019 00:00:00 7.93611 C 95.3368 % 7.24 C
3485 08-11-2019 00:00:00 4.99444 C 96.5208 % 4.49 C
3486 09-11-2019 00:00:00 4.99167 C 94.0208 % 4.11 C
3487 10-11-2019 00:00:00 3.02188 C 95.6250 % 2.39 C
3488 11-11-2019 00:00:00 4.67986 C 91.5590 % 3.43 C
3489 12-11-2019 00:00:00 5.9125 C 88.3194 % 4.13 C
3490 13-11-2019 00:00:00 5.47431 C 88.2153 % 3.68 C
3491 14-11-2019 00:00:00 5.50729 C 85.9549 % 3.35 C
3492 15-11-2019 00:00:00 4.68958 C 88.1493 % 2.9 C
3493 16-11-2019 00:00:00 2.11389 C 95.5069 % 1.47 C
3494 17-11-2019 00:00:00 3.09271 C 97.1215 % 2.68 C
3495 18-11-2019 00:00:00 4.31181 C 96.2604 % 3.77 C
3496 19-11-2019 00:00:00 3.99132 C 94.7500 % 3.23 C
3497 20-11-2019 00:00:00 1.59583 C 94.7847 % 0.85 C
3498 21-11-2019 00:00:00 1.90833 C 96.0347 % 1.34 C
3499 22-11-2019 00:00:00 4.39097 C 95.3056 % 3.71 C
3500 23-11-2019 00:00:00 5.38785 C 93.0174 % 4.35 C
Sensor: Nr:Datum:Temp:Feuchte:Taupunkt:
Aussen-T/F 3501 24-11-2019 00:00:00 2.90104 C 97.1979 % 2.5 C
3502 25-11-2019 00:00:00 4.80833 C 97.1042 % 4.39 C
3503 26-11-2019 00:00:00 8.38542 C 94.7500 % 7.59 C
3504 27-11-2019 00:00:00 10.34479 C 89.7222 % 8.73 C
3505 28-11-2019 00:00:00 10.92778 C 83.5694 % 8.26 C
3506 29-11-2019 00:00:00 6.44618 C 89.1771 % 4.8 C
3507 30-11-2019 00:00:00 1.19549 C 96.2257 % 0.66 C
3508 01-12-2019 00:00:00 1.79271 C 92.4965 % 0.71 C
3509 02-12-2019 00:00:00 1.98646 C 93.2778 % 1.02 C
3510 03-12-2019 00:00:00 4.75729 C 96.0625 % 4.18 C
3511 04-12-2019 00:00:00 1.34375 C 96.3681 % 0.83 C
3512 05-12-2019 00:00:00 -1.15625 C 96.9167 % -1.58 C
3513 06-12-2019 00:00:00 3.41285 C 93.3160 % 2.44 C
3514 07-12-2019 00:00:00 8.70903 C 88.7882 % 6.97 C
3515 08-12-2019 00:00:00 10.05903 C 86.0243 % 7.83 C
3516 09-12-2019 00:00:00 7.72222 C 84.5833 % 5.29 C
3517 10-12-2019 00:00:00 3.24757 C 90.9167 % 1.91 C
3518 11-12-2019 00:00:00 3.97292 C 94.6632 % 3.2 C
3519 12-12-2019 00:00:00 3.52361 C 93.9618 % 2.65 C
3520 13-12-2019 00:00:00 4.09722 C 92.0938 % 2.93 C
3521 14-12-2019 00:00:00 6.8934 C 85.5833 % 4.65 C
3522 15-12-2019 00:00:00 7.90069 C 88.2847 % 6.09 C
3523 16-12-2019 00:00:00 8.12951 C 96.7951 % 7.65 C
3524 17-12-2019 00:00:00 10.43056 C 89.8924 % 8.85 C
3525 18-12-2019 00:00:00 7.77014 C 93.5347 % 6.79 C
Sensor: Nr:Datum:Temp:Feuchte:Taupunkt:
Aussen-T/F 3526 19-12-2019 00:00:00 5.57986 C 95.8611 % 4.97 C
3527 20-12-2019 00:00:00 7.73264 C 92.3542 % 6.57 C
3528 21-12-2019 00:00:00 7.24826 C 90.1111 % 5.74 C
3529 22-12-2019 00:00:00 8.18368 C 89.0243 % 6.49 C
3530 23-12-2019 00:00:00 7.83021 C 88.5660 % 6.06 C
3531 24-12-2019 00:00:00 7.67986 C 89.1910 % 6.02 C
3532 25-12-2019 00:00:00 7.66389 C 90.7500 % 6.25 C
3533 26-12-2019 00:00:00 4.9934 C 96.1910 % 4.44 C
3534 27-12-2019 00:00:00 5.12153 C 94.6042 % 4.33 C
3535 28-12-2019 00:00:00 -0.27465 C 95.9965 % -0.83 C
3536 29-12-2019 00:00:00 -1.04618 C 95.4028 % -1.69 C
3537 30-12-2019 00:00:00 -0.88507 C 94.5521 % -1.65 C
3538 31-12-2019 00:00:00 0.52326 C 93.2639 % -0.44 C
3539 01-01-2020 00:00:00 0.89583 C 94.9653 % 0.18 C
3540 02-01-2020 00:00:00 1.68611 C 94.9097 % 0.96 C
3541 03-01-2020 00:00:00 7.56111 C 91.1042 % 6.21 C
3542 04-01-2020 00:00:00 5.45936 C 89.2438 % 3.83 C
3543 05-01-2020 00:00:00 5.96021 C 93.0845 % 4.93 C
3544 06-01-2020 00:00:00 2.98542 C 93.2813 % 2.01 C
3545 07-01-2020 00:00:00 5.07812 C 92.2535 % 3.93 C
3546 08-01-2020 00:00:00 8.28333 C 92.5347 % 7.15 C
3547 09-01-2020 00:00:00 10.92535 C 92.7778 % 9.8 C
3548 10-01-2020 00:00:00 8.91667 C 88.2604 % 7.08 C
3549 11-01-2020 00:00:00 4.34236 C 88.6354 % 2.64 C
3550 12-01-2020 00:00:00 5.14718 C 87.9120 % 3.31 C
Sensor: Nr:Datum:Temp:Feuchte:Taupunkt:
Aussen-T/F 3551 13-01-2020 00:00:00 6.54201 C 91.7431 % 5.3 C
3552 14-01-2020 00:00:00 9.77153 C 77.8924 % 6.11 C
3553 15-01-2020 00:00:00 10.89063 C 76.6285 % 6.95 C
3554 16-01-2020 00:00:00 7.81181 C 95.4653 % 7.13 C
3555 17-01-2020 00:00:00 6.03854 C 93.7014 % 5.1 C
3556 18-01-2020 00:00:00 4.44062 C 88.2049 % 2.66 C
3557 19-01-2020 00:00:00 3.78507 C 94.1736 % 2.94 C
3558 20-01-2020 00:00:00 2.42431 C 91.7396 % 1.22 C
3559 21-01-2020 00:00:00 -1.80243 C 96.3750 % -2.3 C
3560 22-01-2020 00:00:00 -1.19236 C 97.1354 % -1.59 C
3561 23-01-2020 00:00:00 1.30764 C 97.1111 % 0.9 C
3562 24-01-2020 00:00:00 1.43415 C 91.4390 % 0.2 C
3563 25-01-2020 00:00:00 2.65128 C 94.0366 % 1.79 C
3564 26-01-2020 00:00:00 2.81007 C 94.9063 % 2.08 C
3565 27-01-2020 00:00:00 6.29028 C 94.0347 % 5.4 C
3566 28-01-2020 00:00:00 5.69583 C 86.0521 % 3.55 C
3567 29-01-2020 00:00:00 4.80035 C 82.8264 % 2.14 C
3568 30-01-2020 00:00:00 7.99861 C 84.7257 % 5.59 C
3569 31-01-2020 00:00:00 13.03785 C 84.2014 % 10.44 C
3570 01-02-2020 00:00:00 11.64167 C 87.8160 % 9.69 C
3571 02-02-2020 00:00:00 10.18611 C 84.6319 % 7.72 C
3572 03-02-2020 00:00:00 10.60417 C 82.2847 % 7.71 C
3573 04-02-2020 00:00:00 5.02986 C 89.6736 % 3.48 C
3574 05-02-2020 00:00:00 3.76389 C 88.0764 % 1.98 C
3575 06-02-2020 00:00:00 0.78437 C 93.4340 % -0.15 C
Sensor: Nr:Datum:Temp:Feuchte:Taupunkt:
Aussen-T/F 3576 07-02-2020 00:00:00 0.2559 C 95.0521 % -0.44 C
3577 08-02-2020 00:00:00 1.77708 C 94.2569 % 0.95 C
3578 09-02-2020 00:00:00 8.82708 C 82.6076 % 6.03 C
3579 10-02-2020 00:00:00 8.29444 C 82.5104 % 5.5 C
3580 11-02-2020 00:00:00 5.77535 C 73.1319 % 1.35 C
3581 12-02-2020 00:00:00 4.81875 C 81.1910 % 1.87 C
3582 13-02-2020 00:00:00 4.01076 C 92.9375 % 2.97 C
3583 14-02-2020 00:00:00 6.17951 C 91.1042 % 4.84 C
3584 15-02-2020 00:00:00 6.23438 C 89.5347 % 4.64 C
3585 16-02-2020 00:00:00 14.59028 C 64.9583 % 8.08 C
3586 17-02-2020 00:00:00 8.54375 C 82.6597 % 5.77 C
3587 18-02-2020 00:00:00 7.24965 C 80.2083 % 4.07 C
3588 19-02-2020 00:00:00 6.24514 C 77.9688 % 2.7 C
3589 20-02-2020 00:00:00 8.16562 C 82.5000 % 5.37 C
3590 21-02-2020 00:00:00 5.17604 C 82.3542 % 2.42 C
3591 22-02-2020 00:00:00 8.05035 C 78.1007 % 4.47 C
3592 23-02-2020 00:00:00 10.5066 C 86.7535 % 8.4 C
3593 24-02-2020 00:00:00 8.10972 C 87.2431 % 6.12 C
3594 25-02-2020 00:00:00 9.07813 C 81.3194 % 6.05 C
3595 26-02-2020 00:00:00 4.86319 C 80.5799 % 1.81 C
3596 27-02-2020 00:00:00 2.97813 C 90.2500 % 1.54 C
3597 28-02-2020 00:00:00 3.97257 C 87.1111 % 2.03 C
3598 29-02-2020 00:00:00 8.92083 C 83.1944 % 6.23 C
3599 01-03-2020 00:00:00 7.55313 C 83.2500 % 4.9 C
3600 02-03-2020 00:00:00 6.27882 C 88.9965 % 4.6 C
Sensor: Nr:Datum:Temp:Feuchte:Taupunkt:
Aussen-T/F 3601 03-03-2020 00:00:00 4.69236 C 88.6910 % 2.99 C
3602 04-03-2020 00:00:00 5.49583 C 85.8333 % 3.32 C
3603 05-03-2020 00:00:00 6.08229 C 93.0486 % 5.05 C
3604 06-03-2020 00:00:00 6.29896 C 90.4271 % 4.85 C
3605 07-03-2020 00:00:00 6.57396 C 78.9375 % 3.19 C
3606 08-03-2020 00:00:00 9.63993 C 76.9618 % 5.8 C
3607 09-03-2020 00:00:00 7.99514 C 81.5208 % 5.03 C
3608 10-03-2020 00:00:00 9.51076 C 90.5833 % 8.05 C
3609 11-03-2020 00:00:00 14.09028 C 86.0660 % 11.8 C
3610 12-03-2020 00:00:00 11.24514 C 72.6007 % 6.51 C
3611 13-03-2020 00:00:00 7.37569 C 76.2951 % 3.49 C
3612 14-03-2020 00:00:00 6.05799 C 83.2604 % 3.44 C
3613 15-03-2020 00:00:00 8.92639 C 74.2326 % 4.6 C
3614 16-03-2020 00:00:00 9.3 C 80.2431 % 6.08 C
3615 17-03-2020 00:00:00 11.38021 C 79.9722 % 8.05 C
3616 18-03-2020 00:00:00 9.96493 C 82.5590 % 7.14 C
3617 19-03-2020 00:00:00 12.13646 C 76.1042 % 8.06 C
3618 20-03-2020 00:00:00 10.33299 C 84.0660 % 7.76 C
3619 21-03-2020 00:00:00 6.16667 C 76.4236 % 2.34 C
3620 22-03-2020 00:00:00 4.50243 C 57.8438 % -3.06 C
3621 23-03-2020 00:00:00 2.99688 C 55.3889 % -5.05 C
3622 24-03-2020 00:00:00 2.86181 C 56.4375 % -4.93 C
3623 25-03-2020 00:00:00 3.75208 C 52.7257 % -4.99 C
3624 26-03-2020 00:00:00 5.07118 C 57.3819 % -2.64 C
3625 27-03-2020 00:00:00 7.93715 C 66.7500 % 2.15 C
Sensor: Nr:Datum:Temp:Feuchte:Taupunkt:
Aussen-T/F 3626 28-03-2020 00:00:00 9.59861 C 66.6528 % 3.71 C
3627 29-03-2020 00:00:00 5.44891 C 69.6413 % 0.36 C
3628 30-03-2020 00:00:00 2.775 C 64.1319 % -3.31 C
3629 31-03-2020 00:00:00 5.47118 C 66.1771 % -0.32 C
3630 01-04-2020 00:00:00 3.8184 C 62.2569 % -2.72 C
3631 02-04-2020 00:00:00 5.06042 C 67.9931 % -0.35 C
3632 03-04-2020 00:00:00 8.20382 C 67.0382 % 2.46 C
3633 04-04-2020 00:00:00 6.78958 C 68.9722 % 1.51 C
3634 05-04-2020 00:00:00 9.49479 C 65.0729 % 3.27 C
3635 06-04-2020 00:00:00 12.0434 C 60.3299 % 4.61 C
3636 07-04-2020 00:00:00 13.80521 C 67.0417 % 7.8 C
3637 08-04-2020 00:00:00 14.48472 C 65.0764 % 8.01 C
3638 09-04-2020 00:00:00 15.29167 C 62.6840 % 8.22 C
3639 10-04-2020 00:00:00 14.13646 C 66.3542 % 7.96 C
3640 11-04-2020 00:00:00 14.06563 C 57.0417 % 5.7 C
3641 12-04-2020 00:00:00 15.15174 C 60.2361 % 7.51 C
3642 13-04-2020 00:00:00 9.40139 C 69.2118 % 4.05 C
3643 14-04-2020 00:00:00 6.11181 C 64.0868 % -0.16 C
3644 15-04-2020 00:00:00 8.67361 C 64.9514 % 2.46 C
3645 16-04-2020 00:00:00 12.83299 C 63.9514 % 6.19 C
3646 17-04-2020 00:00:00 15.23854 C 69.5278 % 9.71 C
3647 18-04-2020 00:00:00 14.52083 C 78.8333 % 10.89 C
3648 19-04-2020 00:00:00 13.06597 C 78.2396 % 9.37 C
3649 20-04-2020 00:00:00 12.5066 C 50.4653 % 2.51 C
3650 21-04-2020 00:00:00 13.59583 C 47.9965 % 2.81 C
Sensor: Nr:Datum:Temp:Feuchte:Taupunkt:
Aussen-T/F 3651 22-04-2020 00:00:00 14.35 C 50.4549 % 4.2 C

Maximal/Minimal-Werte vom 23.04.2010 - 22.04.2020

Sensor Min Max Avg
Temp
(Aussen-T/F)
-15.3 °C
07-02-2012  08:00:00
40.4 °C
25-07-2019  16:20:00
10.94 °C
Feuchte
(Aussen-T/F)
18 %
17-07-2015  15:55:00
100 %
07-10-2012  03:05:00
81.47 %
Taupunkt
(Aussen-T/F)
-15.35 C
02-02-2012  00:00:00
21.36 C
19-06-2013  00:00:00
7.5 C

Die Daten stammen von einer Davis Vantage Pro 2 Wetter-Station und werden unter Linux mit der Software wview2wettercgi und aufbereitet. Alle Angaben erfolgen ohne Gewähr für ihre Vollständigkeit oder Richtigkeit.
Kontakt: Rainer Krienke krienke@uni-koblenz.de . Meine Webseiten an der Uni Koblenz oder privat.
Version: $Revision: 0.78 $